<?xml version="1.0" encoding="UTF-8" standalone="no" ?>
<gpx xmlns="http://www.topografix.com/GPX/1/1" xmlns:xsi="http://www.w3.org/2001/XMLSchema-instance" xsi:schemaLocation="http://www.topografix.com/GPX/1/1 http://www.topografix.com/GPX/1/1/gpx.xsd" version="1.1" creator="VisuGPX - https://www.visugpx.com">
  <metadata>
    <name>forêt de brain s/longuenée</name>
    <desc><![CDATA[cool pour rouler]]></desc>
  </metadata>
  <trk>
    <name><![CDATA[22-JUIL-14 16:37:11]]></name>
    <trkseg>
      <trkpt lat="47.53872" lon="-0.62074">
        <ele>-9.96</ele>
        <time>2014-07-22T11:59:04Z</time>
      </trkpt>
      <trkpt lat="47.53874" lon="-0.62072">
        <ele>-10.92</ele>
        <time>2014-07-22T11:59:09Z</time>
      </trkpt>
      <trkpt lat="47.53866" lon="-0.62067">
        <ele>-10.92</ele>
        <time>2014-07-22T11:59:29Z</time>
      </trkpt>
      <trkpt lat="47.53865" lon="-0.62066">
        <ele>-7.55</ele>
        <time>2014-07-22T11:59:37Z</time>
      </trkpt>
      <trkpt lat="47.53864" lon="-0.62066">
        <ele>-2.75</ele>
        <time>2014-07-22T11:59:39Z</time>
      </trkpt>
      <trkpt lat="47.53864" lon="-0.62066">
        <ele>1.1</ele>
        <time>2014-07-22T11:59:41Z</time>
      </trkpt>
      <trkpt lat="47.53864" lon="-0.62065">
        <ele>4.46</ele>
        <time>2014-07-22T11:59:43Z</time>
      </trkpt>
      <trkpt lat="47.53864" lon="-0.62065">
        <ele>9.27</ele>
        <time>2014-07-22T11:59:44Z</time>
      </trkpt>
      <trkpt lat="47.53865" lon="-0.62065">
        <ele>7.83</ele>
        <time>2014-07-22T11:59:45Z</time>
      </trkpt>
      <trkpt lat="47.53865" lon="-0.62066">
        <ele>10.71</ele>
        <time>2014-07-22T11:59:48Z</time>
      </trkpt>
      <trkpt lat="47.53864" lon="-0.62065">
        <ele>16</ele>
        <time>2014-07-22T11:59:51Z</time>
      </trkpt>
      <trkpt lat="47.53865" lon="-0.62065">
        <ele>16</ele>
        <time>2014-07-22T11:59:52Z</time>
      </trkpt>
      <trkpt lat="47.53865" lon="-0.62065">
        <ele>18.88</ele>
        <time>2014-07-22T11:59:55Z</time>
      </trkpt>
      <trkpt lat="47.53865" lon="-0.62065">
        <ele>22.25</ele>
        <time>2014-07-22T11:59:59Z</time>
      </trkpt>
      <trkpt lat="47.53865" lon="-0.62065">
        <ele>25.61</ele>
        <time>2014-07-22T12:00:03Z</time>
      </trkpt>
      <trkpt lat="47.53865" lon="-0.62064">
        <ele>26.09</ele>
        <time>2014-07-22T12:00:04Z</time>
      </trkpt>
      <trkpt lat="47.53865" lon="-0.62064">
        <ele>28.98</ele>
        <time>2014-07-22T12:00:09Z</time>
      </trkpt>
      <trkpt lat="47.53865" lon="-0.62064">
        <ele>30.42</ele>
        <time>2014-07-22T12:00:12Z</time>
      </trkpt>
      <trkpt lat="47.53866" lon="-0.62065">
        <ele>33.78</ele>
        <time>2014-07-22T12:00:19Z</time>
      </trkpt>
      <trkpt lat="47.53867" lon="-0.62065">
        <ele>36.19</ele>
        <time>2014-07-22T12:00:27Z</time>
      </trkpt>
      <trkpt lat="47.53868" lon="-0.62067">
        <ele>39.07</ele>
        <time>2014-07-22T12:00:43Z</time>
      </trkpt>
      <trkpt lat="47.53868" lon="-0.62067">
        <ele>40.99</ele>
        <time>2014-07-22T12:01:01Z</time>
      </trkpt>
      <trkpt lat="47.53868" lon="-0.62067">
        <ele>40.99</ele>
        <time>2014-07-22T12:01:14Z</time>
      </trkpt>
      <trkpt lat="47.53868" lon="-0.62067">
        <ele>40.99</ele>
        <time>2014-07-22T12:01:29Z</time>
      </trkpt>
      <trkpt lat="47.53868" lon="-0.62067">
        <ele>41.47</ele>
        <time>2014-07-22T12:01:49Z</time>
      </trkpt>
      <trkpt lat="47.53868" lon="-0.62067">
        <ele>40.99</ele>
        <time>2014-07-22T12:02:11Z</time>
      </trkpt>
      <trkpt lat="47.53868" lon="-0.62067">
        <ele>41.47</ele>
        <time>2014-07-22T12:02:32Z</time>
      </trkpt>
      <trkpt lat="47.53868" lon="-0.62066">
        <ele>40.99</ele>
        <time>2014-07-22T12:02:49Z</time>
      </trkpt>
      <trkpt lat="47.53868" lon="-0.62066">
        <ele>40.99</ele>
        <time>2014-07-22T12:03:08Z</time>
      </trkpt>
      <trkpt lat="47.53868" lon="-0.62067">
        <ele>41.47</ele>
        <time>2014-07-22T12:03:26Z</time>
      </trkpt>
      <trkpt lat="47.53868" lon="-0.62067">
        <ele>40.03</ele>
        <time>2014-07-22T12:03:38Z</time>
      </trkpt>
      <trkpt lat="47.53869" lon="-0.62068">
        <ele>41.95</ele>
        <time>2014-07-22T12:03:45Z</time>
      </trkpt>
      <trkpt lat="47.5387" lon="-0.62069">
        <ele>40.99</ele>
        <time>2014-07-22T12:03:51Z</time>
      </trkpt>
      <trkpt lat="47.53872" lon="-0.62071">
        <ele>40.51</ele>
        <time>2014-07-22T12:03:57Z</time>
      </trkpt>
      <trkpt lat="47.53873" lon="-0.62071">
        <ele>40.99</ele>
        <time>2014-07-22T12:03:59Z</time>
      </trkpt>
      <trkpt lat="47.53869" lon="-0.62077">
        <ele>40.99</ele>
        <time>2014-07-22T12:04:04Z</time>
      </trkpt>
      <trkpt lat="47.53866" lon="-0.62088">
        <ele>40.99</ele>
        <time>2014-07-22T12:04:08Z</time>
      </trkpt>
      <trkpt lat="47.5386" lon="-0.62092">
        <ele>40.99</ele>
        <time>2014-07-22T12:04:12Z</time>
      </trkpt>
      <trkpt lat="47.53863" lon="-0.6208">
        <ele>41.47</ele>
        <time>2014-07-22T12:04:16Z</time>
      </trkpt>
      <trkpt lat="47.53871" lon="-0.62073">
        <ele>40.99</ele>
        <time>2014-07-22T12:04:21Z</time>
      </trkpt>
      <trkpt lat="47.53873" lon="-0.6207">
        <ele>40.99</ele>
        <time>2014-07-22T12:04:27Z</time>
      </trkpt>
      <trkpt lat="47.53873" lon="-0.6207">
        <ele>40.51</ele>
        <time>2014-07-22T12:04:44Z</time>
      </trkpt>
      <trkpt lat="47.53873" lon="-0.6207">
        <ele>40.51</ele>
        <time>2014-07-22T12:04:48Z</time>
      </trkpt>
      <trkpt lat="47.53874" lon="-0.6207">
        <ele>40.51</ele>
        <time>2014-07-22T12:04:50Z</time>
      </trkpt>
      <trkpt lat="47.53872" lon="-0.62076">
        <ele>40.51</ele>
        <time>2014-07-22T12:04:53Z</time>
      </trkpt>
      <trkpt lat="47.53869" lon="-0.62079">
        <ele>40.99</ele>
        <time>2014-07-22T12:04:55Z</time>
      </trkpt>
      <trkpt lat="47.53866" lon="-0.62084">
        <ele>41.47</ele>
        <time>2014-07-22T12:04:57Z</time>
      </trkpt>
      <trkpt lat="47.53859" lon="-0.62089">
        <ele>40.99</ele>
        <time>2014-07-22T12:05:01Z</time>
      </trkpt>
      <trkpt lat="47.53837" lon="-0.62105">
        <ele>40.99</ele>
        <time>2014-07-22T12:05:10Z</time>
      </trkpt>
      <trkpt lat="47.5382" lon="-0.62112">
        <ele>42.44</ele>
        <time>2014-07-22T12:05:17Z</time>
      </trkpt>
      <trkpt lat="47.53818" lon="-0.62112">
        <ele>42.44</ele>
        <time>2014-07-22T12:05:18Z</time>
      </trkpt>
      <trkpt lat="47.53806" lon="-0.6213">
        <ele>42.44</ele>
        <time>2014-07-22T12:05:25Z</time>
      </trkpt>
      <trkpt lat="47.53793" lon="-0.62154">
        <ele>42.92</ele>
        <time>2014-07-22T12:05:32Z</time>
      </trkpt>
      <trkpt lat="47.53791" lon="-0.62157">
        <ele>42.44</ele>
        <time>2014-07-22T12:05:33Z</time>
      </trkpt>
      <trkpt lat="47.53797" lon="-0.62172">
        <ele>41.95</ele>
        <time>2014-07-22T12:05:37Z</time>
      </trkpt>
      <trkpt lat="47.538" lon="-0.62176">
        <ele>41.95</ele>
        <time>2014-07-22T12:05:38Z</time>
      </trkpt>
      <trkpt lat="47.53832" lon="-0.62176">
        <ele>40.51</ele>
        <time>2014-07-22T12:05:44Z</time>
      </trkpt>
      <trkpt lat="47.53837" lon="-0.62172">
        <ele>40.03</ele>
        <time>2014-07-22T12:05:45Z</time>
      </trkpt>
      <trkpt lat="47.53878" lon="-0.62129">
        <ele>39.55</ele>
        <time>2014-07-22T12:05:54Z</time>
      </trkpt>
      <trkpt lat="47.53908" lon="-0.62096">
        <ele>39.07</ele>
        <time>2014-07-22T12:06:01Z</time>
      </trkpt>
      <trkpt lat="47.5392" lon="-0.62085">
        <ele>39.07</ele>
        <time>2014-07-22T12:06:04Z</time>
      </trkpt>
      <trkpt lat="47.53952" lon="-0.6207">
        <ele>38.59</ele>
        <time>2014-07-22T12:06:12Z</time>
      </trkpt>
      <trkpt lat="47.53989" lon="-0.62067">
        <ele>37.15</ele>
        <time>2014-07-22T12:06:19Z</time>
      </trkpt>
      <trkpt lat="47.54013" lon="-0.62078">
        <ele>35.23</ele>
        <time>2014-07-22T12:06:23Z</time>
      </trkpt>
      <trkpt lat="47.54026" lon="-0.62094">
        <ele>34.26</ele>
        <time>2014-07-22T12:06:25Z</time>
      </trkpt>
      <trkpt lat="47.54046" lon="-0.62139">
        <ele>31.86</ele>
        <time>2014-07-22T12:06:29Z</time>
      </trkpt>
      <trkpt lat="47.54073" lon="-0.62198">
        <ele>30.9</ele>
        <time>2014-07-22T12:06:35Z</time>
      </trkpt>
      <trkpt lat="47.54097" lon="-0.62217">
        <ele>30.42</ele>
        <time>2014-07-22T12:06:39Z</time>
      </trkpt>
      <trkpt lat="47.54143" lon="-0.6223">
        <ele>27.53</ele>
        <time>2014-07-22T12:06:45Z</time>
      </trkpt>
      <trkpt lat="47.54152" lon="-0.62233">
        <ele>27.05</ele>
        <time>2014-07-22T12:06:46Z</time>
      </trkpt>
      <trkpt lat="47.54211" lon="-0.62262">
        <ele>24.65</ele>
        <time>2014-07-22T12:06:53Z</time>
      </trkpt>
      <trkpt lat="47.54269" lon="-0.62287">
        <ele>22.73</ele>
        <time>2014-07-22T12:07:00Z</time>
      </trkpt>
      <trkpt lat="47.5432" lon="-0.62293">
        <ele>21.77</ele>
        <time>2014-07-22T12:07:07Z</time>
      </trkpt>
      <trkpt lat="47.54332" lon="-0.62294">
        <ele>21.77</ele>
        <time>2014-07-22T12:07:09Z</time>
      </trkpt>
      <trkpt lat="47.54352" lon="-0.62284">
        <ele>21.29</ele>
        <time>2014-07-22T12:07:14Z</time>
      </trkpt>
      <trkpt lat="47.54352" lon="-0.62278">
        <ele>20.81</ele>
        <time>2014-07-22T12:07:15Z</time>
      </trkpt>
      <trkpt lat="47.54346" lon="-0.62212">
        <ele>20.32</ele>
        <time>2014-07-22T12:07:24Z</time>
      </trkpt>
      <trkpt lat="47.54344" lon="-0.62144">
        <ele>19.84</ele>
        <time>2014-07-22T12:07:32Z</time>
      </trkpt>
      <trkpt lat="47.54347" lon="-0.62079">
        <ele>19.36</ele>
        <time>2014-07-22T12:07:39Z</time>
      </trkpt>
      <trkpt lat="47.5435" lon="-0.62033">
        <ele>18.88</ele>
        <time>2014-07-22T12:07:44Z</time>
      </trkpt>
      <trkpt lat="47.54355" lon="-0.61996">
        <ele>18.88</ele>
        <time>2014-07-22T12:07:48Z</time>
      </trkpt>
      <trkpt lat="47.5436" lon="-0.61931">
        <ele>17.44</ele>
        <time>2014-07-22T12:07:55Z</time>
      </trkpt>
      <trkpt lat="47.54369" lon="-0.61857">
        <ele>16.96</ele>
        <time>2014-07-22T12:08:03Z</time>
      </trkpt>
      <trkpt lat="47.54372" lon="-0.61841">
        <ele>17.44</ele>
        <time>2014-07-22T12:08:05Z</time>
      </trkpt>
      <trkpt lat="47.54378" lon="-0.61826">
        <ele>16.96</ele>
        <time>2014-07-22T12:08:08Z</time>
      </trkpt>
      <trkpt lat="47.54392" lon="-0.61828">
        <ele>16.48</ele>
        <time>2014-07-22T12:08:11Z</time>
      </trkpt>
      <trkpt lat="47.54432" lon="-0.61868">
        <ele>16.48</ele>
        <time>2014-07-22T12:08:18Z</time>
      </trkpt>
      <trkpt lat="47.54484" lon="-0.61913">
        <ele>16.96</ele>
        <time>2014-07-22T12:08:26Z</time>
      </trkpt>
      <trkpt lat="47.54527" lon="-0.61945">
        <ele>16.96</ele>
        <time>2014-07-22T12:08:34Z</time>
      </trkpt>
      <trkpt lat="47.54574" lon="-0.61978">
        <ele>17.44</ele>
        <time>2014-07-22T12:08:43Z</time>
      </trkpt>
      <trkpt lat="47.54629" lon="-0.62016">
        <ele>17.92</ele>
        <time>2014-07-22T12:08:54Z</time>
      </trkpt>
      <trkpt lat="47.54674" lon="-0.62047">
        <ele>18.88</ele>
        <time>2014-07-22T12:09:03Z</time>
      </trkpt>
      <trkpt lat="47.54725" lon="-0.62077">
        <ele>18.88</ele>
        <time>2014-07-22T12:09:13Z</time>
      </trkpt>
      <trkpt lat="47.54777" lon="-0.62107">
        <ele>18.88</ele>
        <time>2014-07-22T12:09:23Z</time>
      </trkpt>
      <trkpt lat="47.54842" lon="-0.62158">
        <ele>19.36</ele>
        <time>2014-07-22T12:09:36Z</time>
      </trkpt>
      <trkpt lat="47.54888" lon="-0.62203">
        <ele>19.36</ele>
        <time>2014-07-22T12:09:46Z</time>
      </trkpt>
      <trkpt lat="47.54927" lon="-0.62262">
        <ele>19.84</ele>
        <time>2014-07-22T12:09:56Z</time>
      </trkpt>
      <trkpt lat="47.54946" lon="-0.62289">
        <ele>20.32</ele>
        <time>2014-07-22T12:10:01Z</time>
      </trkpt>
      <trkpt lat="47.54991" lon="-0.6232">
        <ele>19.84</ele>
        <time>2014-07-22T12:10:10Z</time>
      </trkpt>
      <trkpt lat="47.55049" lon="-0.6235">
        <ele>20.81</ele>
        <time>2014-07-22T12:10:21Z</time>
      </trkpt>
      <trkpt lat="47.55097" lon="-0.62368">
        <ele>20.81</ele>
        <time>2014-07-22T12:10:30Z</time>
      </trkpt>
      <trkpt lat="47.55148" lon="-0.62386">
        <ele>21.29</ele>
        <time>2014-07-22T12:10:39Z</time>
      </trkpt>
      <trkpt lat="47.55193" lon="-0.6241">
        <ele>21.77</ele>
        <time>2014-07-22T12:10:48Z</time>
      </trkpt>
      <trkpt lat="47.55239" lon="-0.62439">
        <ele>20.81</ele>
        <time>2014-07-22T12:10:57Z</time>
      </trkpt>
      <trkpt lat="47.5529" lon="-0.62449">
        <ele>20.81</ele>
        <time>2014-07-22T12:11:06Z</time>
      </trkpt>
      <trkpt lat="47.5535" lon="-0.62458">
        <ele>20.81</ele>
        <time>2014-07-22T12:11:16Z</time>
      </trkpt>
      <trkpt lat="47.55393" lon="-0.62483">
        <ele>20.32</ele>
        <time>2014-07-22T12:11:24Z</time>
      </trkpt>
      <trkpt lat="47.55439" lon="-0.62508">
        <ele>20.81</ele>
        <time>2014-07-22T12:11:33Z</time>
      </trkpt>
      <trkpt lat="47.5549" lon="-0.62517">
        <ele>21.77</ele>
        <time>2014-07-22T12:11:43Z</time>
      </trkpt>
      <trkpt lat="47.55531" lon="-0.62517">
        <ele>21.77</ele>
        <time>2014-07-22T12:11:51Z</time>
      </trkpt>
      <trkpt lat="47.55557" lon="-0.62516">
        <ele>21.77</ele>
        <time>2014-07-22T12:11:56Z</time>
      </trkpt>
      <trkpt lat="47.55573" lon="-0.6252">
        <ele>22.25</ele>
        <time>2014-07-22T12:11:59Z</time>
      </trkpt>
      <trkpt lat="47.55625" lon="-0.62545">
        <ele>22.73</ele>
        <time>2014-07-22T12:12:09Z</time>
      </trkpt>
      <trkpt lat="47.55678" lon="-0.62569">
        <ele>23.69</ele>
        <time>2014-07-22T12:12:20Z</time>
      </trkpt>
      <trkpt lat="47.55724" lon="-0.62588">
        <ele>24.65</ele>
        <time>2014-07-22T12:12:30Z</time>
      </trkpt>
      <trkpt lat="47.55783" lon="-0.62618">
        <ele>25.13</ele>
        <time>2014-07-22T12:12:43Z</time>
      </trkpt>
      <trkpt lat="47.55828" lon="-0.62649">
        <ele>25.13</ele>
        <time>2014-07-22T12:12:53Z</time>
      </trkpt>
      <trkpt lat="47.55868" lon="-0.62677">
        <ele>31.86</ele>
        <time>2014-07-22T12:13:01Z</time>
      </trkpt>
      <trkpt lat="47.55873" lon="-0.6268">
        <ele>27.05</ele>
        <time>2014-07-22T12:13:02Z</time>
      </trkpt>
      <trkpt lat="47.55877" lon="-0.62683">
        <ele>22.73</ele>
        <time>2014-07-22T12:13:03Z</time>
      </trkpt>
      <trkpt lat="47.55881" lon="-0.62686">
        <ele>25.13</ele>
        <time>2014-07-22T12:13:04Z</time>
      </trkpt>
      <trkpt lat="47.55894" lon="-0.62695">
        <ele>26.57</ele>
        <time>2014-07-22T12:13:07Z</time>
      </trkpt>
      <trkpt lat="47.55898" lon="-0.62698">
        <ele>26.09</ele>
        <time>2014-07-22T12:13:08Z</time>
      </trkpt>
      <trkpt lat="47.55937" lon="-0.62727">
        <ele>26.57</ele>
        <time>2014-07-22T12:13:17Z</time>
      </trkpt>
      <trkpt lat="47.55976" lon="-0.62755">
        <ele>26.09</ele>
        <time>2014-07-22T12:13:26Z</time>
      </trkpt>
      <trkpt lat="47.56015" lon="-0.62781">
        <ele>26.57</ele>
        <time>2014-07-22T12:13:35Z</time>
      </trkpt>
      <trkpt lat="47.5604" lon="-0.628">
        <ele>26.57</ele>
        <time>2014-07-22T12:13:41Z</time>
      </trkpt>
      <trkpt lat="47.56048" lon="-0.62824">
        <ele>26.09</ele>
        <time>2014-07-22T12:13:45Z</time>
      </trkpt>
      <trkpt lat="47.56044" lon="-0.62898">
        <ele>27.05</ele>
        <time>2014-07-22T12:13:55Z</time>
      </trkpt>
      <trkpt lat="47.56041" lon="-0.62964">
        <ele>27.05</ele>
        <time>2014-07-22T12:14:04Z</time>
      </trkpt>
      <trkpt lat="47.56039" lon="-0.63022">
        <ele>27.53</ele>
        <time>2014-07-22T12:14:12Z</time>
      </trkpt>
      <trkpt lat="47.56038" lon="-0.6309">
        <ele>27.53</ele>
        <time>2014-07-22T12:14:21Z</time>
      </trkpt>
      <trkpt lat="47.56036" lon="-0.6315">
        <ele>28.02</ele>
        <time>2014-07-22T12:14:29Z</time>
      </trkpt>
      <trkpt lat="47.56035" lon="-0.63165">
        <ele>28.98</ele>
        <time>2014-07-22T12:14:31Z</time>
      </trkpt>
      <trkpt lat="47.56031" lon="-0.63193">
        <ele>28.98</ele>
        <time>2014-07-22T12:14:35Z</time>
      </trkpt>
      <trkpt lat="47.5603" lon="-0.6325">
        <ele>28.98</ele>
        <time>2014-07-22T12:14:43Z</time>
      </trkpt>
      <trkpt lat="47.56028" lon="-0.63309">
        <ele>29.46</ele>
        <time>2014-07-22T12:14:51Z</time>
      </trkpt>
      <trkpt lat="47.56026" lon="-0.6339">
        <ele>29.94</ele>
        <time>2014-07-22T12:15:02Z</time>
      </trkpt>
      <trkpt lat="47.56026" lon="-0.63397">
        <ele>28.98</ele>
        <time>2014-07-22T12:15:03Z</time>
      </trkpt>
      <trkpt lat="47.56017" lon="-0.63415">
        <ele>29.46</ele>
        <time>2014-07-22T12:15:07Z</time>
      </trkpt>
      <trkpt lat="47.56001" lon="-0.63402">
        <ele>29.46</ele>
        <time>2014-07-22T12:15:11Z</time>
      </trkpt>
      <trkpt lat="47.5596" lon="-0.63364">
        <ele>29.46</ele>
        <time>2014-07-22T12:15:21Z</time>
      </trkpt>
      <trkpt lat="47.55934" lon="-0.63345">
        <ele>29.46</ele>
        <time>2014-07-22T12:15:27Z</time>
      </trkpt>
      <trkpt lat="47.55916" lon="-0.63335">
        <ele>29.46</ele>
        <time>2014-07-22T12:15:31Z</time>
      </trkpt>
      <trkpt lat="47.55895" lon="-0.63336">
        <ele>29.46</ele>
        <time>2014-07-22T12:15:35Z</time>
      </trkpt>
      <trkpt lat="47.55885" lon="-0.63343">
        <ele>29.46</ele>
        <time>2014-07-22T12:15:37Z</time>
      </trkpt>
      <trkpt lat="47.55861" lon="-0.63354">
        <ele>29.46</ele>
        <time>2014-07-22T12:15:42Z</time>
      </trkpt>
      <trkpt lat="47.55825" lon="-0.63362">
        <ele>29.46</ele>
        <time>2014-07-22T12:15:50Z</time>
      </trkpt>
      <trkpt lat="47.55796" lon="-0.63364">
        <ele>28.98</ele>
        <time>2014-07-22T12:15:56Z</time>
      </trkpt>
      <trkpt lat="47.55756" lon="-0.6338">
        <ele>28.98</ele>
        <time>2014-07-22T12:16:05Z</time>
      </trkpt>
      <trkpt lat="47.55706" lon="-0.63399">
        <ele>28.5</ele>
        <time>2014-07-22T12:16:16Z</time>
      </trkpt>
      <trkpt lat="47.5566" lon="-0.63408">
        <ele>28.02</ele>
        <time>2014-07-22T12:16:25Z</time>
      </trkpt>
      <trkpt lat="47.55624" lon="-0.63404">
        <ele>27.05</ele>
        <time>2014-07-22T12:16:32Z</time>
      </trkpt>
      <trkpt lat="47.55598" lon="-0.63397">
        <ele>26.09</ele>
        <time>2014-07-22T12:16:38Z</time>
      </trkpt>
      <trkpt lat="47.55592" lon="-0.63396">
        <ele>26.57</ele>
        <time>2014-07-22T12:16:42Z</time>
      </trkpt>
      <trkpt lat="47.55589" lon="-0.63394">
        <ele>26.09</ele>
        <time>2014-07-22T12:16:46Z</time>
      </trkpt>
      <trkpt lat="47.55576" lon="-0.63409">
        <ele>26.09</ele>
        <time>2014-07-22T12:16:52Z</time>
      </trkpt>
      <trkpt lat="47.55569" lon="-0.6342">
        <ele>26.57</ele>
        <time>2014-07-22T12:16:55Z</time>
      </trkpt>
      <trkpt lat="47.55548" lon="-0.63448">
        <ele>26.57</ele>
        <time>2014-07-22T12:17:02Z</time>
      </trkpt>
      <trkpt lat="47.55534" lon="-0.63465">
        <ele>26.09</ele>
        <time>2014-07-22T12:17:07Z</time>
      </trkpt>
      <trkpt lat="47.55512" lon="-0.63494">
        <ele>26.57</ele>
        <time>2014-07-22T12:17:14Z</time>
      </trkpt>
      <trkpt lat="47.55497" lon="-0.63521">
        <ele>26.09</ele>
        <time>2014-07-22T12:17:20Z</time>
      </trkpt>
      <trkpt lat="47.55489" lon="-0.63543">
        <ele>27.05</ele>
        <time>2014-07-22T12:17:25Z</time>
      </trkpt>
      <trkpt lat="47.55481" lon="-0.63546">
        <ele>26.57</ele>
        <time>2014-07-22T12:17:29Z</time>
      </trkpt>
      <trkpt lat="47.55459" lon="-0.6353">
        <ele>26.09</ele>
        <time>2014-07-22T12:17:37Z</time>
      </trkpt>
      <trkpt lat="47.55448" lon="-0.63521">
        <ele>25.61</ele>
        <time>2014-07-22T12:17:42Z</time>
      </trkpt>
      <trkpt lat="47.55445" lon="-0.63523">
        <ele>26.09</ele>
        <time>2014-07-22T12:17:47Z</time>
      </trkpt>
      <trkpt lat="47.55443" lon="-0.6352">
        <ele>26.09</ele>
        <time>2014-07-22T12:17:53Z</time>
      </trkpt>
      <trkpt lat="47.5544" lon="-0.63519">
        <ele>26.57</ele>
        <time>2014-07-22T12:18:01Z</time>
      </trkpt>
      <trkpt lat="47.55427" lon="-0.63511">
        <ele>26.09</ele>
        <time>2014-07-22T12:18:08Z</time>
      </trkpt>
      <trkpt lat="47.55414" lon="-0.63502">
        <ele>27.05</ele>
        <time>2014-07-22T12:18:12Z</time>
      </trkpt>
      <trkpt lat="47.55399" lon="-0.63476">
        <ele>28.02</ele>
        <time>2014-07-22T12:18:17Z</time>
      </trkpt>
      <trkpt lat="47.55393" lon="-0.63465">
        <ele>28.02</ele>
        <time>2014-07-22T12:18:19Z</time>
      </trkpt>
      <trkpt lat="47.55372" lon="-0.63446">
        <ele>28.5</ele>
        <time>2014-07-22T12:18:25Z</time>
      </trkpt>
      <trkpt lat="47.55353" lon="-0.63436">
        <ele>29.46</ele>
        <time>2014-07-22T12:18:30Z</time>
      </trkpt>
      <trkpt lat="47.5534" lon="-0.6343">
        <ele>30.42</ele>
        <time>2014-07-22T12:18:33Z</time>
      </trkpt>
      <trkpt lat="47.55327" lon="-0.63425">
        <ele>30.9</ele>
        <time>2014-07-22T12:18:36Z</time>
      </trkpt>
      <trkpt lat="47.55289" lon="-0.63407">
        <ele>31.86</ele>
        <time>2014-07-22T12:18:45Z</time>
      </trkpt>
      <trkpt lat="47.55256" lon="-0.63398">
        <ele>31.86</ele>
        <time>2014-07-22T12:18:52Z</time>
      </trkpt>
      <trkpt lat="47.55243" lon="-0.63395">
        <ele>31.86</ele>
        <time>2014-07-22T12:18:55Z</time>
      </trkpt>
      <trkpt lat="47.55224" lon="-0.63404">
        <ele>31.86</ele>
        <time>2014-07-22T12:19:00Z</time>
      </trkpt>
      <trkpt lat="47.55219" lon="-0.63414">
        <ele>31.86</ele>
        <time>2014-07-22T12:19:02Z</time>
      </trkpt>
      <trkpt lat="47.5521" lon="-0.6344">
        <ele>32.34</ele>
        <time>2014-07-22T12:19:07Z</time>
      </trkpt>
      <trkpt lat="47.55193" lon="-0.6349">
        <ele>33.3</ele>
        <time>2014-07-22T12:19:16Z</time>
      </trkpt>
      <trkpt lat="47.55192" lon="-0.63497">
        <ele>33.3</ele>
        <time>2014-07-22T12:19:17Z</time>
      </trkpt>
      <trkpt lat="47.55177" lon="-0.63543">
        <ele>33.78</ele>
        <time>2014-07-22T12:19:24Z</time>
      </trkpt>
      <trkpt lat="47.55175" lon="-0.63549">
        <ele>33.78</ele>
        <time>2014-07-22T12:19:25Z</time>
      </trkpt>
      <trkpt lat="47.55161" lon="-0.63602">
        <ele>35.71</ele>
        <time>2014-07-22T12:19:33Z</time>
      </trkpt>
      <trkpt lat="47.55146" lon="-0.63647">
        <ele>36.19</ele>
        <time>2014-07-22T12:19:41Z</time>
      </trkpt>
      <trkpt lat="47.55132" lon="-0.63675">
        <ele>36.67</ele>
        <time>2014-07-22T12:19:47Z</time>
      </trkpt>
      <trkpt lat="47.55123" lon="-0.63687">
        <ele>36.67</ele>
        <time>2014-07-22T12:19:50Z</time>
      </trkpt>
      <trkpt lat="47.55101" lon="-0.63716">
        <ele>37.63</ele>
        <time>2014-07-22T12:19:56Z</time>
      </trkpt>
      <trkpt lat="47.55098" lon="-0.6372">
        <ele>38.11</ele>
        <time>2014-07-22T12:19:57Z</time>
      </trkpt>
      <trkpt lat="47.55084" lon="-0.63739">
        <ele>38.11</ele>
        <time>2014-07-22T12:20:01Z</time>
      </trkpt>
      <trkpt lat="47.55076" lon="-0.63756">
        <ele>38.11</ele>
        <time>2014-07-22T12:20:04Z</time>
      </trkpt>
      <trkpt lat="47.55067" lon="-0.63771">
        <ele>38.59</ele>
        <time>2014-07-22T12:20:07Z</time>
      </trkpt>
      <trkpt lat="47.55062" lon="-0.63782">
        <ele>39.07</ele>
        <time>2014-07-22T12:20:09Z</time>
      </trkpt>
      <trkpt lat="47.55039" lon="-0.63826">
        <ele>39.55</ele>
        <time>2014-07-22T12:20:16Z</time>
      </trkpt>
      <trkpt lat="47.55026" lon="-0.63872">
        <ele>40.03</ele>
        <time>2014-07-22T12:20:23Z</time>
      </trkpt>
      <trkpt lat="47.55021" lon="-0.6389">
        <ele>40.03</ele>
        <time>2014-07-22T12:20:26Z</time>
      </trkpt>
      <trkpt lat="47.55014" lon="-0.63924">
        <ele>40.51</ele>
        <time>2014-07-22T12:20:31Z</time>
      </trkpt>
      <trkpt lat="47.5502" lon="-0.63955">
        <ele>40.99</ele>
        <time>2014-07-22T12:20:36Z</time>
      </trkpt>
      <trkpt lat="47.55021" lon="-0.63979">
        <ele>40.51</ele>
        <time>2014-07-22T12:20:40Z</time>
      </trkpt>
      <trkpt lat="47.55014" lon="-0.63999">
        <ele>40.51</ele>
        <time>2014-07-22T12:20:43Z</time>
      </trkpt>
      <trkpt lat="47.54994" lon="-0.64056">
        <ele>40.51</ele>
        <time>2014-07-22T12:20:51Z</time>
      </trkpt>
      <trkpt lat="47.54985" lon="-0.64102">
        <ele>40.03</ele>
        <time>2014-07-22T12:20:57Z</time>
      </trkpt>
      <trkpt lat="47.54977" lon="-0.64157">
        <ele>40.51</ele>
        <time>2014-07-22T12:21:04Z</time>
      </trkpt>
      <trkpt lat="47.54965" lon="-0.64233">
        <ele>40.99</ele>
        <time>2014-07-22T12:21:14Z</time>
      </trkpt>
      <trkpt lat="47.5495" lon="-0.64306">
        <ele>41.95</ele>
        <time>2014-07-22T12:21:24Z</time>
      </trkpt>
      <trkpt lat="47.54931" lon="-0.64366">
        <ele>42.92</ele>
        <time>2014-07-22T12:21:33Z</time>
      </trkpt>
      <trkpt lat="47.54906" lon="-0.64426">
        <ele>44.36</ele>
        <time>2014-07-22T12:21:43Z</time>
      </trkpt>
      <trkpt lat="47.5491" lon="-0.64451">
        <ele>44.84</ele>
        <time>2014-07-22T12:21:47Z</time>
      </trkpt>
      <trkpt lat="47.54914" lon="-0.64455">
        <ele>45.32</ele>
        <time>2014-07-22T12:21:48Z</time>
      </trkpt>
      <trkpt lat="47.54922" lon="-0.64462">
        <ele>45.32</ele>
        <time>2014-07-22T12:21:50Z</time>
      </trkpt>
      <trkpt lat="47.5496" lon="-0.64505">
        <ele>45.8</ele>
        <time>2014-07-22T12:22:00Z</time>
      </trkpt>
      <trkpt lat="47.54994" lon="-0.64539">
        <ele>45.32</ele>
        <time>2014-07-22T12:22:08Z</time>
      </trkpt>
      <trkpt lat="47.55036" lon="-0.64573">
        <ele>45.32</ele>
        <time>2014-07-22T12:22:17Z</time>
      </trkpt>
      <trkpt lat="47.55072" lon="-0.64595">
        <ele>43.4</ele>
        <time>2014-07-22T12:22:23Z</time>
      </trkpt>
      <trkpt lat="47.55101" lon="-0.64617">
        <ele>40.03</ele>
        <time>2014-07-22T12:22:27Z</time>
      </trkpt>
      <trkpt lat="47.55116" lon="-0.64629">
        <ele>39.07</ele>
        <time>2014-07-22T12:22:29Z</time>
      </trkpt>
      <trkpt lat="47.55123" lon="-0.64634">
        <ele>39.07</ele>
        <time>2014-07-22T12:22:30Z</time>
      </trkpt>
      <trkpt lat="47.55149" lon="-0.64639">
        <ele>37.63</ele>
        <time>2014-07-22T12:22:34Z</time>
      </trkpt>
      <trkpt lat="47.55168" lon="-0.64648">
        <ele>37.15</ele>
        <time>2014-07-22T12:22:37Z</time>
      </trkpt>
      <trkpt lat="47.55173" lon="-0.64654">
        <ele>37.15</ele>
        <time>2014-07-22T12:22:38Z</time>
      </trkpt>
      <trkpt lat="47.552" lon="-0.64685">
        <ele>38.59</ele>
        <time>2014-07-22T12:22:44Z</time>
      </trkpt>
      <trkpt lat="47.55227" lon="-0.64714">
        <ele>40.99</ele>
        <time>2014-07-22T12:22:51Z</time>
      </trkpt>
      <trkpt lat="47.55259" lon="-0.6475">
        <ele>42.92</ele>
        <time>2014-07-22T12:23:00Z</time>
      </trkpt>
      <trkpt lat="47.55278" lon="-0.64769">
        <ele>43.88</ele>
        <time>2014-07-22T12:23:07Z</time>
      </trkpt>
      <trkpt lat="47.55289" lon="-0.64785">
        <ele>44.36</ele>
        <time>2014-07-22T12:23:13Z</time>
      </trkpt>
      <trkpt lat="47.55295" lon="-0.64793">
        <ele>44.36</ele>
        <time>2014-07-22T12:23:16Z</time>
      </trkpt>
      <trkpt lat="47.55302" lon="-0.648">
        <ele>44.84</ele>
        <time>2014-07-22T12:23:20Z</time>
      </trkpt>
      <trkpt lat="47.55325" lon="-0.64828">
        <ele>46.28</ele>
        <time>2014-07-22T12:23:29Z</time>
      </trkpt>
      <trkpt lat="47.55344" lon="-0.64857">
        <ele>47.72</ele>
        <time>2014-07-22T12:23:37Z</time>
      </trkpt>
      <trkpt lat="47.55362" lon="-0.64887">
        <ele>48.2</ele>
        <time>2014-07-22T12:23:44Z</time>
      </trkpt>
      <trkpt lat="47.55378" lon="-0.64914">
        <ele>48.68</ele>
        <time>2014-07-22T12:23:51Z</time>
      </trkpt>
      <trkpt lat="47.55395" lon="-0.64939">
        <ele>49.16</ele>
        <time>2014-07-22T12:23:58Z</time>
      </trkpt>
      <trkpt lat="47.55414" lon="-0.64971">
        <ele>50.61</ele>
        <time>2014-07-22T12:24:06Z</time>
      </trkpt>
      <trkpt lat="47.55435" lon="-0.65002">
        <ele>52.05</ele>
        <time>2014-07-22T12:24:14Z</time>
      </trkpt>
      <trkpt lat="47.55464" lon="-0.65048">
        <ele>52.53</ele>
        <time>2014-07-22T12:24:25Z</time>
      </trkpt>
      <trkpt lat="47.55489" lon="-0.65087">
        <ele>53.97</ele>
        <time>2014-07-22T12:24:35Z</time>
      </trkpt>
      <trkpt lat="47.55496" lon="-0.65105">
        <ele>53.97</ele>
        <time>2014-07-22T12:24:39Z</time>
      </trkpt>
      <trkpt lat="47.55512" lon="-0.65105">
        <ele>55.89</ele>
        <time>2014-07-22T12:24:44Z</time>
      </trkpt>
      <trkpt lat="47.5555" lon="-0.6507">
        <ele>57.82</ele>
        <time>2014-07-22T12:24:56Z</time>
      </trkpt>
      <trkpt lat="47.55567" lon="-0.65037">
        <ele>57.82</ele>
        <time>2014-07-22T12:25:04Z</time>
      </trkpt>
      <trkpt lat="47.55571" lon="-0.65021">
        <ele>57.82</ele>
        <time>2014-07-22T12:25:07Z</time>
      </trkpt>
      <trkpt lat="47.55596" lon="-0.6499">
        <ele>58.3</ele>
        <time>2014-07-22T12:25:15Z</time>
      </trkpt>
      <trkpt lat="47.55623" lon="-0.6496">
        <ele>57.82</ele>
        <time>2014-07-22T12:25:24Z</time>
      </trkpt>
      <trkpt lat="47.55642" lon="-0.64938">
        <ele>57.82</ele>
        <time>2014-07-22T12:25:30Z</time>
      </trkpt>
      <trkpt lat="47.5567" lon="-0.64893">
        <ele>57.34</ele>
        <time>2014-07-22T12:25:39Z</time>
      </trkpt>
      <trkpt lat="47.55682" lon="-0.64881">
        <ele>57.34</ele>
        <time>2014-07-22T12:25:42Z</time>
      </trkpt>
      <trkpt lat="47.55704" lon="-0.64867">
        <ele>56.86</ele>
        <time>2014-07-22T12:25:47Z</time>
      </trkpt>
      <trkpt lat="47.55723" lon="-0.64855">
        <ele>56.86</ele>
        <time>2014-07-22T12:25:51Z</time>
      </trkpt>
      <trkpt lat="47.5574" lon="-0.64843">
        <ele>56.86</ele>
        <time>2014-07-22T12:25:55Z</time>
      </trkpt>
      <trkpt lat="47.55757" lon="-0.64846">
        <ele>57.34</ele>
        <time>2014-07-22T12:25:59Z</time>
      </trkpt>
      <trkpt lat="47.55788" lon="-0.64876">
        <ele>58.78</ele>
        <time>2014-07-22T12:26:08Z</time>
      </trkpt>
      <trkpt lat="47.55808" lon="-0.64888">
        <ele>60.7</ele>
        <time>2014-07-22T12:26:14Z</time>
      </trkpt>
      <trkpt lat="47.55829" lon="-0.6491">
        <ele>62.14</ele>
        <time>2014-07-22T12:26:22Z</time>
      </trkpt>
      <trkpt lat="47.55852" lon="-0.64938">
        <ele>64.55</ele>
        <time>2014-07-22T12:26:32Z</time>
      </trkpt>
      <trkpt lat="47.55863" lon="-0.64961">
        <ele>65.51</ele>
        <time>2014-07-22T12:26:39Z</time>
      </trkpt>
      <trkpt lat="47.55871" lon="-0.64978">
        <ele>66.47</ele>
        <time>2014-07-22T12:26:44Z</time>
      </trkpt>
      <trkpt lat="47.55879" lon="-0.6498">
        <ele>68.39</ele>
        <time>2014-07-22T12:26:49Z</time>
      </trkpt>
      <trkpt lat="47.55882" lon="-0.64959">
        <ele>68.39</ele>
        <time>2014-07-22T12:26:57Z</time>
      </trkpt>
      <trkpt lat="47.55887" lon="-0.64947">
        <ele>68.39</ele>
        <time>2014-07-22T12:27:04Z</time>
      </trkpt>
      <trkpt lat="47.55896" lon="-0.64929">
        <ele>67.91</ele>
        <time>2014-07-22T12:27:11Z</time>
      </trkpt>
      <trkpt lat="47.55908" lon="-0.6491">
        <ele>68.39</ele>
        <time>2014-07-22T12:27:18Z</time>
      </trkpt>
      <trkpt lat="47.55929" lon="-0.64881">
        <ele>68.87</ele>
        <time>2014-07-22T12:27:25Z</time>
      </trkpt>
      <trkpt lat="47.55939" lon="-0.64866">
        <ele>68.87</ele>
        <time>2014-07-22T12:27:28Z</time>
      </trkpt>
      <trkpt lat="47.55951" lon="-0.64846">
        <ele>68.39</ele>
        <time>2014-07-22T12:27:32Z</time>
      </trkpt>
      <trkpt lat="47.55969" lon="-0.64814">
        <ele>67.91</ele>
        <time>2014-07-22T12:27:38Z</time>
      </trkpt>
      <trkpt lat="47.55999" lon="-0.64766">
        <ele>65.03</ele>
        <time>2014-07-22T12:27:45Z</time>
      </trkpt>
      <trkpt lat="47.56004" lon="-0.64723">
        <ele>63.1</ele>
        <time>2014-07-22T12:27:49Z</time>
      </trkpt>
      <trkpt lat="47.56003" lon="-0.64711">
        <ele>62.14</ele>
        <time>2014-07-22T12:27:50Z</time>
      </trkpt>
      <trkpt lat="47.55999" lon="-0.6467">
        <ele>58.78</ele>
        <time>2014-07-22T12:27:54Z</time>
      </trkpt>
      <trkpt lat="47.55988" lon="-0.6462">
        <ele>57.34</ele>
        <time>2014-07-22T12:27:59Z</time>
      </trkpt>
      <trkpt lat="47.55976" lon="-0.64605">
        <ele>56.37</ele>
        <time>2014-07-22T12:28:00Z</time>
      </trkpt>
      <trkpt lat="47.55958" lon="-0.64574">
        <ele>55.89</ele>
        <time>2014-07-22T12:28:02Z</time>
      </trkpt>
      <trkpt lat="47.55906" lon="-0.6455">
        <ele>54.93</ele>
        <time>2014-07-22T12:28:05Z</time>
      </trkpt>
      <trkpt lat="47.55903" lon="-0.64446">
        <ele>53.01</ele>
        <time>2014-07-22T12:28:13Z</time>
      </trkpt>
      <trkpt lat="47.55903" lon="-0.64354">
        <ele>51.09</ele>
        <time>2014-07-22T12:28:21Z</time>
      </trkpt>
      <trkpt lat="47.55903" lon="-0.64327">
        <ele>50.13</ele>
        <time>2014-07-22T12:28:25Z</time>
      </trkpt>
      <trkpt lat="47.55912" lon="-0.64327">
        <ele>50.61</ele>
        <time>2014-07-22T12:28:29Z</time>
      </trkpt>
      <trkpt lat="47.55941" lon="-0.64349">
        <ele>50.61</ele>
        <time>2014-07-22T12:28:37Z</time>
      </trkpt>
      <trkpt lat="47.55971" lon="-0.64371">
        <ele>51.57</ele>
        <time>2014-07-22T12:28:45Z</time>
      </trkpt>
      <trkpt lat="47.56003" lon="-0.64406">
        <ele>51.09</ele>
        <time>2014-07-22T12:28:54Z</time>
      </trkpt>
      <trkpt lat="47.56018" lon="-0.64425">
        <ele>50.61</ele>
        <time>2014-07-22T12:28:58Z</time>
      </trkpt>
      <trkpt lat="47.56051" lon="-0.64452">
        <ele>51.57</ele>
        <time>2014-07-22T12:29:06Z</time>
      </trkpt>
      <trkpt lat="47.56087" lon="-0.64477">
        <ele>53.01</ele>
        <time>2014-07-22T12:29:16Z</time>
      </trkpt>
      <trkpt lat="47.56114" lon="-0.64493">
        <ele>54.93</ele>
        <time>2014-07-22T12:29:24Z</time>
      </trkpt>
      <trkpt lat="47.56134" lon="-0.64506">
        <ele>55.89</ele>
        <time>2014-07-22T12:29:31Z</time>
      </trkpt>
      <trkpt lat="47.5615" lon="-0.64521">
        <ele>58.3</ele>
        <time>2014-07-22T12:29:38Z</time>
      </trkpt>
      <trkpt lat="47.56161" lon="-0.64541">
        <ele>60.22</ele>
        <time>2014-07-22T12:29:45Z</time>
      </trkpt>
      <trkpt lat="47.56172" lon="-0.64563">
        <ele>61.18</ele>
        <time>2014-07-22T12:29:53Z</time>
      </trkpt>
      <trkpt lat="47.56184" lon="-0.64586">
        <ele>63.58</ele>
        <time>2014-07-22T12:30:01Z</time>
      </trkpt>
      <trkpt lat="47.56195" lon="-0.64601">
        <ele>65.51</ele>
        <time>2014-07-22T12:30:08Z</time>
      </trkpt>
      <trkpt lat="47.5621" lon="-0.64616">
        <ele>67.43</ele>
        <time>2014-07-22T12:30:16Z</time>
      </trkpt>
      <trkpt lat="47.5622" lon="-0.64628">
        <ele>68.87</ele>
        <time>2014-07-22T12:30:23Z</time>
      </trkpt>
      <trkpt lat="47.56239" lon="-0.6465">
        <ele>70.31</ele>
        <time>2014-07-22T12:30:32Z</time>
      </trkpt>
      <trkpt lat="47.56258" lon="-0.64674">
        <ele>70.79</ele>
        <time>2014-07-22T12:30:41Z</time>
      </trkpt>
      <trkpt lat="47.56278" lon="-0.64702">
        <ele>72.72</ele>
        <time>2014-07-22T12:30:52Z</time>
      </trkpt>
      <trkpt lat="47.56293" lon="-0.64724">
        <ele>73.2</ele>
        <time>2014-07-22T12:31:00Z</time>
      </trkpt>
      <trkpt lat="47.56305" lon="-0.6474">
        <ele>73.68</ele>
        <time>2014-07-22T12:31:07Z</time>
      </trkpt>
      <trkpt lat="47.56314" lon="-0.64727">
        <ele>73.2</ele>
        <time>2014-07-22T12:31:14Z</time>
      </trkpt>
      <trkpt lat="47.56326" lon="-0.64711">
        <ele>72.72</ele>
        <time>2014-07-22T12:31:21Z</time>
      </trkpt>
      <trkpt lat="47.56327" lon="-0.6471">
        <ele>73.2</ele>
        <time>2014-07-22T12:31:27Z</time>
      </trkpt>
      <trkpt lat="47.56327" lon="-0.6471">
        <ele>72.72</ele>
        <time>2014-07-22T12:31:46Z</time>
      </trkpt>
      <trkpt lat="47.56327" lon="-0.64709">
        <ele>73.2</ele>
        <time>2014-07-22T12:31:54Z</time>
      </trkpt>
      <trkpt lat="47.56326" lon="-0.64708">
        <ele>73.2</ele>
        <time>2014-07-22T12:31:55Z</time>
      </trkpt>
      <trkpt lat="47.56321" lon="-0.64717">
        <ele>73.2</ele>
        <time>2014-07-22T12:32:00Z</time>
      </trkpt>
      <trkpt lat="47.56312" lon="-0.64734">
        <ele>73.68</ele>
        <time>2014-07-22T12:32:05Z</time>
      </trkpt>
      <trkpt lat="47.56296" lon="-0.64769">
        <ele>74.16</ele>
        <time>2014-07-22T12:32:14Z</time>
      </trkpt>
      <trkpt lat="47.56273" lon="-0.64816">
        <ele>75.12</ele>
        <time>2014-07-22T12:32:24Z</time>
      </trkpt>
      <trkpt lat="47.56244" lon="-0.64857">
        <ele>75.12</ele>
        <time>2014-07-22T12:32:32Z</time>
      </trkpt>
      <trkpt lat="47.56214" lon="-0.64889">
        <ele>74.64</ele>
        <time>2014-07-22T12:32:39Z</time>
      </trkpt>
      <trkpt lat="47.56184" lon="-0.64922">
        <ele>73.68</ele>
        <time>2014-07-22T12:32:47Z</time>
      </trkpt>
      <trkpt lat="47.56164" lon="-0.64943">
        <ele>73.68</ele>
        <time>2014-07-22T12:32:53Z</time>
      </trkpt>
      <trkpt lat="47.56148" lon="-0.64956">
        <ele>74.16</ele>
        <time>2014-07-22T12:32:57Z</time>
      </trkpt>
      <trkpt lat="47.56098" lon="-0.65004">
        <ele>74.64</ele>
        <time>2014-07-22T12:33:09Z</time>
      </trkpt>
      <trkpt lat="47.56062" lon="-0.6504">
        <ele>74.64</ele>
        <time>2014-07-22T12:33:18Z</time>
      </trkpt>
      <trkpt lat="47.56034" lon="-0.65083">
        <ele>75.12</ele>
        <time>2014-07-22T12:33:26Z</time>
      </trkpt>
      <trkpt lat="47.55998" lon="-0.65143">
        <ele>76.56</ele>
        <time>2014-07-22T12:33:37Z</time>
      </trkpt>
      <trkpt lat="47.55979" lon="-0.65171">
        <ele>76.08</ele>
        <time>2014-07-22T12:33:42Z</time>
      </trkpt>
      <trkpt lat="47.55968" lon="-0.65214">
        <ele>76.56</ele>
        <time>2014-07-22T12:33:48Z</time>
      </trkpt>
      <trkpt lat="47.55975" lon="-0.65283">
        <ele>77.04</ele>
        <time>2014-07-22T12:33:57Z</time>
      </trkpt>
      <trkpt lat="47.5598" lon="-0.65356">
        <ele>78.48</ele>
        <time>2014-07-22T12:34:07Z</time>
      </trkpt>
      <trkpt lat="47.55982" lon="-0.65422">
        <ele>78.97</ele>
        <time>2014-07-22T12:34:16Z</time>
      </trkpt>
      <trkpt lat="47.55982" lon="-0.65479">
        <ele>78.97</ele>
        <time>2014-07-22T12:34:24Z</time>
      </trkpt>
      <trkpt lat="47.5598" lon="-0.65535">
        <ele>78.97</ele>
        <time>2014-07-22T12:34:32Z</time>
      </trkpt>
      <trkpt lat="47.55978" lon="-0.65605">
        <ele>78</ele>
        <time>2014-07-22T12:34:41Z</time>
      </trkpt>
      <trkpt lat="47.55979" lon="-0.65691">
        <ele>77.04</ele>
        <time>2014-07-22T12:34:52Z</time>
      </trkpt>
      <trkpt lat="47.55983" lon="-0.65763">
        <ele>76.08</ele>
        <time>2014-07-22T12:35:01Z</time>
      </trkpt>
      <trkpt lat="47.55984" lon="-0.65782">
        <ele>75.12</ele>
        <time>2014-07-22T12:35:04Z</time>
      </trkpt>
      <trkpt lat="47.56" lon="-0.65788">
        <ele>75.12</ele>
        <time>2014-07-22T12:35:09Z</time>
      </trkpt>
      <trkpt lat="47.56031" lon="-0.65782">
        <ele>75.6</ele>
        <time>2014-07-22T12:35:16Z</time>
      </trkpt>
      <trkpt lat="47.56073" lon="-0.65777">
        <ele>75.12</ele>
        <time>2014-07-22T12:35:24Z</time>
      </trkpt>
      <trkpt lat="47.56119" lon="-0.65777">
        <ele>73.2</ele>
        <time>2014-07-22T12:35:31Z</time>
      </trkpt>
      <trkpt lat="47.56133" lon="-0.65778">
        <ele>72.24</ele>
        <time>2014-07-22T12:35:33Z</time>
      </trkpt>
      <trkpt lat="47.56147" lon="-0.65779">
        <ele>70.79</ele>
        <time>2014-07-22T12:35:35Z</time>
      </trkpt>
      <trkpt lat="47.5618" lon="-0.65758">
        <ele>69.83</ele>
        <time>2014-07-22T12:35:40Z</time>
      </trkpt>
      <trkpt lat="47.5621" lon="-0.65732">
        <ele>69.35</ele>
        <time>2014-07-22T12:35:45Z</time>
      </trkpt>
      <trkpt lat="47.56257" lon="-0.65682">
        <ele>68.39</ele>
        <time>2014-07-22T12:35:54Z</time>
      </trkpt>
      <trkpt lat="47.56267" lon="-0.65672">
        <ele>67.91</ele>
        <time>2014-07-22T12:35:56Z</time>
      </trkpt>
      <trkpt lat="47.56295" lon="-0.65639">
        <ele>66.95</ele>
        <time>2014-07-22T12:36:02Z</time>
      </trkpt>
      <trkpt lat="47.5633" lon="-0.65605">
        <ele>66.47</ele>
        <time>2014-07-22T12:36:09Z</time>
      </trkpt>
      <trkpt lat="47.56365" lon="-0.65566">
        <ele>66.47</ele>
        <time>2014-07-22T12:36:17Z</time>
      </trkpt>
      <trkpt lat="47.56373" lon="-0.65555">
        <ele>66.47</ele>
        <time>2014-07-22T12:36:19Z</time>
      </trkpt>
      <trkpt lat="47.56392" lon="-0.65519">
        <ele>66.47</ele>
        <time>2014-07-22T12:36:25Z</time>
      </trkpt>
      <trkpt lat="47.56406" lon="-0.65513">
        <ele>67.43</ele>
        <time>2014-07-22T12:36:29Z</time>
      </trkpt>
      <trkpt lat="47.56409" lon="-0.65516">
        <ele>67.91</ele>
        <time>2014-07-22T12:36:30Z</time>
      </trkpt>
      <trkpt lat="47.5642" lon="-0.65529">
        <ele>67.91</ele>
        <time>2014-07-22T12:36:33Z</time>
      </trkpt>
      <trkpt lat="47.56455" lon="-0.65561">
        <ele>69.35</ele>
        <time>2014-07-22T12:36:42Z</time>
      </trkpt>
      <trkpt lat="47.56477" lon="-0.65578">
        <ele>70.31</ele>
        <time>2014-07-22T12:36:48Z</time>
      </trkpt>
      <trkpt lat="47.56499" lon="-0.65599">
        <ele>71.76</ele>
        <time>2014-07-22T12:36:55Z</time>
      </trkpt>
      <trkpt lat="47.56523" lon="-0.65615">
        <ele>72.72</ele>
        <time>2014-07-22T12:37:02Z</time>
      </trkpt>
      <trkpt lat="47.56546" lon="-0.65618">
        <ele>73.68</ele>
        <time>2014-07-22T12:37:08Z</time>
      </trkpt>
      <trkpt lat="47.56566" lon="-0.65616">
        <ele>73.68</ele>
        <time>2014-07-22T12:37:13Z</time>
      </trkpt>
      <trkpt lat="47.56605" lon="-0.65624">
        <ele>73.68</ele>
        <time>2014-07-22T12:37:22Z</time>
      </trkpt>
      <trkpt lat="47.56642" lon="-0.65635">
        <ele>72.24</ele>
        <time>2014-07-22T12:37:29Z</time>
      </trkpt>
      <trkpt lat="47.56669" lon="-0.65636">
        <ele>70.31</ele>
        <time>2014-07-22T12:37:33Z</time>
      </trkpt>
      <trkpt lat="47.56694" lon="-0.65638">
        <ele>67.91</ele>
        <time>2014-07-22T12:37:36Z</time>
      </trkpt>
      <trkpt lat="47.56745" lon="-0.65643">
        <ele>64.55</ele>
        <time>2014-07-22T12:37:42Z</time>
      </trkpt>
      <trkpt lat="47.56752" lon="-0.65644">
        <ele>64.55</ele>
        <time>2014-07-22T12:37:43Z</time>
      </trkpt>
      <trkpt lat="47.56758" lon="-0.65645">
        <ele>63.58</ele>
        <time>2014-07-22T12:37:44Z</time>
      </trkpt>
      <trkpt lat="47.56781" lon="-0.6564">
        <ele>62.62</ele>
        <time>2014-07-22T12:37:49Z</time>
      </trkpt>
      <trkpt lat="47.56809" lon="-0.65613">
        <ele>61.66</ele>
        <time>2014-07-22T12:37:55Z</time>
      </trkpt>
      <trkpt lat="47.56833" lon="-0.65584">
        <ele>61.18</ele>
        <time>2014-07-22T12:38:00Z</time>
      </trkpt>
      <trkpt lat="47.56841" lon="-0.65568">
        <ele>60.22</ele>
        <time>2014-07-22T12:38:02Z</time>
      </trkpt>
      <trkpt lat="47.56875" lon="-0.65482">
        <ele>56.86</ele>
        <time>2014-07-22T12:38:11Z</time>
      </trkpt>
      <trkpt lat="47.5688" lon="-0.65472">
        <ele>56.86</ele>
        <time>2014-07-22T12:38:12Z</time>
      </trkpt>
      <trkpt lat="47.56903" lon="-0.65421">
        <ele>55.41</ele>
        <time>2014-07-22T12:38:17Z</time>
      </trkpt>
      <trkpt lat="47.56945" lon="-0.65348">
        <ele>53.49</ele>
        <time>2014-07-22T12:38:25Z</time>
      </trkpt>
      <trkpt lat="47.56992" lon="-0.65257">
        <ele>50.13</ele>
        <time>2014-07-22T12:38:35Z</time>
      </trkpt>
      <trkpt lat="47.57011" lon="-0.65219">
        <ele>49.16</ele>
        <time>2014-07-22T12:38:39Z</time>
      </trkpt>
      <trkpt lat="47.57021" lon="-0.652">
        <ele>48.2</ele>
        <time>2014-07-22T12:38:41Z</time>
      </trkpt>
      <trkpt lat="47.57062" lon="-0.65133">
        <ele>46.28</ele>
        <time>2014-07-22T12:38:48Z</time>
      </trkpt>
      <trkpt lat="47.57091" lon="-0.65098">
        <ele>44.36</ele>
        <time>2014-07-22T12:38:52Z</time>
      </trkpt>
      <trkpt lat="47.57125" lon="-0.65071">
        <ele>41.95</ele>
        <time>2014-07-22T12:38:56Z</time>
      </trkpt>
      <trkpt lat="47.57133" lon="-0.65064">
        <ele>41.47</ele>
        <time>2014-07-22T12:38:57Z</time>
      </trkpt>
      <trkpt lat="47.57169" lon="-0.65021">
        <ele>40.51</ele>
        <time>2014-07-22T12:39:02Z</time>
      </trkpt>
      <trkpt lat="47.5719" lon="-0.64998">
        <ele>40.03</ele>
        <time>2014-07-22T12:39:05Z</time>
      </trkpt>
      <trkpt lat="47.57229" lon="-0.64939">
        <ele>35.23</ele>
        <time>2014-07-22T12:39:11Z</time>
      </trkpt>
      <trkpt lat="47.57235" lon="-0.6493">
        <ele>35.23</ele>
        <time>2014-07-22T12:39:12Z</time>
      </trkpt>
      <trkpt lat="47.57269" lon="-0.64908">
        <ele>33.78</ele>
        <time>2014-07-22T12:39:16Z</time>
      </trkpt>
      <trkpt lat="47.57294" lon="-0.64914">
        <ele>32.82</ele>
        <time>2014-07-22T12:39:19Z</time>
      </trkpt>
      <trkpt lat="47.57308" lon="-0.64927">
        <ele>31.38</ele>
        <time>2014-07-22T12:39:21Z</time>
      </trkpt>
      <trkpt lat="47.57314" lon="-0.64939">
        <ele>30.42</ele>
        <time>2014-07-22T12:39:22Z</time>
      </trkpt>
      <trkpt lat="47.57326" lon="-0.64963">
        <ele>29.46</ele>
        <time>2014-07-22T12:39:25Z</time>
      </trkpt>
      <trkpt lat="47.57349" lon="-0.65058">
        <ele>28.5</ele>
        <time>2014-07-22T12:39:31Z</time>
      </trkpt>
      <trkpt lat="47.57365" lon="-0.65118">
        <ele>27.05</ele>
        <time>2014-07-22T12:39:36Z</time>
      </trkpt>
      <trkpt lat="47.57383" lon="-0.65148">
        <ele>27.05</ele>
        <time>2014-07-22T12:39:40Z</time>
      </trkpt>
      <trkpt lat="47.57393" lon="-0.65142">
        <ele>26.09</ele>
        <time>2014-07-22T12:39:42Z</time>
      </trkpt>
      <trkpt lat="47.57428" lon="-0.65105">
        <ele>24.65</ele>
        <time>2014-07-22T12:39:48Z</time>
      </trkpt>
      <trkpt lat="47.57449" lon="-0.65081">
        <ele>24.17</ele>
        <time>2014-07-22T12:39:52Z</time>
      </trkpt>
      <trkpt lat="47.57465" lon="-0.65071">
        <ele>23.21</ele>
        <time>2014-07-22T12:39:55Z</time>
      </trkpt>
      <trkpt lat="47.57476" lon="-0.65067">
        <ele>21.29</ele>
        <time>2014-07-22T12:39:57Z</time>
      </trkpt>
      <trkpt lat="47.57488" lon="-0.65068">
        <ele>20.32</ele>
        <time>2014-07-22T12:39:59Z</time>
      </trkpt>
      <trkpt lat="47.57506" lon="-0.65095">
        <ele>19.84</ele>
        <time>2014-07-22T12:40:04Z</time>
      </trkpt>
      <trkpt lat="47.57523" lon="-0.6515">
        <ele>20.32</ele>
        <time>2014-07-22T12:40:12Z</time>
      </trkpt>
      <trkpt lat="47.57542" lon="-0.65212">
        <ele>19.84</ele>
        <time>2014-07-22T12:40:21Z</time>
      </trkpt>
      <trkpt lat="47.57544" lon="-0.65219">
        <ele>20.32</ele>
        <time>2014-07-22T12:40:22Z</time>
      </trkpt>
      <trkpt lat="47.57562" lon="-0.65263">
        <ele>20.32</ele>
        <time>2014-07-22T12:40:29Z</time>
      </trkpt>
      <trkpt lat="47.57569" lon="-0.65283">
        <ele>20.32</ele>
        <time>2014-07-22T12:40:32Z</time>
      </trkpt>
      <trkpt lat="47.57583" lon="-0.65314">
        <ele>20.32</ele>
        <time>2014-07-22T12:40:37Z</time>
      </trkpt>
      <trkpt lat="47.57603" lon="-0.6536">
        <ele>20.32</ele>
        <time>2014-07-22T12:40:45Z</time>
      </trkpt>
      <trkpt lat="47.57605" lon="-0.65365">
        <ele>20.32</ele>
        <time>2014-07-22T12:40:46Z</time>
      </trkpt>
      <trkpt lat="47.57624" lon="-0.65417">
        <ele>20.32</ele>
        <time>2014-07-22T12:40:54Z</time>
      </trkpt>
      <trkpt lat="47.57643" lon="-0.65472">
        <ele>20.32</ele>
        <time>2014-07-22T12:41:02Z</time>
      </trkpt>
      <trkpt lat="47.57659" lon="-0.65525">
        <ele>20.81</ele>
        <time>2014-07-22T12:41:10Z</time>
      </trkpt>
      <trkpt lat="47.57673" lon="-0.65581">
        <ele>20.32</ele>
        <time>2014-07-22T12:41:18Z</time>
      </trkpt>
      <trkpt lat="47.57681" lon="-0.65607">
        <ele>20.32</ele>
        <time>2014-07-22T12:41:22Z</time>
      </trkpt>
      <trkpt lat="47.57688" lon="-0.6566">
        <ele>20.32</ele>
        <time>2014-07-22T12:41:30Z</time>
      </trkpt>
      <trkpt lat="47.57696" lon="-0.65696">
        <ele>20.32</ele>
        <time>2014-07-22T12:41:35Z</time>
      </trkpt>
      <trkpt lat="47.57705" lon="-0.6575">
        <ele>20.32</ele>
        <time>2014-07-22T12:41:43Z</time>
      </trkpt>
      <trkpt lat="47.57709" lon="-0.65783">
        <ele>21.29</ele>
        <time>2014-07-22T12:41:48Z</time>
      </trkpt>
      <trkpt lat="47.57723" lon="-0.65837">
        <ele>20.81</ele>
        <time>2014-07-22T12:41:56Z</time>
      </trkpt>
      <trkpt lat="47.57725" lon="-0.65849">
        <ele>21.29</ele>
        <time>2014-07-22T12:41:58Z</time>
      </trkpt>
      <trkpt lat="47.57728" lon="-0.65868">
        <ele>20.81</ele>
        <time>2014-07-22T12:42:01Z</time>
      </trkpt>
      <trkpt lat="47.57737" lon="-0.65903">
        <ele>21.77</ele>
        <time>2014-07-22T12:42:06Z</time>
      </trkpt>
      <trkpt lat="47.57746" lon="-0.65952">
        <ele>20.81</ele>
        <time>2014-07-22T12:42:13Z</time>
      </trkpt>
      <trkpt lat="47.5775" lon="-0.65974">
        <ele>20.32</ele>
        <time>2014-07-22T12:42:16Z</time>
      </trkpt>
      <trkpt lat="47.57759" lon="-0.6602">
        <ele>21.29</ele>
        <time>2014-07-22T12:42:23Z</time>
      </trkpt>
      <trkpt lat="47.57767" lon="-0.6605">
        <ele>21.77</ele>
        <time>2014-07-22T12:42:27Z</time>
      </trkpt>
      <trkpt lat="47.57789" lon="-0.66102">
        <ele>21.29</ele>
        <time>2014-07-22T12:42:35Z</time>
      </trkpt>
      <trkpt lat="47.57824" lon="-0.66155">
        <ele>21.29</ele>
        <time>2014-07-22T12:42:43Z</time>
      </trkpt>
      <trkpt lat="47.57844" lon="-0.66185">
        <ele>21.77</ele>
        <time>2014-07-22T12:42:48Z</time>
      </trkpt>
      <trkpt lat="47.57866" lon="-0.66219">
        <ele>21.29</ele>
        <time>2014-07-22T12:42:54Z</time>
      </trkpt>
      <trkpt lat="47.57893" lon="-0.66259">
        <ele>21.29</ele>
        <time>2014-07-22T12:43:01Z</time>
      </trkpt>
      <trkpt lat="47.57902" lon="-0.66273">
        <ele>21.29</ele>
        <time>2014-07-22T12:43:04Z</time>
      </trkpt>
      <trkpt lat="47.57904" lon="-0.6629">
        <ele>21.29</ele>
        <time>2014-07-22T12:43:08Z</time>
      </trkpt>
      <trkpt lat="47.57907" lon="-0.66306">
        <ele>21.29</ele>
        <time>2014-07-22T12:43:11Z</time>
      </trkpt>
      <trkpt lat="47.57905" lon="-0.66332">
        <ele>21.29</ele>
        <time>2014-07-22T12:43:16Z</time>
      </trkpt>
      <trkpt lat="47.57902" lon="-0.66337">
        <ele>21.29</ele>
        <time>2014-07-22T12:43:18Z</time>
      </trkpt>
      <trkpt lat="47.57899" lon="-0.66364">
        <ele>21.77</ele>
        <time>2014-07-22T12:43:28Z</time>
      </trkpt>
      <trkpt lat="47.579" lon="-0.66387">
        <ele>21.77</ele>
        <time>2014-07-22T12:43:34Z</time>
      </trkpt>
      <trkpt lat="47.579" lon="-0.66417">
        <ele>22.73</ele>
        <time>2014-07-22T12:43:41Z</time>
      </trkpt>
      <trkpt lat="47.57899" lon="-0.66424">
        <ele>22.73</ele>
        <time>2014-07-22T12:43:43Z</time>
      </trkpt>
      <trkpt lat="47.57891" lon="-0.66419">
        <ele>23.21</ele>
        <time>2014-07-22T12:43:48Z</time>
      </trkpt>
      <trkpt lat="47.57891" lon="-0.66416">
        <ele>22.73</ele>
        <time>2014-07-22T12:43:50Z</time>
      </trkpt>
      <trkpt lat="47.57895" lon="-0.66422">
        <ele>22.73</ele>
        <time>2014-07-22T12:43:57Z</time>
      </trkpt>
      <trkpt lat="47.57895" lon="-0.66422">
        <ele>22.25</ele>
        <time>2014-07-22T12:43:59Z</time>
      </trkpt>
      <trkpt lat="47.57889" lon="-0.66426">
        <ele>23.21</ele>
        <time>2014-07-22T12:44:05Z</time>
      </trkpt>
      <trkpt lat="47.57866" lon="-0.66424">
        <ele>25.61</ele>
        <time>2014-07-22T12:44:13Z</time>
      </trkpt>
      <trkpt lat="47.5786" lon="-0.66424">
        <ele>26.09</ele>
        <time>2014-07-22T12:44:15Z</time>
      </trkpt>
      <trkpt lat="47.57842" lon="-0.66417">
        <ele>28.02</ele>
        <time>2014-07-22T12:44:22Z</time>
      </trkpt>
      <trkpt lat="47.57823" lon="-0.66408">
        <ele>30.42</ele>
        <time>2014-07-22T12:44:30Z</time>
      </trkpt>
      <trkpt lat="47.57803" lon="-0.66409">
        <ele>32.82</ele>
        <time>2014-07-22T12:44:37Z</time>
      </trkpt>
      <trkpt lat="47.57785" lon="-0.6641">
        <ele>35.23</ele>
        <time>2014-07-22T12:44:45Z</time>
      </trkpt>
      <trkpt lat="47.57767" lon="-0.66416">
        <ele>38.11</ele>
        <time>2014-07-22T12:44:53Z</time>
      </trkpt>
      <trkpt lat="47.57747" lon="-0.66423">
        <ele>40.51</ele>
        <time>2014-07-22T12:45:02Z</time>
      </trkpt>
      <trkpt lat="47.57727" lon="-0.66428">
        <ele>42.92</ele>
        <time>2014-07-22T12:45:11Z</time>
      </trkpt>
      <trkpt lat="47.57713" lon="-0.66436">
        <ele>45.32</ele>
        <time>2014-07-22T12:45:18Z</time>
      </trkpt>
      <trkpt lat="47.57701" lon="-0.66439">
        <ele>46.76</ele>
        <time>2014-07-22T12:45:24Z</time>
      </trkpt>
      <trkpt lat="47.57698" lon="-0.66437">
        <ele>46.76</ele>
        <time>2014-07-22T12:45:26Z</time>
      </trkpt>
      <trkpt lat="47.57692" lon="-0.66422">
        <ele>46.76</ele>
        <time>2014-07-22T12:45:34Z</time>
      </trkpt>
      <trkpt lat="47.57692" lon="-0.66419">
        <ele>46.76</ele>
        <time>2014-07-22T12:45:35Z</time>
      </trkpt>
      <trkpt lat="47.57691" lon="-0.66395">
        <ele>47.72</ele>
        <time>2014-07-22T12:45:45Z</time>
      </trkpt>
      <trkpt lat="47.57691" lon="-0.66366">
        <ele>47.72</ele>
        <time>2014-07-22T12:45:54Z</time>
      </trkpt>
      <trkpt lat="47.57697" lon="-0.66335">
        <ele>48.2</ele>
        <time>2014-07-22T12:46:02Z</time>
      </trkpt>
      <trkpt lat="47.57702" lon="-0.66306">
        <ele>49.65</ele>
        <time>2014-07-22T12:46:10Z</time>
      </trkpt>
      <trkpt lat="47.57708" lon="-0.66283">
        <ele>50.61</ele>
        <time>2014-07-22T12:46:18Z</time>
      </trkpt>
      <trkpt lat="47.5771" lon="-0.66273">
        <ele>51.09</ele>
        <time>2014-07-22T12:46:21Z</time>
      </trkpt>
      <trkpt lat="47.57705" lon="-0.66259">
        <ele>51.57</ele>
        <time>2014-07-22T12:46:26Z</time>
      </trkpt>
      <trkpt lat="47.57694" lon="-0.66238">
        <ele>53.01</ele>
        <time>2014-07-22T12:46:33Z</time>
      </trkpt>
      <trkpt lat="47.57681" lon="-0.662">
        <ele>53.01</ele>
        <time>2014-07-22T12:46:43Z</time>
      </trkpt>
      <trkpt lat="47.57663" lon="-0.66167">
        <ele>53.49</ele>
        <time>2014-07-22T12:46:52Z</time>
      </trkpt>
      <trkpt lat="47.57652" lon="-0.66154">
        <ele>53.49</ele>
        <time>2014-07-22T12:46:57Z</time>
      </trkpt>
      <trkpt lat="47.5764" lon="-0.66133">
        <ele>53.49</ele>
        <time>2014-07-22T12:47:03Z</time>
      </trkpt>
      <trkpt lat="47.57636" lon="-0.66131">
        <ele>52.53</ele>
        <time>2014-07-22T12:47:05Z</time>
      </trkpt>
      <trkpt lat="47.57638" lon="-0.66128">
        <ele>52.53</ele>
        <time>2014-07-22T12:47:08Z</time>
      </trkpt>
      <trkpt lat="47.57638" lon="-0.66148">
        <ele>54.45</ele>
        <time>2014-07-22T12:47:14Z</time>
      </trkpt>
      <trkpt lat="47.57634" lon="-0.66149">
        <ele>54.45</ele>
        <time>2014-07-22T12:47:19Z</time>
      </trkpt>
      <trkpt lat="47.57637" lon="-0.66154">
        <ele>54.93</ele>
        <time>2014-07-22T12:47:23Z</time>
      </trkpt>
      <trkpt lat="47.57638" lon="-0.66154">
        <ele>54.93</ele>
        <time>2014-07-22T12:47:24Z</time>
      </trkpt>
      <trkpt lat="47.57644" lon="-0.66148">
        <ele>53.49</ele>
        <time>2014-07-22T12:47:28Z</time>
      </trkpt>
      <trkpt lat="47.57641" lon="-0.66129">
        <ele>53.49</ele>
        <time>2014-07-22T12:47:33Z</time>
      </trkpt>
      <trkpt lat="47.57637" lon="-0.66125">
        <ele>53.01</ele>
        <time>2014-07-22T12:47:34Z</time>
      </trkpt>
      <trkpt lat="47.57619" lon="-0.661">
        <ele>52.53</ele>
        <time>2014-07-22T12:47:41Z</time>
      </trkpt>
      <trkpt lat="47.5761" lon="-0.66085">
        <ele>52.53</ele>
        <time>2014-07-22T12:47:44Z</time>
      </trkpt>
      <trkpt lat="47.57597" lon="-0.66057">
        <ele>51.09</ele>
        <time>2014-07-22T12:47:48Z</time>
      </trkpt>
      <trkpt lat="47.57578" lon="-0.66033">
        <ele>50.13</ele>
        <time>2014-07-22T12:47:52Z</time>
      </trkpt>
      <trkpt lat="47.57547" lon="-0.66016">
        <ele>51.09</ele>
        <time>2014-07-22T12:47:59Z</time>
      </trkpt>
      <trkpt lat="47.57517" lon="-0.66006">
        <ele>53.01</ele>
        <time>2014-07-22T12:48:08Z</time>
      </trkpt>
      <trkpt lat="47.5751" lon="-0.66004">
        <ele>53.97</ele>
        <time>2014-07-22T12:48:10Z</time>
      </trkpt>
      <trkpt lat="47.57502" lon="-0.66007">
        <ele>54.93</ele>
        <time>2014-07-22T12:48:13Z</time>
      </trkpt>
      <trkpt lat="47.57489" lon="-0.66015">
        <ele>56.37</ele>
        <time>2014-07-22T12:48:18Z</time>
      </trkpt>
      <trkpt lat="47.57484" lon="-0.66021">
        <ele>56.37</ele>
        <time>2014-07-22T12:48:21Z</time>
      </trkpt>
      <trkpt lat="47.57468" lon="-0.6603">
        <ele>57.82</ele>
        <time>2014-07-22T12:48:26Z</time>
      </trkpt>
      <trkpt lat="47.5746" lon="-0.66036">
        <ele>58.78</ele>
        <time>2014-07-22T12:48:29Z</time>
      </trkpt>
      <trkpt lat="47.57456" lon="-0.66039">
        <ele>58.78</ele>
        <time>2014-07-22T12:48:31Z</time>
      </trkpt>
      <trkpt lat="47.5745" lon="-0.66046">
        <ele>59.74</ele>
        <time>2014-07-22T12:48:35Z</time>
      </trkpt>
      <trkpt lat="47.57439" lon="-0.66061">
        <ele>61.18</ele>
        <time>2014-07-22T12:48:42Z</time>
      </trkpt>
      <trkpt lat="47.57434" lon="-0.66073">
        <ele>61.66</ele>
        <time>2014-07-22T12:48:47Z</time>
      </trkpt>
      <trkpt lat="47.57409" lon="-0.6609">
        <ele>62.62</ele>
        <time>2014-07-22T12:48:55Z</time>
      </trkpt>
      <trkpt lat="47.57389" lon="-0.66104">
        <ele>63.1</ele>
        <time>2014-07-22T12:49:01Z</time>
      </trkpt>
      <trkpt lat="47.57366" lon="-0.66121">
        <ele>64.07</ele>
        <time>2014-07-22T12:49:08Z</time>
      </trkpt>
      <trkpt lat="47.5736" lon="-0.66125">
        <ele>64.55</ele>
        <time>2014-07-22T12:49:10Z</time>
      </trkpt>
      <trkpt lat="47.57341" lon="-0.66136">
        <ele>65.51</ele>
        <time>2014-07-22T12:49:17Z</time>
      </trkpt>
      <trkpt lat="47.57327" lon="-0.66145">
        <ele>66.47</ele>
        <time>2014-07-22T12:49:22Z</time>
      </trkpt>
      <trkpt lat="47.57305" lon="-0.6616">
        <ele>66.95</ele>
        <time>2014-07-22T12:49:29Z</time>
      </trkpt>
      <trkpt lat="47.57287" lon="-0.66173">
        <ele>67.43</ele>
        <time>2014-07-22T12:49:35Z</time>
      </trkpt>
      <trkpt lat="47.57265" lon="-0.66188">
        <ele>68.39</ele>
        <time>2014-07-22T12:49:43Z</time>
      </trkpt>
      <trkpt lat="47.57254" lon="-0.66205">
        <ele>69.35</ele>
        <time>2014-07-22T12:49:49Z</time>
      </trkpt>
      <trkpt lat="47.57235" lon="-0.66224">
        <ele>70.31</ele>
        <time>2014-07-22T12:49:56Z</time>
      </trkpt>
      <trkpt lat="47.57221" lon="-0.66247">
        <ele>71.76</ele>
        <time>2014-07-22T12:50:03Z</time>
      </trkpt>
      <trkpt lat="47.57208" lon="-0.66275">
        <ele>71.76</ele>
        <time>2014-07-22T12:50:10Z</time>
      </trkpt>
      <trkpt lat="47.57208" lon="-0.66291">
        <ele>71.76</ele>
        <time>2014-07-22T12:50:16Z</time>
      </trkpt>
      <trkpt lat="47.57208" lon="-0.66294">
        <ele>72.24</ele>
        <time>2014-07-22T12:50:23Z</time>
      </trkpt>
      <trkpt lat="47.57208" lon="-0.66294">
        <ele>72.24</ele>
        <time>2014-07-22T12:50:42Z</time>
      </trkpt>
      <trkpt lat="47.57208" lon="-0.66294">
        <ele>71.76</ele>
        <time>2014-07-22T12:50:54Z</time>
      </trkpt>
      <trkpt lat="47.57208" lon="-0.663">
        <ele>72.24</ele>
        <time>2014-07-22T12:50:57Z</time>
      </trkpt>
      <trkpt lat="47.57212" lon="-0.66314">
        <ele>71.76</ele>
        <time>2014-07-22T12:51:01Z</time>
      </trkpt>
      <trkpt lat="47.57219" lon="-0.66356">
        <ele>72.24</ele>
        <time>2014-07-22T12:51:13Z</time>
      </trkpt>
      <trkpt lat="47.57229" lon="-0.66393">
        <ele>72.24</ele>
        <time>2014-07-22T12:51:21Z</time>
      </trkpt>
      <trkpt lat="47.57238" lon="-0.66433">
        <ele>73.2</ele>
        <time>2014-07-22T12:51:29Z</time>
      </trkpt>
      <trkpt lat="47.57243" lon="-0.6646">
        <ele>73.2</ele>
        <time>2014-07-22T12:51:35Z</time>
      </trkpt>
      <trkpt lat="47.57251" lon="-0.665">
        <ele>72.72</ele>
        <time>2014-07-22T12:51:42Z</time>
      </trkpt>
      <trkpt lat="47.57257" lon="-0.66519">
        <ele>73.2</ele>
        <time>2014-07-22T12:51:45Z</time>
      </trkpt>
      <trkpt lat="47.57266" lon="-0.6654">
        <ele>73.68</ele>
        <time>2014-07-22T12:51:49Z</time>
      </trkpt>
      <trkpt lat="47.57294" lon="-0.66597">
        <ele>74.64</ele>
        <time>2014-07-22T12:52:00Z</time>
      </trkpt>
      <trkpt lat="47.57318" lon="-0.66657">
        <ele>75.12</ele>
        <time>2014-07-22T12:52:11Z</time>
      </trkpt>
      <trkpt lat="47.57335" lon="-0.66701">
        <ele>75.12</ele>
        <time>2014-07-22T12:52:19Z</time>
      </trkpt>
      <trkpt lat="47.57345" lon="-0.66722">
        <ele>74.16</ele>
        <time>2014-07-22T12:52:23Z</time>
      </trkpt>
      <trkpt lat="47.57351" lon="-0.66731">
        <ele>74.16</ele>
        <time>2014-07-22T12:52:25Z</time>
      </trkpt>
      <trkpt lat="47.57348" lon="-0.66745">
        <ele>74.16</ele>
        <time>2014-07-22T12:52:29Z</time>
      </trkpt>
      <trkpt lat="47.57344" lon="-0.66746">
        <ele>74.16</ele>
        <time>2014-07-22T12:52:30Z</time>
      </trkpt>
      <trkpt lat="47.57301" lon="-0.66747">
        <ele>74.64</ele>
        <time>2014-07-22T12:52:41Z</time>
      </trkpt>
      <trkpt lat="47.57257" lon="-0.66756">
        <ele>73.68</ele>
        <time>2014-07-22T12:52:51Z</time>
      </trkpt>
      <trkpt lat="47.57245" lon="-0.6676">
        <ele>72.72</ele>
        <time>2014-07-22T12:52:54Z</time>
      </trkpt>
      <trkpt lat="47.57233" lon="-0.66761">
        <ele>73.2</ele>
        <time>2014-07-22T12:52:57Z</time>
      </trkpt>
      <trkpt lat="47.57209" lon="-0.66773">
        <ele>71.76</ele>
        <time>2014-07-22T12:53:04Z</time>
      </trkpt>
      <trkpt lat="47.57186" lon="-0.66785">
        <ele>69.83</ele>
        <time>2014-07-22T12:53:09Z</time>
      </trkpt>
      <trkpt lat="47.57174" lon="-0.66788">
        <ele>69.83</ele>
        <time>2014-07-22T12:53:11Z</time>
      </trkpt>
      <trkpt lat="47.57132" lon="-0.66812">
        <ele>67.91</ele>
        <time>2014-07-22T12:53:18Z</time>
      </trkpt>
      <trkpt lat="47.57114" lon="-0.66832">
        <ele>66.47</ele>
        <time>2014-07-22T12:53:23Z</time>
      </trkpt>
      <trkpt lat="47.57111" lon="-0.66835">
        <ele>66.47</ele>
        <time>2014-07-22T12:53:28Z</time>
      </trkpt>
      <trkpt lat="47.57111" lon="-0.66835">
        <ele>66.95</ele>
        <time>2014-07-22T12:53:31Z</time>
      </trkpt>
      <trkpt lat="47.57098" lon="-0.66847">
        <ele>65.03</ele>
        <time>2014-07-22T12:53:37Z</time>
      </trkpt>
      <trkpt lat="47.57096" lon="-0.66849">
        <ele>65.03</ele>
        <time>2014-07-22T12:53:38Z</time>
      </trkpt>
      <trkpt lat="47.5708" lon="-0.66862">
        <ele>64.07</ele>
        <time>2014-07-22T12:53:44Z</time>
      </trkpt>
      <trkpt lat="47.57066" lon="-0.66876">
        <ele>63.58</ele>
        <time>2014-07-22T12:53:50Z</time>
      </trkpt>
      <trkpt lat="47.57054" lon="-0.66888">
        <ele>62.14</ele>
        <time>2014-07-22T12:53:55Z</time>
      </trkpt>
      <trkpt lat="47.57044" lon="-0.66899">
        <ele>62.14</ele>
        <time>2014-07-22T12:53:59Z</time>
      </trkpt>
      <trkpt lat="47.57025" lon="-0.66916">
        <ele>61.66</ele>
        <time>2014-07-22T12:54:04Z</time>
      </trkpt>
      <trkpt lat="47.57015" lon="-0.66923">
        <ele>61.66</ele>
        <time>2014-07-22T12:54:06Z</time>
      </trkpt>
      <trkpt lat="47.5699" lon="-0.66963">
        <ele>61.66</ele>
        <time>2014-07-22T12:54:13Z</time>
      </trkpt>
      <trkpt lat="47.56988" lon="-0.66974">
        <ele>62.62</ele>
        <time>2014-07-22T12:54:15Z</time>
      </trkpt>
      <trkpt lat="47.56984" lon="-0.67018">
        <ele>64.07</ele>
        <time>2014-07-22T12:54:23Z</time>
      </trkpt>
      <trkpt lat="47.56982" lon="-0.67052">
        <ele>64.55</ele>
        <time>2014-07-22T12:54:29Z</time>
      </trkpt>
      <trkpt lat="47.56983" lon="-0.67061">
        <ele>65.03</ele>
        <time>2014-07-22T12:54:31Z</time>
      </trkpt>
      <trkpt lat="47.5698" lon="-0.6709">
        <ele>65.03</ele>
        <time>2014-07-22T12:54:36Z</time>
      </trkpt>
      <trkpt lat="47.56982" lon="-0.67149">
        <ele>65.51</ele>
        <time>2014-07-22T12:54:46Z</time>
      </trkpt>
      <trkpt lat="47.56983" lon="-0.67179">
        <ele>65.51</ele>
        <time>2014-07-22T12:54:52Z</time>
      </trkpt>
      <trkpt lat="47.56983" lon="-0.6719">
        <ele>65.51</ele>
        <time>2014-07-22T12:54:54Z</time>
      </trkpt>
      <trkpt lat="47.56981" lon="-0.67205">
        <ele>65.51</ele>
        <time>2014-07-22T12:54:59Z</time>
      </trkpt>
      <trkpt lat="47.56967" lon="-0.67205">
        <ele>64.07</ele>
        <time>2014-07-22T12:55:03Z</time>
      </trkpt>
      <trkpt lat="47.56963" lon="-0.67204">
        <ele>63.58</ele>
        <time>2014-07-22T12:55:04Z</time>
      </trkpt>
      <trkpt lat="47.56924" lon="-0.67193">
        <ele>63.1</ele>
        <time>2014-07-22T12:55:12Z</time>
      </trkpt>
      <trkpt lat="47.56878" lon="-0.67173">
        <ele>61.66</ele>
        <time>2014-07-22T12:55:21Z</time>
      </trkpt>
      <trkpt lat="47.56873" lon="-0.67171">
        <ele>62.14</ele>
        <time>2014-07-22T12:55:22Z</time>
      </trkpt>
      <trkpt lat="47.56836" lon="-0.67143">
        <ele>62.14</ele>
        <time>2014-07-22T12:55:30Z</time>
      </trkpt>
      <trkpt lat="47.56799" lon="-0.67116">
        <ele>63.1</ele>
        <time>2014-07-22T12:55:38Z</time>
      </trkpt>
      <trkpt lat="47.56776" lon="-0.67102">
        <ele>63.1</ele>
        <time>2014-07-22T12:55:43Z</time>
      </trkpt>
      <trkpt lat="47.56771" lon="-0.67099">
        <ele>63.58</ele>
        <time>2014-07-22T12:55:44Z</time>
      </trkpt>
      <trkpt lat="47.56766" lon="-0.67097">
        <ele>63.58</ele>
        <time>2014-07-22T12:55:45Z</time>
      </trkpt>
      <trkpt lat="47.56731" lon="-0.67075">
        <ele>65.51</ele>
        <time>2014-07-22T12:55:53Z</time>
      </trkpt>
      <trkpt lat="47.567" lon="-0.67043">
        <ele>65.03</ele>
        <time>2014-07-22T12:56:01Z</time>
      </trkpt>
      <trkpt lat="47.56683" lon="-0.67029">
        <ele>65.03</ele>
        <time>2014-07-22T12:56:05Z</time>
      </trkpt>
      <trkpt lat="47.56678" lon="-0.67028">
        <ele>65.03</ele>
        <time>2014-07-22T12:56:06Z</time>
      </trkpt>
      <trkpt lat="47.56673" lon="-0.67028">
        <ele>65.03</ele>
        <time>2014-07-22T12:56:07Z</time>
      </trkpt>
      <trkpt lat="47.56668" lon="-0.67029">
        <ele>65.03</ele>
        <time>2014-07-22T12:56:08Z</time>
      </trkpt>
      <trkpt lat="47.56663" lon="-0.6703">
        <ele>64.55</ele>
        <time>2014-07-22T12:56:09Z</time>
      </trkpt>
      <trkpt lat="47.56659" lon="-0.67033">
        <ele>64.55</ele>
        <time>2014-07-22T12:56:10Z</time>
      </trkpt>
      <trkpt lat="47.56617" lon="-0.67049">
        <ele>65.03</ele>
        <time>2014-07-22T12:56:19Z</time>
      </trkpt>
      <trkpt lat="47.56601" lon="-0.67058">
        <ele>64.07</ele>
        <time>2014-07-22T12:56:22Z</time>
      </trkpt>
      <trkpt lat="47.56596" lon="-0.67063">
        <ele>63.58</ele>
        <time>2014-07-22T12:56:23Z</time>
      </trkpt>
      <trkpt lat="47.56581" lon="-0.67077">
        <ele>63.1</ele>
        <time>2014-07-22T12:56:26Z</time>
      </trkpt>
      <trkpt lat="47.56576" lon="-0.67083">
        <ele>63.1</ele>
        <time>2014-07-22T12:56:27Z</time>
      </trkpt>
      <trkpt lat="47.56571" lon="-0.6709">
        <ele>62.14</ele>
        <time>2014-07-22T12:56:28Z</time>
      </trkpt>
      <trkpt lat="47.56566" lon="-0.67096">
        <ele>62.14</ele>
        <time>2014-07-22T12:56:29Z</time>
      </trkpt>
      <trkpt lat="47.56561" lon="-0.67103">
        <ele>61.18</ele>
        <time>2014-07-22T12:56:30Z</time>
      </trkpt>
      <trkpt lat="47.56557" lon="-0.6711">
        <ele>60.22</ele>
        <time>2014-07-22T12:56:31Z</time>
      </trkpt>
      <trkpt lat="47.56552" lon="-0.67117">
        <ele>60.22</ele>
        <time>2014-07-22T12:56:32Z</time>
      </trkpt>
      <trkpt lat="47.56527" lon="-0.67139">
        <ele>57.34</ele>
        <time>2014-07-22T12:56:36Z</time>
      </trkpt>
      <trkpt lat="47.56505" lon="-0.67155">
        <ele>53.97</ele>
        <time>2014-07-22T12:56:39Z</time>
      </trkpt>
      <trkpt lat="47.56481" lon="-0.67172">
        <ele>51.57</ele>
        <time>2014-07-22T12:56:43Z</time>
      </trkpt>
      <trkpt lat="47.56477" lon="-0.67172">
        <ele>51.09</ele>
        <time>2014-07-22T12:56:44Z</time>
      </trkpt>
      <trkpt lat="47.56472" lon="-0.67169">
        <ele>50.61</ele>
        <time>2014-07-22T12:56:45Z</time>
      </trkpt>
      <trkpt lat="47.56469" lon="-0.67163">
        <ele>51.09</ele>
        <time>2014-07-22T12:56:46Z</time>
      </trkpt>
      <trkpt lat="47.56465" lon="-0.67157">
        <ele>50.61</ele>
        <time>2014-07-22T12:56:47Z</time>
      </trkpt>
      <trkpt lat="47.56462" lon="-0.6715">
        <ele>50.13</ele>
        <time>2014-07-22T12:56:48Z</time>
      </trkpt>
      <trkpt lat="47.56458" lon="-0.67142">
        <ele>49.65</ele>
        <time>2014-07-22T12:56:49Z</time>
      </trkpt>
      <trkpt lat="47.56446" lon="-0.67115">
        <ele>48.2</ele>
        <time>2014-07-22T12:56:52Z</time>
      </trkpt>
      <trkpt lat="47.56432" lon="-0.67084">
        <ele>46.76</ele>
        <time>2014-07-22T12:56:55Z</time>
      </trkpt>
      <trkpt lat="47.56412" lon="-0.67027">
        <ele>43.4</ele>
        <time>2014-07-22T12:57:00Z</time>
      </trkpt>
      <trkpt lat="47.56408" lon="-0.67015">
        <ele>43.4</ele>
        <time>2014-07-22T12:57:01Z</time>
      </trkpt>
      <trkpt lat="47.56399" lon="-0.66991">
        <ele>42.44</ele>
        <time>2014-07-22T12:57:03Z</time>
      </trkpt>
      <trkpt lat="47.56368" lon="-0.66933">
        <ele>42.44</ele>
        <time>2014-07-22T12:57:09Z</time>
      </trkpt>
      <trkpt lat="47.56342" lon="-0.66894">
        <ele>42.92</ele>
        <time>2014-07-22T12:57:15Z</time>
      </trkpt>
      <trkpt lat="47.56325" lon="-0.66865">
        <ele>44.36</ele>
        <time>2014-07-22T12:57:21Z</time>
      </trkpt>
      <trkpt lat="47.56319" lon="-0.66837">
        <ele>44.36</ele>
        <time>2014-07-22T12:57:28Z</time>
      </trkpt>
      <trkpt lat="47.56318" lon="-0.66835">
        <ele>44.36</ele>
        <time>2014-07-22T12:57:29Z</time>
      </trkpt>
      <trkpt lat="47.56316" lon="-0.66835">
        <ele>44.36</ele>
        <time>2014-07-22T12:57:30Z</time>
      </trkpt>
      <trkpt lat="47.56314" lon="-0.66837">
        <ele>43.88</ele>
        <time>2014-07-22T12:57:31Z</time>
      </trkpt>
      <trkpt lat="47.56313" lon="-0.66841">
        <ele>43.88</ele>
        <time>2014-07-22T12:57:32Z</time>
      </trkpt>
      <trkpt lat="47.56306" lon="-0.66863">
        <ele>43.4</ele>
        <time>2014-07-22T12:57:37Z</time>
      </trkpt>
      <trkpt lat="47.56296" lon="-0.66889">
        <ele>43.4</ele>
        <time>2014-07-22T12:57:42Z</time>
      </trkpt>
      <trkpt lat="47.56283" lon="-0.66943">
        <ele>43.88</ele>
        <time>2014-07-22T12:57:51Z</time>
      </trkpt>
      <trkpt lat="47.56279" lon="-0.66954">
        <ele>43.88</ele>
        <time>2014-07-22T12:57:53Z</time>
      </trkpt>
      <trkpt lat="47.56288" lon="-0.66965">
        <ele>43.88</ele>
        <time>2014-07-22T12:57:57Z</time>
      </trkpt>
      <trkpt lat="47.56302" lon="-0.66955">
        <ele>46.28</ele>
        <time>2014-07-22T12:58:02Z</time>
      </trkpt>
      <trkpt lat="47.56317" lon="-0.66963">
        <ele>46.76</ele>
        <time>2014-07-22T12:58:08Z</time>
      </trkpt>
      <trkpt lat="47.5632" lon="-0.66967">
        <ele>46.76</ele>
        <time>2014-07-22T12:58:09Z</time>
      </trkpt>
      <trkpt lat="47.5634" lon="-0.67003">
        <ele>46.28</ele>
        <time>2014-07-22T12:58:17Z</time>
      </trkpt>
      <trkpt lat="47.56355" lon="-0.6703">
        <ele>45.8</ele>
        <time>2014-07-22T12:58:24Z</time>
      </trkpt>
      <trkpt lat="47.56372" lon="-0.67064">
        <ele>45.32</ele>
        <time>2014-07-22T12:58:32Z</time>
      </trkpt>
      <trkpt lat="47.56393" lon="-0.6711">
        <ele>45.32</ele>
        <time>2014-07-22T12:58:41Z</time>
      </trkpt>
      <trkpt lat="47.56415" lon="-0.67152">
        <ele>46.28</ele>
        <time>2014-07-22T12:58:49Z</time>
      </trkpt>
      <trkpt lat="47.56426" lon="-0.67175">
        <ele>45.8</ele>
        <time>2014-07-22T12:58:53Z</time>
      </trkpt>
      <trkpt lat="47.56433" lon="-0.67192">
        <ele>45.8</ele>
        <time>2014-07-22T12:58:56Z</time>
      </trkpt>
      <trkpt lat="47.56449" lon="-0.67243">
        <ele>45.8</ele>
        <time>2014-07-22T12:59:04Z</time>
      </trkpt>
      <trkpt lat="47.56441" lon="-0.67275">
        <ele>45.32</ele>
        <time>2014-07-22T12:59:09Z</time>
      </trkpt>
      <trkpt lat="47.56417" lon="-0.67309">
        <ele>45.8</ele>
        <time>2014-07-22T12:59:17Z</time>
      </trkpt>
      <trkpt lat="47.56395" lon="-0.67333">
        <ele>46.76</ele>
        <time>2014-07-22T12:59:23Z</time>
      </trkpt>
      <trkpt lat="47.56358" lon="-0.67365">
        <ele>47.72</ele>
        <time>2014-07-22T12:59:33Z</time>
      </trkpt>
      <trkpt lat="47.56333" lon="-0.67385">
        <ele>49.65</ele>
        <time>2014-07-22T12:59:41Z</time>
      </trkpt>
      <trkpt lat="47.56316" lon="-0.67401">
        <ele>50.13</ele>
        <time>2014-07-22T12:59:48Z</time>
      </trkpt>
      <trkpt lat="47.56293" lon="-0.67416">
        <ele>50.61</ele>
        <time>2014-07-22T12:59:55Z</time>
      </trkpt>
      <trkpt lat="47.56284" lon="-0.67421">
        <ele>50.13</ele>
        <time>2014-07-22T12:59:57Z</time>
      </trkpt>
      <trkpt lat="47.56262" lon="-0.67433">
        <ele>48.2</ele>
        <time>2014-07-22T13:00:02Z</time>
      </trkpt>
      <trkpt lat="47.56246" lon="-0.67433">
        <ele>47.24</ele>
        <time>2014-07-22T13:00:07Z</time>
      </trkpt>
      <trkpt lat="47.56237" lon="-0.67447">
        <ele>46.76</ele>
        <time>2014-07-22T13:00:12Z</time>
      </trkpt>
      <trkpt lat="47.56233" lon="-0.67455">
        <ele>47.72</ele>
        <time>2014-07-22T13:00:14Z</time>
      </trkpt>
      <trkpt lat="47.56234" lon="-0.67469">
        <ele>48.68</ele>
        <time>2014-07-22T13:00:20Z</time>
      </trkpt>
      <trkpt lat="47.56242" lon="-0.67478">
        <ele>49.16</ele>
        <time>2014-07-22T13:00:23Z</time>
      </trkpt>
      <trkpt lat="47.56268" lon="-0.67511">
        <ele>50.61</ele>
        <time>2014-07-22T13:00:32Z</time>
      </trkpt>
      <trkpt lat="47.5629" lon="-0.67539">
        <ele>51.09</ele>
        <time>2014-07-22T13:00:40Z</time>
      </trkpt>
      <trkpt lat="47.56312" lon="-0.67565">
        <ele>52.53</ele>
        <time>2014-07-22T13:00:48Z</time>
      </trkpt>
      <trkpt lat="47.56331" lon="-0.67588">
        <ele>53.49</ele>
        <time>2014-07-22T13:00:55Z</time>
      </trkpt>
      <trkpt lat="47.56353" lon="-0.67612">
        <ele>54.93</ele>
        <time>2014-07-22T13:01:03Z</time>
      </trkpt>
      <trkpt lat="47.56374" lon="-0.67637">
        <ele>55.89</ele>
        <time>2014-07-22T13:01:11Z</time>
      </trkpt>
      <trkpt lat="47.56399" lon="-0.67669">
        <ele>57.34</ele>
        <time>2014-07-22T13:01:20Z</time>
      </trkpt>
      <trkpt lat="47.56412" lon="-0.6769">
        <ele>58.3</ele>
        <time>2014-07-22T13:01:26Z</time>
      </trkpt>
      <trkpt lat="47.56422" lon="-0.6772">
        <ele>59.26</ele>
        <time>2014-07-22T13:01:33Z</time>
      </trkpt>
      <trkpt lat="47.56434" lon="-0.67746">
        <ele>61.18</ele>
        <time>2014-07-22T13:01:40Z</time>
      </trkpt>
      <trkpt lat="47.56452" lon="-0.67773">
        <ele>62.62</ele>
        <time>2014-07-22T13:01:49Z</time>
      </trkpt>
      <trkpt lat="47.56467" lon="-0.67795">
        <ele>63.1</ele>
        <time>2014-07-22T13:01:56Z</time>
      </trkpt>
      <trkpt lat="47.56486" lon="-0.67826">
        <ele>63.58</ele>
        <time>2014-07-22T13:02:05Z</time>
      </trkpt>
      <trkpt lat="47.565" lon="-0.67848">
        <ele>64.07</ele>
        <time>2014-07-22T13:02:11Z</time>
      </trkpt>
      <trkpt lat="47.56517" lon="-0.67877">
        <ele>64.55</ele>
        <time>2014-07-22T13:02:18Z</time>
      </trkpt>
      <trkpt lat="47.56538" lon="-0.67914">
        <ele>64.55</ele>
        <time>2014-07-22T13:02:26Z</time>
      </trkpt>
      <trkpt lat="47.56552" lon="-0.67937">
        <ele>65.03</ele>
        <time>2014-07-22T13:02:32Z</time>
      </trkpt>
      <trkpt lat="47.56576" lon="-0.67967">
        <ele>65.51</ele>
        <time>2014-07-22T13:02:39Z</time>
      </trkpt>
      <trkpt lat="47.56603" lon="-0.67997">
        <ele>65.99</ele>
        <time>2014-07-22T13:02:48Z</time>
      </trkpt>
      <trkpt lat="47.5662" lon="-0.68027">
        <ele>66.47</ele>
        <time>2014-07-22T13:02:55Z</time>
      </trkpt>
      <trkpt lat="47.56628" lon="-0.68039">
        <ele>67.43</ele>
        <time>2014-07-22T13:02:58Z</time>
      </trkpt>
      <trkpt lat="47.5665" lon="-0.68079">
        <ele>67.91</ele>
        <time>2014-07-22T13:03:06Z</time>
      </trkpt>
      <trkpt lat="47.56659" lon="-0.68095">
        <ele>67.43</ele>
        <time>2014-07-22T13:03:09Z</time>
      </trkpt>
      <trkpt lat="47.56671" lon="-0.68123">
        <ele>68.39</ele>
        <time>2014-07-22T13:03:14Z</time>
      </trkpt>
      <trkpt lat="47.56679" lon="-0.68138">
        <ele>68.87</ele>
        <time>2014-07-22T13:03:17Z</time>
      </trkpt>
      <trkpt lat="47.56685" lon="-0.68149">
        <ele>68.87</ele>
        <time>2014-07-22T13:03:19Z</time>
      </trkpt>
      <trkpt lat="47.56694" lon="-0.68173">
        <ele>69.35</ele>
        <time>2014-07-22T13:03:23Z</time>
      </trkpt>
      <trkpt lat="47.56714" lon="-0.68219">
        <ele>69.83</ele>
        <time>2014-07-22T13:03:31Z</time>
      </trkpt>
      <trkpt lat="47.56734" lon="-0.68257">
        <ele>69.83</ele>
        <time>2014-07-22T13:03:38Z</time>
      </trkpt>
      <trkpt lat="47.56758" lon="-0.68302">
        <ele>71.76</ele>
        <time>2014-07-22T13:03:46Z</time>
      </trkpt>
      <trkpt lat="47.56766" lon="-0.68315">
        <ele>71.76</ele>
        <time>2014-07-22T13:03:49Z</time>
      </trkpt>
      <trkpt lat="47.56778" lon="-0.68334">
        <ele>72.72</ele>
        <time>2014-07-22T13:03:53Z</time>
      </trkpt>
      <trkpt lat="47.56793" lon="-0.68355">
        <ele>72.72</ele>
        <time>2014-07-22T13:03:58Z</time>
      </trkpt>
      <trkpt lat="47.56824" lon="-0.68398">
        <ele>73.68</ele>
        <time>2014-07-22T13:04:08Z</time>
      </trkpt>
      <trkpt lat="47.56849" lon="-0.68428">
        <ele>73.68</ele>
        <time>2014-07-22T13:04:16Z</time>
      </trkpt>
      <trkpt lat="47.56858" lon="-0.68441">
        <ele>73.68</ele>
        <time>2014-07-22T13:04:19Z</time>
      </trkpt>
      <trkpt lat="47.5687" lon="-0.68458">
        <ele>74.64</ele>
        <time>2014-07-22T13:04:23Z</time>
      </trkpt>
      <trkpt lat="47.56899" lon="-0.68499">
        <ele>75.6</ele>
        <time>2014-07-22T13:04:33Z</time>
      </trkpt>
      <trkpt lat="47.56925" lon="-0.68525">
        <ele>76.08</ele>
        <time>2014-07-22T13:04:41Z</time>
      </trkpt>
      <trkpt lat="47.56953" lon="-0.68548">
        <ele>76.08</ele>
        <time>2014-07-22T13:04:49Z</time>
      </trkpt>
      <trkpt lat="47.56976" lon="-0.68575">
        <ele>77.04</ele>
        <time>2014-07-22T13:04:57Z</time>
      </trkpt>
      <trkpt lat="47.56999" lon="-0.68602">
        <ele>78</ele>
        <time>2014-07-22T13:05:05Z</time>
      </trkpt>
      <trkpt lat="47.57017" lon="-0.68623">
        <ele>78.48</ele>
        <time>2014-07-22T13:05:12Z</time>
      </trkpt>
      <trkpt lat="47.5703" lon="-0.68641">
        <ele>79.45</ele>
        <time>2014-07-22T13:05:19Z</time>
      </trkpt>
      <trkpt lat="47.57045" lon="-0.68663">
        <ele>79.45</ele>
        <time>2014-07-22T13:05:26Z</time>
      </trkpt>
      <trkpt lat="47.57066" lon="-0.6869">
        <ele>80.41</ele>
        <time>2014-07-22T13:05:34Z</time>
      </trkpt>
      <trkpt lat="47.57088" lon="-0.68709">
        <ele>81.37</ele>
        <time>2014-07-22T13:05:41Z</time>
      </trkpt>
      <trkpt lat="47.57099" lon="-0.68727">
        <ele>80.89</ele>
        <time>2014-07-22T13:05:47Z</time>
      </trkpt>
      <trkpt lat="47.57104" lon="-0.6873">
        <ele>80.89</ele>
        <time>2014-07-22T13:05:49Z</time>
      </trkpt>
      <trkpt lat="47.57116" lon="-0.68746">
        <ele>82.33</ele>
        <time>2014-07-22T13:05:57Z</time>
      </trkpt>
      <trkpt lat="47.57123" lon="-0.68755">
        <ele>81.85</ele>
        <time>2014-07-22T13:06:03Z</time>
      </trkpt>
      <trkpt lat="47.57133" lon="-0.68764">
        <ele>81.85</ele>
        <time>2014-07-22T13:06:07Z</time>
      </trkpt>
      <trkpt lat="47.57152" lon="-0.68781">
        <ele>81.85</ele>
        <time>2014-07-22T13:06:14Z</time>
      </trkpt>
      <trkpt lat="47.57172" lon="-0.68796">
        <ele>82.33</ele>
        <time>2014-07-22T13:06:20Z</time>
      </trkpt>
      <trkpt lat="47.57199" lon="-0.68812">
        <ele>82.81</ele>
        <time>2014-07-22T13:06:28Z</time>
      </trkpt>
      <trkpt lat="47.57222" lon="-0.68828">
        <ele>82.33</ele>
        <time>2014-07-22T13:06:36Z</time>
      </trkpt>
      <trkpt lat="47.57242" lon="-0.6884">
        <ele>82.81</ele>
        <time>2014-07-22T13:06:42Z</time>
      </trkpt>
      <trkpt lat="47.57273" lon="-0.68863">
        <ele>82.81</ele>
        <time>2014-07-22T13:06:50Z</time>
      </trkpt>
      <trkpt lat="47.57296" lon="-0.68887">
        <ele>83.29</ele>
        <time>2014-07-22T13:06:56Z</time>
      </trkpt>
      <trkpt lat="47.57292" lon="-0.68916">
        <ele>83.29</ele>
        <time>2014-07-22T13:07:02Z</time>
      </trkpt>
      <trkpt lat="47.57275" lon="-0.68946">
        <ele>83.29</ele>
        <time>2014-07-22T13:07:09Z</time>
      </trkpt>
      <trkpt lat="47.57264" lon="-0.68973">
        <ele>83.29</ele>
        <time>2014-07-22T13:07:15Z</time>
      </trkpt>
      <trkpt lat="47.5725" lon="-0.69002">
        <ele>83.29</ele>
        <time>2014-07-22T13:07:21Z</time>
      </trkpt>
      <trkpt lat="47.57235" lon="-0.69038">
        <ele>83.29</ele>
        <time>2014-07-22T13:07:28Z</time>
      </trkpt>
      <trkpt lat="47.57233" lon="-0.69043">
        <ele>83.29</ele>
        <time>2014-07-22T13:07:29Z</time>
      </trkpt>
      <trkpt lat="47.57211" lon="-0.69083">
        <ele>83.29</ele>
        <time>2014-07-22T13:07:37Z</time>
      </trkpt>
      <trkpt lat="47.57195" lon="-0.69115">
        <ele>82.81</ele>
        <time>2014-07-22T13:07:43Z</time>
      </trkpt>
      <trkpt lat="47.57176" lon="-0.69152">
        <ele>82.81</ele>
        <time>2014-07-22T13:07:50Z</time>
      </trkpt>
      <trkpt lat="47.5716" lon="-0.6914">
        <ele>82.81</ele>
        <time>2014-07-22T13:07:55Z</time>
      </trkpt>
      <trkpt lat="47.57155" lon="-0.69131">
        <ele>82.81</ele>
        <time>2014-07-22T13:07:57Z</time>
      </trkpt>
      <trkpt lat="47.57143" lon="-0.69111">
        <ele>82.81</ele>
        <time>2014-07-22T13:08:01Z</time>
      </trkpt>
      <trkpt lat="47.57124" lon="-0.69099">
        <ele>82.33</ele>
        <time>2014-07-22T13:08:06Z</time>
      </trkpt>
      <trkpt lat="47.57119" lon="-0.69118">
        <ele>82.33</ele>
        <time>2014-07-22T13:08:09Z</time>
      </trkpt>
      <trkpt lat="47.57113" lon="-0.69147">
        <ele>82.33</ele>
        <time>2014-07-22T13:08:13Z</time>
      </trkpt>
      <trkpt lat="47.57096" lon="-0.69207">
        <ele>80.89</ele>
        <time>2014-07-22T13:08:21Z</time>
      </trkpt>
      <trkpt lat="47.57094" lon="-0.69215">
        <ele>81.37</ele>
        <time>2014-07-22T13:08:22Z</time>
      </trkpt>
      <trkpt lat="47.57075" lon="-0.69269">
        <ele>80.89</ele>
        <time>2014-07-22T13:08:29Z</time>
      </trkpt>
      <trkpt lat="47.57056" lon="-0.6932">
        <ele>80.41</ele>
        <time>2014-07-22T13:08:36Z</time>
      </trkpt>
      <trkpt lat="47.5703" lon="-0.69386">
        <ele>79.45</ele>
        <time>2014-07-22T13:08:45Z</time>
      </trkpt>
      <trkpt lat="47.57007" lon="-0.69442">
        <ele>78.97</ele>
        <time>2014-07-22T13:08:53Z</time>
      </trkpt>
      <trkpt lat="47.57005" lon="-0.6945">
        <ele>78.97</ele>
        <time>2014-07-22T13:08:54Z</time>
      </trkpt>
      <trkpt lat="47.56991" lon="-0.69486">
        <ele>78.97</ele>
        <time>2014-07-22T13:09:00Z</time>
      </trkpt>
      <trkpt lat="47.56985" lon="-0.69496">
        <ele>79.45</ele>
        <time>2014-07-22T13:09:02Z</time>
      </trkpt>
      <trkpt lat="47.56956" lon="-0.69541">
        <ele>79.93</ele>
        <time>2014-07-22T13:09:11Z</time>
      </trkpt>
      <trkpt lat="47.56918" lon="-0.69593">
        <ele>78.48</ele>
        <time>2014-07-22T13:09:21Z</time>
      </trkpt>
      <trkpt lat="47.5689" lon="-0.69627">
        <ele>78.97</ele>
        <time>2014-07-22T13:09:28Z</time>
      </trkpt>
      <trkpt lat="47.56845" lon="-0.69663">
        <ele>78</ele>
        <time>2014-07-22T13:09:37Z</time>
      </trkpt>
      <trkpt lat="47.56802" lon="-0.69682">
        <ele>77.52</ele>
        <time>2014-07-22T13:09:45Z</time>
      </trkpt>
      <trkpt lat="47.56754" lon="-0.69706">
        <ele>77.04</ele>
        <time>2014-07-22T13:09:54Z</time>
      </trkpt>
      <trkpt lat="47.56717" lon="-0.69731">
        <ele>76.56</ele>
        <time>2014-07-22T13:10:01Z</time>
      </trkpt>
      <trkpt lat="47.56681" lon="-0.69755">
        <ele>76.56</ele>
        <time>2014-07-22T13:10:07Z</time>
      </trkpt>
      <trkpt lat="47.56639" lon="-0.69785">
        <ele>76.56</ele>
        <time>2014-07-22T13:10:15Z</time>
      </trkpt>
      <trkpt lat="47.56607" lon="-0.69811">
        <ele>77.52</ele>
        <time>2014-07-22T13:10:21Z</time>
      </trkpt>
      <trkpt lat="47.56596" lon="-0.6982">
        <ele>77.04</ele>
        <time>2014-07-22T13:10:23Z</time>
      </trkpt>
      <trkpt lat="47.56551" lon="-0.69844">
        <ele>77.52</ele>
        <time>2014-07-22T13:10:31Z</time>
      </trkpt>
      <trkpt lat="47.56504" lon="-0.69857">
        <ele>77.52</ele>
        <time>2014-07-22T13:10:39Z</time>
      </trkpt>
      <trkpt lat="47.56471" lon="-0.69867">
        <ele>78.48</ele>
        <time>2014-07-22T13:10:45Z</time>
      </trkpt>
      <trkpt lat="47.56426" lon="-0.69879">
        <ele>79.45</ele>
        <time>2014-07-22T13:10:54Z</time>
      </trkpt>
      <trkpt lat="47.56411" lon="-0.69884">
        <ele>79.93</ele>
        <time>2014-07-22T13:10:57Z</time>
      </trkpt>
      <trkpt lat="47.56394" lon="-0.69888">
        <ele>79.93</ele>
        <time>2014-07-22T13:11:02Z</time>
      </trkpt>
      <trkpt lat="47.56394" lon="-0.69888">
        <ele>80.41</ele>
        <time>2014-07-22T13:11:12Z</time>
      </trkpt>
      <trkpt lat="47.56389" lon="-0.6989">
        <ele>80.41</ele>
        <time>2014-07-22T13:11:22Z</time>
      </trkpt>
      <trkpt lat="47.5637" lon="-0.69899">
        <ele>80.41</ele>
        <time>2014-07-22T13:11:28Z</time>
      </trkpt>
      <trkpt lat="47.56342" lon="-0.69916">
        <ele>81.85</ele>
        <time>2014-07-22T13:11:36Z</time>
      </trkpt>
      <trkpt lat="47.56321" lon="-0.69923">
        <ele>81.37</ele>
        <time>2014-07-22T13:11:43Z</time>
      </trkpt>
      <trkpt lat="47.56308" lon="-0.69915">
        <ele>81.85</ele>
        <time>2014-07-22T13:11:47Z</time>
      </trkpt>
      <trkpt lat="47.56298" lon="-0.69895">
        <ele>81.85</ele>
        <time>2014-07-22T13:11:51Z</time>
      </trkpt>
      <trkpt lat="47.56277" lon="-0.69851">
        <ele>80.41</ele>
        <time>2014-07-22T13:11:59Z</time>
      </trkpt>
      <trkpt lat="47.56256" lon="-0.69797">
        <ele>80.41</ele>
        <time>2014-07-22T13:12:08Z</time>
      </trkpt>
      <trkpt lat="47.56245" lon="-0.69771">
        <ele>79.93</ele>
        <time>2014-07-22T13:12:12Z</time>
      </trkpt>
      <trkpt lat="47.56215" lon="-0.69711">
        <ele>80.89</ele>
        <time>2014-07-22T13:12:22Z</time>
      </trkpt>
      <trkpt lat="47.56193" lon="-0.69668">
        <ele>81.85</ele>
        <time>2014-07-22T13:12:29Z</time>
      </trkpt>
      <trkpt lat="47.56161" lon="-0.69607">
        <ele>81.85</ele>
        <time>2014-07-22T13:12:39Z</time>
      </trkpt>
      <trkpt lat="47.56154" lon="-0.69596">
        <ele>81.37</ele>
        <time>2014-07-22T13:12:41Z</time>
      </trkpt>
      <trkpt lat="47.56149" lon="-0.69584">
        <ele>81.37</ele>
        <time>2014-07-22T13:12:43Z</time>
      </trkpt>
      <trkpt lat="47.56133" lon="-0.6957">
        <ele>80.41</ele>
        <time>2014-07-22T13:12:48Z</time>
      </trkpt>
      <trkpt lat="47.56127" lon="-0.69582">
        <ele>80.89</ele>
        <time>2014-07-22T13:12:51Z</time>
      </trkpt>
      <trkpt lat="47.56106" lon="-0.69648">
        <ele>80.89</ele>
        <time>2014-07-22T13:13:02Z</time>
      </trkpt>
      <trkpt lat="47.56082" lon="-0.69715">
        <ele>81.37</ele>
        <time>2014-07-22T13:13:12Z</time>
      </trkpt>
      <trkpt lat="47.56058" lon="-0.69777">
        <ele>82.33</ele>
        <time>2014-07-22T13:13:21Z</time>
      </trkpt>
      <trkpt lat="47.56029" lon="-0.69854">
        <ele>83.29</ele>
        <time>2014-07-22T13:13:32Z</time>
      </trkpt>
      <trkpt lat="47.56002" lon="-0.69922">
        <ele>84.73</ele>
        <time>2014-07-22T13:13:42Z</time>
      </trkpt>
      <trkpt lat="47.55984" lon="-0.69968">
        <ele>84.73</ele>
        <time>2014-07-22T13:13:49Z</time>
      </trkpt>
      <trkpt lat="47.55959" lon="-0.70029">
        <ele>85.21</ele>
        <time>2014-07-22T13:13:58Z</time>
      </trkpt>
      <trkpt lat="47.55951" lon="-0.70047">
        <ele>86.18</ele>
        <time>2014-07-22T13:14:01Z</time>
      </trkpt>
      <trkpt lat="47.55935" lon="-0.7008">
        <ele>86.18</ele>
        <time>2014-07-22T13:14:07Z</time>
      </trkpt>
      <trkpt lat="47.55923" lon="-0.7016">
        <ele>87.14</ele>
        <time>2014-07-22T13:14:19Z</time>
      </trkpt>
      <trkpt lat="47.5591" lon="-0.70226">
        <ele>88.1</ele>
        <time>2014-07-22T13:14:29Z</time>
      </trkpt>
      <trkpt lat="47.55909" lon="-0.70255">
        <ele>88.58</ele>
        <time>2014-07-22T13:14:34Z</time>
      </trkpt>
      <trkpt lat="47.55901" lon="-0.70267">
        <ele>88.58</ele>
        <time>2014-07-22T13:14:37Z</time>
      </trkpt>
      <trkpt lat="47.55888" lon="-0.7029">
        <ele>88.58</ele>
        <time>2014-07-22T13:14:42Z</time>
      </trkpt>
      <trkpt lat="47.55877" lon="-0.70313">
        <ele>89.06</ele>
        <time>2014-07-22T13:14:46Z</time>
      </trkpt>
      <trkpt lat="47.55855" lon="-0.70357">
        <ele>89.54</ele>
        <time>2014-07-22T13:14:54Z</time>
      </trkpt>
      <trkpt lat="47.5585" lon="-0.70367">
        <ele>90.02</ele>
        <time>2014-07-22T13:14:56Z</time>
      </trkpt>
      <trkpt lat="47.55824" lon="-0.70398">
        <ele>90.5</ele>
        <time>2014-07-22T13:15:03Z</time>
      </trkpt>
      <trkpt lat="47.55812" lon="-0.70412">
        <ele>90.5</ele>
        <time>2014-07-22T13:15:06Z</time>
      </trkpt>
      <trkpt lat="47.55775" lon="-0.70452">
        <ele>91.46</ele>
        <time>2014-07-22T13:15:15Z</time>
      </trkpt>
      <trkpt lat="47.55743" lon="-0.70492">
        <ele>91.46</ele>
        <time>2014-07-22T13:15:23Z</time>
      </trkpt>
      <trkpt lat="47.55723" lon="-0.70523">
        <ele>91.94</ele>
        <time>2014-07-22T13:15:29Z</time>
      </trkpt>
      <trkpt lat="47.55714" lon="-0.70539">
        <ele>91.46</ele>
        <time>2014-07-22T13:15:32Z</time>
      </trkpt>
      <trkpt lat="47.55699" lon="-0.70564">
        <ele>92.42</ele>
        <time>2014-07-22T13:15:37Z</time>
      </trkpt>
      <trkpt lat="47.55668" lon="-0.70608">
        <ele>91.94</ele>
        <time>2014-07-22T13:15:46Z</time>
      </trkpt>
      <trkpt lat="47.5566" lon="-0.70622">
        <ele>91.46</ele>
        <time>2014-07-22T13:15:49Z</time>
      </trkpt>
      <trkpt lat="47.55662" lon="-0.7064">
        <ele>91.94</ele>
        <time>2014-07-22T13:15:54Z</time>
      </trkpt>
      <trkpt lat="47.55663" lon="-0.70642">
        <ele>91.94</ele>
        <time>2014-07-22T13:15:59Z</time>
      </trkpt>
      <trkpt lat="47.55663" lon="-0.70642">
        <ele>91.46</ele>
        <time>2014-07-22T13:16:17Z</time>
      </trkpt>
      <trkpt lat="47.55663" lon="-0.70642">
        <ele>91.46</ele>
        <time>2014-07-22T13:16:32Z</time>
      </trkpt>
      <trkpt lat="47.55663" lon="-0.70642">
        <ele>91.46</ele>
        <time>2014-07-22T13:16:48Z</time>
      </trkpt>
      <trkpt lat="47.55663" lon="-0.70642">
        <ele>91.94</ele>
        <time>2014-07-22T13:17:06Z</time>
      </trkpt>
      <trkpt lat="47.55662" lon="-0.70641">
        <ele>91.94</ele>
        <time>2014-07-22T13:17:27Z</time>
      </trkpt>
      <trkpt lat="47.55662" lon="-0.70641">
        <ele>92.9</ele>
        <time>2014-07-22T13:17:40Z</time>
      </trkpt>
      <trkpt lat="47.55662" lon="-0.70641">
        <ele>92.42</ele>
        <time>2014-07-22T13:17:50Z</time>
      </trkpt>
      <trkpt lat="47.55671" lon="-0.70646">
        <ele>92.42</ele>
        <time>2014-07-22T13:17:57Z</time>
      </trkpt>
      <trkpt lat="47.55684" lon="-0.70652">
        <ele>92.42</ele>
        <time>2014-07-22T13:18:03Z</time>
      </trkpt>
      <trkpt lat="47.55703" lon="-0.70663">
        <ele>92.42</ele>
        <time>2014-07-22T13:18:09Z</time>
      </trkpt>
      <trkpt lat="47.55733" lon="-0.70679">
        <ele>91.94</ele>
        <time>2014-07-22T13:18:17Z</time>
      </trkpt>
      <trkpt lat="47.55737" lon="-0.70681">
        <ele>92.42</ele>
        <time>2014-07-22T13:18:18Z</time>
      </trkpt>
      <trkpt lat="47.55742" lon="-0.70701">
        <ele>91.46</ele>
        <time>2014-07-22T13:18:23Z</time>
      </trkpt>
      <trkpt lat="47.55739" lon="-0.70715">
        <ele>91.46</ele>
        <time>2014-07-22T13:18:25Z</time>
      </trkpt>
      <trkpt lat="47.55747" lon="-0.70732">
        <ele>91.46</ele>
        <time>2014-07-22T13:18:30Z</time>
      </trkpt>
      <trkpt lat="47.55764" lon="-0.70764">
        <ele>90.98</ele>
        <time>2014-07-22T13:18:36Z</time>
      </trkpt>
      <trkpt lat="47.5577" lon="-0.70777">
        <ele>91.46</ele>
        <time>2014-07-22T13:18:39Z</time>
      </trkpt>
      <trkpt lat="47.55776" lon="-0.70791">
        <ele>90.5</ele>
        <time>2014-07-22T13:18:41Z</time>
      </trkpt>
      <trkpt lat="47.55808" lon="-0.70855">
        <ele>89.54</ele>
        <time>2014-07-22T13:18:48Z</time>
      </trkpt>
      <trkpt lat="47.55815" lon="-0.70868">
        <ele>90.02</ele>
        <time>2014-07-22T13:18:49Z</time>
      </trkpt>
      <trkpt lat="47.55851" lon="-0.70946">
        <ele>89.06</ele>
        <time>2014-07-22T13:18:57Z</time>
      </trkpt>
      <trkpt lat="47.55861" lon="-0.70977">
        <ele>89.06</ele>
        <time>2014-07-22T13:19:01Z</time>
      </trkpt>
      <trkpt lat="47.55859" lon="-0.71004">
        <ele>89.06</ele>
        <time>2014-07-22T13:19:05Z</time>
      </trkpt>
      <trkpt lat="47.55852" lon="-0.71035">
        <ele>89.54</ele>
        <time>2014-07-22T13:19:10Z</time>
      </trkpt>
      <trkpt lat="47.55847" lon="-0.71071">
        <ele>91.46</ele>
        <time>2014-07-22T13:19:16Z</time>
      </trkpt>
      <trkpt lat="47.5584" lon="-0.71105">
        <ele>90.98</ele>
        <time>2014-07-22T13:19:22Z</time>
      </trkpt>
      <trkpt lat="47.55832" lon="-0.7114">
        <ele>91.94</ele>
        <time>2014-07-22T13:19:27Z</time>
      </trkpt>
      <trkpt lat="47.55831" lon="-0.71161">
        <ele>92.42</ele>
        <time>2014-07-22T13:19:33Z</time>
      </trkpt>
      <trkpt lat="47.55823" lon="-0.71186">
        <ele>93.39</ele>
        <time>2014-07-22T13:19:38Z</time>
      </trkpt>
      <trkpt lat="47.5582" lon="-0.71196">
        <ele>93.87</ele>
        <time>2014-07-22T13:19:40Z</time>
      </trkpt>
      <trkpt lat="47.55814" lon="-0.71229">
        <ele>94.83</ele>
        <time>2014-07-22T13:19:46Z</time>
      </trkpt>
      <trkpt lat="47.5581" lon="-0.71275">
        <ele>95.79</ele>
        <time>2014-07-22T13:19:54Z</time>
      </trkpt>
      <trkpt lat="47.55807" lon="-0.71301">
        <ele>96.75</ele>
        <time>2014-07-22T13:19:59Z</time>
      </trkpt>
      <trkpt lat="47.55806" lon="-0.71324">
        <ele>96.75</ele>
        <time>2014-07-22T13:20:04Z</time>
      </trkpt>
      <trkpt lat="47.55811" lon="-0.71342">
        <ele>97.23</ele>
        <time>2014-07-22T13:20:09Z</time>
      </trkpt>
      <trkpt lat="47.55821" lon="-0.71365">
        <ele>97.23</ele>
        <time>2014-07-22T13:20:15Z</time>
      </trkpt>
      <trkpt lat="47.55827" lon="-0.71394">
        <ele>98.19</ele>
        <time>2014-07-22T13:20:21Z</time>
      </trkpt>
      <trkpt lat="47.55832" lon="-0.71427">
        <ele>98.67</ele>
        <time>2014-07-22T13:20:27Z</time>
      </trkpt>
      <trkpt lat="47.55835" lon="-0.71437">
        <ele>99.15</ele>
        <time>2014-07-22T13:20:29Z</time>
      </trkpt>
      <trkpt lat="47.5584" lon="-0.71485">
        <ele>99.63</ele>
        <time>2014-07-22T13:20:37Z</time>
      </trkpt>
      <trkpt lat="47.55838" lon="-0.71534">
        <ele>99.63</ele>
        <time>2014-07-22T13:20:43Z</time>
      </trkpt>
      <trkpt lat="47.55835" lon="-0.71579">
        <ele>100.11</ele>
        <time>2014-07-22T13:20:49Z</time>
      </trkpt>
      <trkpt lat="47.55831" lon="-0.71629">
        <ele>100.11</ele>
        <time>2014-07-22T13:20:56Z</time>
      </trkpt>
      <trkpt lat="47.55828" lon="-0.71661">
        <ele>101.08</ele>
        <time>2014-07-22T13:21:01Z</time>
      </trkpt>
      <trkpt lat="47.55828" lon="-0.71703">
        <ele>101.08</ele>
        <time>2014-07-22T13:21:08Z</time>
      </trkpt>
      <trkpt lat="47.55822" lon="-0.71727">
        <ele>101.56</ele>
        <time>2014-07-22T13:21:13Z</time>
      </trkpt>
      <trkpt lat="47.55821" lon="-0.71728">
        <ele>101.56</ele>
        <time>2014-07-22T13:21:14Z</time>
      </trkpt>
      <trkpt lat="47.55808" lon="-0.71735">
        <ele>101.56</ele>
        <time>2014-07-22T13:21:17Z</time>
      </trkpt>
      <trkpt lat="47.55794" lon="-0.71771">
        <ele>102.52</ele>
        <time>2014-07-22T13:21:24Z</time>
      </trkpt>
      <trkpt lat="47.55804" lon="-0.71809">
        <ele>103</ele>
        <time>2014-07-22T13:21:30Z</time>
      </trkpt>
      <trkpt lat="47.5581" lon="-0.71845">
        <ele>103</ele>
        <time>2014-07-22T13:21:36Z</time>
      </trkpt>
      <trkpt lat="47.55816" lon="-0.7187">
        <ele>102.52</ele>
        <time>2014-07-22T13:21:40Z</time>
      </trkpt>
      <trkpt lat="47.55824" lon="-0.7189">
        <ele>103</ele>
        <time>2014-07-22T13:21:43Z</time>
      </trkpt>
      <trkpt lat="47.55834" lon="-0.71917">
        <ele>102.52</ele>
        <time>2014-07-22T13:21:47Z</time>
      </trkpt>
      <trkpt lat="47.55845" lon="-0.71956">
        <ele>103</ele>
        <time>2014-07-22T13:21:54Z</time>
      </trkpt>
      <trkpt lat="47.55863" lon="-0.71985">
        <ele>102.52</ele>
        <time>2014-07-22T13:22:01Z</time>
      </trkpt>
      <trkpt lat="47.55875" lon="-0.72021">
        <ele>102.52</ele>
        <time>2014-07-22T13:22:05Z</time>
      </trkpt>
      <trkpt lat="47.55885" lon="-0.72032">
        <ele>102.04</ele>
        <time>2014-07-22T13:22:09Z</time>
      </trkpt>
      <trkpt lat="47.55891" lon="-0.72058">
        <ele>102.04</ele>
        <time>2014-07-22T13:22:14Z</time>
      </trkpt>
      <trkpt lat="47.55891" lon="-0.7207">
        <ele>102.52</ele>
        <time>2014-07-22T13:22:16Z</time>
      </trkpt>
      <trkpt lat="47.55892" lon="-0.72097">
        <ele>103</ele>
        <time>2014-07-22T13:22:21Z</time>
      </trkpt>
      <trkpt lat="47.55906" lon="-0.72128">
        <ele>103</ele>
        <time>2014-07-22T13:22:26Z</time>
      </trkpt>
      <trkpt lat="47.55925" lon="-0.72184">
        <ele>103</ele>
        <time>2014-07-22T13:22:35Z</time>
      </trkpt>
      <trkpt lat="47.55929" lon="-0.72197">
        <ele>103</ele>
        <time>2014-07-22T13:22:37Z</time>
      </trkpt>
      <trkpt lat="47.55937" lon="-0.72231">
        <ele>103</ele>
        <time>2014-07-22T13:22:42Z</time>
      </trkpt>
      <trkpt lat="47.55946" lon="-0.7228">
        <ele>103.48</ele>
        <time>2014-07-22T13:22:49Z</time>
      </trkpt>
      <trkpt lat="47.55948" lon="-0.72291">
        <ele>103.48</ele>
        <time>2014-07-22T13:22:51Z</time>
      </trkpt>
      <trkpt lat="47.5596" lon="-0.72325">
        <ele>103.48</ele>
        <time>2014-07-22T13:22:55Z</time>
      </trkpt>
      <trkpt lat="47.55975" lon="-0.72366">
        <ele>103</ele>
        <time>2014-07-22T13:23:01Z</time>
      </trkpt>
      <trkpt lat="47.55992" lon="-0.72402">
        <ele>103</ele>
        <time>2014-07-22T13:23:07Z</time>
      </trkpt>
      <trkpt lat="47.55996" lon="-0.72412">
        <ele>103</ele>
        <time>2014-07-22T13:23:09Z</time>
      </trkpt>
      <trkpt lat="47.56005" lon="-0.72428">
        <ele>103</ele>
        <time>2014-07-22T13:23:12Z</time>
      </trkpt>
      <trkpt lat="47.56017" lon="-0.72458">
        <ele>103.48</ele>
        <time>2014-07-22T13:23:17Z</time>
      </trkpt>
      <trkpt lat="47.56032" lon="-0.72487">
        <ele>103</ele>
        <time>2014-07-22T13:23:21Z</time>
      </trkpt>
      <trkpt lat="47.56047" lon="-0.72538">
        <ele>103.48</ele>
        <time>2014-07-22T13:23:27Z</time>
      </trkpt>
      <trkpt lat="47.56059" lon="-0.72578">
        <ele>103</ele>
        <time>2014-07-22T13:23:32Z</time>
      </trkpt>
      <trkpt lat="47.56064" lon="-0.72594">
        <ele>103.48</ele>
        <time>2014-07-22T13:23:34Z</time>
      </trkpt>
      <trkpt lat="47.56067" lon="-0.72609">
        <ele>103.48</ele>
        <time>2014-07-22T13:23:36Z</time>
      </trkpt>
      <trkpt lat="47.56074" lon="-0.7265">
        <ele>103.48</ele>
        <time>2014-07-22T13:23:42Z</time>
      </trkpt>
      <trkpt lat="47.56085" lon="-0.72685">
        <ele>103.48</ele>
        <time>2014-07-22T13:23:47Z</time>
      </trkpt>
      <trkpt lat="47.56098" lon="-0.72749">
        <ele>103</ele>
        <time>2014-07-22T13:23:54Z</time>
      </trkpt>
      <trkpt lat="47.561" lon="-0.72758">
        <ele>103.48</ele>
        <time>2014-07-22T13:23:55Z</time>
      </trkpt>
      <trkpt lat="47.56106" lon="-0.72774">
        <ele>103</ele>
        <time>2014-07-22T13:23:57Z</time>
      </trkpt>
      <trkpt lat="47.56117" lon="-0.72821">
        <ele>103.48</ele>
        <time>2014-07-22T13:24:02Z</time>
      </trkpt>
      <trkpt lat="47.56122" lon="-0.72833">
        <ele>103</ele>
        <time>2014-07-22T13:24:04Z</time>
      </trkpt>
      <trkpt lat="47.56128" lon="-0.72839">
        <ele>103</ele>
        <time>2014-07-22T13:24:06Z</time>
      </trkpt>
      <trkpt lat="47.56141" lon="-0.72848">
        <ele>102.04</ele>
        <time>2014-07-22T13:24:12Z</time>
      </trkpt>
      <trkpt lat="47.56169" lon="-0.72837">
        <ele>101.08</ele>
        <time>2014-07-22T13:24:18Z</time>
      </trkpt>
      <trkpt lat="47.56187" lon="-0.72829">
        <ele>100.11</ele>
        <time>2014-07-22T13:24:22Z</time>
      </trkpt>
      <trkpt lat="47.56203" lon="-0.72838">
        <ele>100.11</ele>
        <time>2014-07-22T13:24:25Z</time>
      </trkpt>
      <trkpt lat="47.56224" lon="-0.72859">
        <ele>99.63</ele>
        <time>2014-07-22T13:24:31Z</time>
      </trkpt>
      <trkpt lat="47.56252" lon="-0.7289">
        <ele>99.15</ele>
        <time>2014-07-22T13:24:38Z</time>
      </trkpt>
      <trkpt lat="47.56271" lon="-0.72902">
        <ele>98.19</ele>
        <time>2014-07-22T13:24:43Z</time>
      </trkpt>
      <trkpt lat="47.56297" lon="-0.72924">
        <ele>98.19</ele>
        <time>2014-07-22T13:24:48Z</time>
      </trkpt>
      <trkpt lat="47.56306" lon="-0.72935">
        <ele>98.19</ele>
        <time>2014-07-22T13:24:50Z</time>
      </trkpt>
      <trkpt lat="47.56315" lon="-0.72955">
        <ele>98.19</ele>
        <time>2014-07-22T13:24:53Z</time>
      </trkpt>
      <trkpt lat="47.56324" lon="-0.72982">
        <ele>98.67</ele>
        <time>2014-07-22T13:24:57Z</time>
      </trkpt>
      <trkpt lat="47.56334" lon="-0.73015">
        <ele>98.67</ele>
        <time>2014-07-22T13:25:03Z</time>
      </trkpt>
      <trkpt lat="47.56344" lon="-0.73038">
        <ele>98.67</ele>
        <time>2014-07-22T13:25:07Z</time>
      </trkpt>
      <trkpt lat="47.56349" lon="-0.73053">
        <ele>98.19</ele>
        <time>2014-07-22T13:25:09Z</time>
      </trkpt>
      <trkpt lat="47.56356" lon="-0.73089">
        <ele>98.67</ele>
        <time>2014-07-22T13:25:14Z</time>
      </trkpt>
      <trkpt lat="47.56363" lon="-0.73108">
        <ele>98.19</ele>
        <time>2014-07-22T13:25:17Z</time>
      </trkpt>
      <trkpt lat="47.56375" lon="-0.73139">
        <ele>98.19</ele>
        <time>2014-07-22T13:25:21Z</time>
      </trkpt>
      <trkpt lat="47.56394" lon="-0.73177">
        <ele>97.71</ele>
        <time>2014-07-22T13:25:26Z</time>
      </trkpt>
      <trkpt lat="47.56413" lon="-0.732">
        <ele>96.27</ele>
        <time>2014-07-22T13:25:30Z</time>
      </trkpt>
      <trkpt lat="47.56431" lon="-0.7324">
        <ele>95.79</ele>
        <time>2014-07-22T13:25:37Z</time>
      </trkpt>
      <trkpt lat="47.56443" lon="-0.73265">
        <ele>94.83</ele>
        <time>2014-07-22T13:25:41Z</time>
      </trkpt>
      <trkpt lat="47.5646" lon="-0.73293">
        <ele>94.83</ele>
        <time>2014-07-22T13:25:45Z</time>
      </trkpt>
      <trkpt lat="47.56478" lon="-0.73332">
        <ele>94.35</ele>
        <time>2014-07-22T13:25:50Z</time>
      </trkpt>
      <trkpt lat="47.5648" lon="-0.73341">
        <ele>94.83</ele>
        <time>2014-07-22T13:25:51Z</time>
      </trkpt>
      <trkpt lat="47.56489" lon="-0.73395">
        <ele>95.31</ele>
        <time>2014-07-22T13:25:59Z</time>
      </trkpt>
      <trkpt lat="47.56499" lon="-0.73436">
        <ele>95.31</ele>
        <time>2014-07-22T13:26:04Z</time>
      </trkpt>
      <trkpt lat="47.56504" lon="-0.73453">
        <ele>95.31</ele>
        <time>2014-07-22T13:26:07Z</time>
      </trkpt>
      <trkpt lat="47.56521" lon="-0.73471">
        <ele>94.83</ele>
        <time>2014-07-22T13:26:13Z</time>
      </trkpt>
      <trkpt lat="47.56538" lon="-0.73511">
        <ele>94.83</ele>
        <time>2014-07-22T13:26:19Z</time>
      </trkpt>
      <trkpt lat="47.56543" lon="-0.73535">
        <ele>94.83</ele>
        <time>2014-07-22T13:26:22Z</time>
      </trkpt>
      <trkpt lat="47.56546" lon="-0.7355">
        <ele>94.83</ele>
        <time>2014-07-22T13:26:24Z</time>
      </trkpt>
      <trkpt lat="47.56549" lon="-0.73566">
        <ele>95.31</ele>
        <time>2014-07-22T13:26:26Z</time>
      </trkpt>
      <trkpt lat="47.56552" lon="-0.73605">
        <ele>95.79</ele>
        <time>2014-07-22T13:26:31Z</time>
      </trkpt>
      <trkpt lat="47.56563" lon="-0.73635">
        <ele>95.31</ele>
        <time>2014-07-22T13:26:36Z</time>
      </trkpt>
      <trkpt lat="47.56572" lon="-0.73659">
        <ele>96.27</ele>
        <time>2014-07-22T13:26:40Z</time>
      </trkpt>
      <trkpt lat="47.56581" lon="-0.73679">
        <ele>95.79</ele>
        <time>2014-07-22T13:26:43Z</time>
      </trkpt>
      <trkpt lat="47.56599" lon="-0.73717">
        <ele>95.31</ele>
        <time>2014-07-22T13:26:48Z</time>
      </trkpt>
      <trkpt lat="47.56603" lon="-0.73723">
        <ele>95.31</ele>
        <time>2014-07-22T13:26:49Z</time>
      </trkpt>
      <trkpt lat="47.56632" lon="-0.73763">
        <ele>94.83</ele>
        <time>2014-07-22T13:26:56Z</time>
      </trkpt>
      <trkpt lat="47.5664" lon="-0.73776">
        <ele>94.35</ele>
        <time>2014-07-22T13:26:58Z</time>
      </trkpt>
      <trkpt lat="47.56672" lon="-0.73822">
        <ele>93.87</ele>
        <time>2014-07-22T13:27:05Z</time>
      </trkpt>
      <trkpt lat="47.56692" lon="-0.73845">
        <ele>92.9</ele>
        <time>2014-07-22T13:27:09Z</time>
      </trkpt>
      <trkpt lat="47.56701" lon="-0.73857">
        <ele>92.42</ele>
        <time>2014-07-22T13:27:11Z</time>
      </trkpt>
      <trkpt lat="47.5671" lon="-0.73878">
        <ele>91.94</ele>
        <time>2014-07-22T13:27:15Z</time>
      </trkpt>
      <trkpt lat="47.5672" lon="-0.73896">
        <ele>91.94</ele>
        <time>2014-07-22T13:27:20Z</time>
      </trkpt>
      <trkpt lat="47.56735" lon="-0.73925">
        <ele>92.42</ele>
        <time>2014-07-22T13:27:27Z</time>
      </trkpt>
      <trkpt lat="47.56746" lon="-0.73951">
        <ele>93.39</ele>
        <time>2014-07-22T13:27:32Z</time>
      </trkpt>
      <trkpt lat="47.56756" lon="-0.73975">
        <ele>93.87</ele>
        <time>2014-07-22T13:27:36Z</time>
      </trkpt>
      <trkpt lat="47.56764" lon="-0.74">
        <ele>94.35</ele>
        <time>2014-07-22T13:27:40Z</time>
      </trkpt>
      <trkpt lat="47.56779" lon="-0.74031">
        <ele>93.87</ele>
        <time>2014-07-22T13:27:45Z</time>
      </trkpt>
      <trkpt lat="47.56779" lon="-0.74066">
        <ele>94.35</ele>
        <time>2014-07-22T13:27:50Z</time>
      </trkpt>
      <trkpt lat="47.56774" lon="-0.74076">
        <ele>94.35</ele>
        <time>2014-07-22T13:27:52Z</time>
      </trkpt>
      <trkpt lat="47.5677" lon="-0.74096">
        <ele>94.83</ele>
        <time>2014-07-22T13:27:55Z</time>
      </trkpt>
      <trkpt lat="47.56768" lon="-0.7411">
        <ele>94.83</ele>
        <time>2014-07-22T13:27:57Z</time>
      </trkpt>
      <trkpt lat="47.56755" lon="-0.74154">
        <ele>94.83</ele>
        <time>2014-07-22T13:28:04Z</time>
      </trkpt>
      <trkpt lat="47.56752" lon="-0.74188">
        <ele>94.83</ele>
        <time>2014-07-22T13:28:10Z</time>
      </trkpt>
      <trkpt lat="47.56753" lon="-0.74235">
        <ele>95.31</ele>
        <time>2014-07-22T13:28:17Z</time>
      </trkpt>
      <trkpt lat="47.56755" lon="-0.74274">
        <ele>95.31</ele>
        <time>2014-07-22T13:28:23Z</time>
      </trkpt>
      <trkpt lat="47.56761" lon="-0.74308">
        <ele>95.79</ele>
        <time>2014-07-22T13:28:29Z</time>
      </trkpt>
      <trkpt lat="47.56763" lon="-0.74327">
        <ele>96.27</ele>
        <time>2014-07-22T13:28:33Z</time>
      </trkpt>
      <trkpt lat="47.5678" lon="-0.74356">
        <ele>95.79</ele>
        <time>2014-07-22T13:28:39Z</time>
      </trkpt>
      <trkpt lat="47.56792" lon="-0.74368">
        <ele>95.79</ele>
        <time>2014-07-22T13:28:43Z</time>
      </trkpt>
      <trkpt lat="47.56812" lon="-0.74388">
        <ele>96.27</ele>
        <time>2014-07-22T13:28:48Z</time>
      </trkpt>
      <trkpt lat="47.56831" lon="-0.74409">
        <ele>95.79</ele>
        <time>2014-07-22T13:28:54Z</time>
      </trkpt>
      <trkpt lat="47.56847" lon="-0.74424">
        <ele>95.79</ele>
        <time>2014-07-22T13:28:59Z</time>
      </trkpt>
      <trkpt lat="47.56851" lon="-0.74433">
        <ele>95.79</ele>
        <time>2014-07-22T13:29:01Z</time>
      </trkpt>
      <trkpt lat="47.5685" lon="-0.74479">
        <ele>96.75</ele>
        <time>2014-07-22T13:29:08Z</time>
      </trkpt>
      <trkpt lat="47.56848" lon="-0.74491">
        <ele>97.23</ele>
        <time>2014-07-22T13:29:11Z</time>
      </trkpt>
      <trkpt lat="47.56856" lon="-0.74527">
        <ele>97.71</ele>
        <time>2014-07-22T13:29:18Z</time>
      </trkpt>
      <trkpt lat="47.56861" lon="-0.74558">
        <ele>97.23</ele>
        <time>2014-07-22T13:29:24Z</time>
      </trkpt>
      <trkpt lat="47.56867" lon="-0.7458">
        <ele>97.71</ele>
        <time>2014-07-22T13:29:29Z</time>
      </trkpt>
      <trkpt lat="47.56876" lon="-0.74601">
        <ele>97.71</ele>
        <time>2014-07-22T13:29:33Z</time>
      </trkpt>
      <trkpt lat="47.56884" lon="-0.74629">
        <ele>98.19</ele>
        <time>2014-07-22T13:29:39Z</time>
      </trkpt>
      <trkpt lat="47.56888" lon="-0.74664">
        <ele>97.71</ele>
        <time>2014-07-22T13:29:44Z</time>
      </trkpt>
      <trkpt lat="47.5689" lon="-0.74698">
        <ele>98.67</ele>
        <time>2014-07-22T13:29:50Z</time>
      </trkpt>
      <trkpt lat="47.56897" lon="-0.74737">
        <ele>98.67</ele>
        <time>2014-07-22T13:29:56Z</time>
      </trkpt>
      <trkpt lat="47.56899" lon="-0.74743">
        <ele>98.67</ele>
        <time>2014-07-22T13:29:57Z</time>
      </trkpt>
      <trkpt lat="47.56909" lon="-0.74781">
        <ele>98.19</ele>
        <time>2014-07-22T13:30:03Z</time>
      </trkpt>
      <trkpt lat="47.56915" lon="-0.74805">
        <ele>98.67</ele>
        <time>2014-07-22T13:30:07Z</time>
      </trkpt>
      <trkpt lat="47.56921" lon="-0.7484">
        <ele>98.67</ele>
        <time>2014-07-22T13:30:13Z</time>
      </trkpt>
      <trkpt lat="47.56929" lon="-0.74882">
        <ele>98.67</ele>
        <time>2014-07-22T13:30:20Z</time>
      </trkpt>
      <trkpt lat="47.5693" lon="-0.74888">
        <ele>98.67</ele>
        <time>2014-07-22T13:30:21Z</time>
      </trkpt>
      <trkpt lat="47.56938" lon="-0.74924">
        <ele>98.67</ele>
        <time>2014-07-22T13:30:27Z</time>
      </trkpt>
      <trkpt lat="47.56941" lon="-0.74941">
        <ele>98.19</ele>
        <time>2014-07-22T13:30:30Z</time>
      </trkpt>
      <trkpt lat="47.56953" lon="-0.74983">
        <ele>98.19</ele>
        <time>2014-07-22T13:30:37Z</time>
      </trkpt>
      <trkpt lat="47.56956" lon="-0.74989">
        <ele>98.19</ele>
        <time>2014-07-22T13:30:38Z</time>
      </trkpt>
      <trkpt lat="47.5696" lon="-0.75011">
        <ele>97.71</ele>
        <time>2014-07-22T13:30:41Z</time>
      </trkpt>
      <trkpt lat="47.56968" lon="-0.75045">
        <ele>96.75</ele>
        <time>2014-07-22T13:30:46Z</time>
      </trkpt>
      <trkpt lat="47.56971" lon="-0.75067">
        <ele>96.75</ele>
        <time>2014-07-22T13:30:49Z</time>
      </trkpt>
      <trkpt lat="47.56976" lon="-0.75098">
        <ele>96.27</ele>
        <time>2014-07-22T13:30:53Z</time>
      </trkpt>
      <trkpt lat="47.56981" lon="-0.75123">
        <ele>96.27</ele>
        <time>2014-07-22T13:30:56Z</time>
      </trkpt>
      <trkpt lat="47.56986" lon="-0.75152">
        <ele>95.79</ele>
        <time>2014-07-22T13:31:00Z</time>
      </trkpt>
      <trkpt lat="47.57001" lon="-0.75205">
        <ele>95.79</ele>
        <time>2014-07-22T13:31:08Z</time>
      </trkpt>
      <trkpt lat="47.57008" lon="-0.75235">
        <ele>96.27</ele>
        <time>2014-07-22T13:31:13Z</time>
      </trkpt>
      <trkpt lat="47.57016" lon="-0.75271">
        <ele>96.27</ele>
        <time>2014-07-22T13:31:19Z</time>
      </trkpt>
      <trkpt lat="47.57029" lon="-0.75304">
        <ele>95.31</ele>
        <time>2014-07-22T13:31:26Z</time>
      </trkpt>
      <trkpt lat="47.57034" lon="-0.75316">
        <ele>95.79</ele>
        <time>2014-07-22T13:31:32Z</time>
      </trkpt>
      <trkpt lat="47.57063" lon="-0.75301">
        <ele>95.31</ele>
        <time>2014-07-22T13:31:41Z</time>
      </trkpt>
      <trkpt lat="47.57086" lon="-0.75293">
        <ele>94.83</ele>
        <time>2014-07-22T13:31:47Z</time>
      </trkpt>
      <trkpt lat="47.57099" lon="-0.75285">
        <ele>94.83</ele>
        <time>2014-07-22T13:31:51Z</time>
      </trkpt>
      <trkpt lat="47.57115" lon="-0.75293">
        <ele>95.79</ele>
        <time>2014-07-22T13:31:56Z</time>
      </trkpt>
      <trkpt lat="47.57112" lon="-0.75291">
        <ele>94.83</ele>
        <time>2014-07-22T13:32:03Z</time>
      </trkpt>
      <trkpt lat="47.57098" lon="-0.75298">
        <ele>94.83</ele>
        <time>2014-07-22T13:32:09Z</time>
      </trkpt>
      <trkpt lat="47.57081" lon="-0.75299">
        <ele>95.79</ele>
        <time>2014-07-22T13:32:15Z</time>
      </trkpt>
      <trkpt lat="47.57063" lon="-0.75307">
        <ele>96.27</ele>
        <time>2014-07-22T13:32:21Z</time>
      </trkpt>
      <trkpt lat="47.57039" lon="-0.75318">
        <ele>96.75</ele>
        <time>2014-07-22T13:32:27Z</time>
      </trkpt>
      <trkpt lat="47.57025" lon="-0.75328">
        <ele>97.71</ele>
        <time>2014-07-22T13:32:32Z</time>
      </trkpt>
      <trkpt lat="47.57027" lon="-0.75348">
        <ele>97.23</ele>
        <time>2014-07-22T13:32:36Z</time>
      </trkpt>
      <trkpt lat="47.57032" lon="-0.75372">
        <ele>96.75</ele>
        <time>2014-07-22T13:32:41Z</time>
      </trkpt>
      <trkpt lat="47.57039" lon="-0.75399">
        <ele>97.23</ele>
        <time>2014-07-22T13:32:46Z</time>
      </trkpt>
      <trkpt lat="47.57045" lon="-0.75432">
        <ele>96.75</ele>
        <time>2014-07-22T13:32:51Z</time>
      </trkpt>
      <trkpt lat="47.57051" lon="-0.75469">
        <ele>96.27</ele>
        <time>2014-07-22T13:32:57Z</time>
      </trkpt>
      <trkpt lat="47.57058" lon="-0.75501">
        <ele>96.27</ele>
        <time>2014-07-22T13:33:02Z</time>
      </trkpt>
      <trkpt lat="47.5706" lon="-0.75513">
        <ele>95.79</ele>
        <time>2014-07-22T13:33:04Z</time>
      </trkpt>
      <trkpt lat="47.5706" lon="-0.75522">
        <ele>95.79</ele>
        <time>2014-07-22T13:33:05Z</time>
      </trkpt>
      <trkpt lat="47.57061" lon="-0.7555">
        <ele>95.31</ele>
        <time>2014-07-22T13:33:08Z</time>
      </trkpt>
      <trkpt lat="47.57064" lon="-0.75563">
        <ele>94.83</ele>
        <time>2014-07-22T13:33:10Z</time>
      </trkpt>
      <trkpt lat="47.57076" lon="-0.75608">
        <ele>94.83</ele>
        <time>2014-07-22T13:33:16Z</time>
      </trkpt>
      <trkpt lat="47.5709" lon="-0.7566">
        <ele>92.9</ele>
        <time>2014-07-22T13:33:23Z</time>
      </trkpt>
      <trkpt lat="47.57096" lon="-0.75676">
        <ele>92.42</ele>
        <time>2014-07-22T13:33:25Z</time>
      </trkpt>
      <trkpt lat="47.57109" lon="-0.75714">
        <ele>91.94</ele>
        <time>2014-07-22T13:33:31Z</time>
      </trkpt>
      <trkpt lat="47.57116" lon="-0.75752">
        <ele>92.9</ele>
        <time>2014-07-22T13:33:36Z</time>
      </trkpt>
      <trkpt lat="47.57117" lon="-0.75759">
        <ele>93.87</ele>
        <time>2014-07-22T13:33:37Z</time>
      </trkpt>
      <trkpt lat="47.57121" lon="-0.75796">
        <ele>93.87</ele>
        <time>2014-07-22T13:33:42Z</time>
      </trkpt>
      <trkpt lat="47.57128" lon="-0.75831">
        <ele>94.83</ele>
        <time>2014-07-22T13:33:47Z</time>
      </trkpt>
      <trkpt lat="47.57138" lon="-0.75868">
        <ele>95.31</ele>
        <time>2014-07-22T13:33:53Z</time>
      </trkpt>
      <trkpt lat="47.57147" lon="-0.75912">
        <ele>94.83</ele>
        <time>2014-07-22T13:33:59Z</time>
      </trkpt>
      <trkpt lat="47.57153" lon="-0.7593">
        <ele>95.31</ele>
        <time>2014-07-22T13:34:01Z</time>
      </trkpt>
      <trkpt lat="47.57148" lon="-0.75975">
        <ele>94.83</ele>
        <time>2014-07-22T13:34:08Z</time>
      </trkpt>
      <trkpt lat="47.57137" lon="-0.75994">
        <ele>95.31</ele>
        <time>2014-07-22T13:34:12Z</time>
      </trkpt>
      <trkpt lat="47.57127" lon="-0.76004">
        <ele>95.31</ele>
        <time>2014-07-22T13:34:15Z</time>
      </trkpt>
      <trkpt lat="47.57109" lon="-0.76016">
        <ele>95.79</ele>
        <time>2014-07-22T13:34:19Z</time>
      </trkpt>
      <trkpt lat="47.57096" lon="-0.76047">
        <ele>96.27</ele>
        <time>2014-07-22T13:34:25Z</time>
      </trkpt>
      <trkpt lat="47.57078" lon="-0.76073">
        <ele>96.27</ele>
        <time>2014-07-22T13:34:32Z</time>
      </trkpt>
      <trkpt lat="47.57062" lon="-0.76098">
        <ele>96.27</ele>
        <time>2014-07-22T13:34:37Z</time>
      </trkpt>
      <trkpt lat="47.57049" lon="-0.76118">
        <ele>96.27</ele>
        <time>2014-07-22T13:34:41Z</time>
      </trkpt>
      <trkpt lat="47.57025" lon="-0.76161">
        <ele>96.75</ele>
        <time>2014-07-22T13:34:49Z</time>
      </trkpt>
      <trkpt lat="47.57021" lon="-0.76167">
        <ele>96.27</ele>
        <time>2014-07-22T13:34:51Z</time>
      </trkpt>
      <trkpt lat="47.57006" lon="-0.76195">
        <ele>97.23</ele>
        <time>2014-07-22T13:34:58Z</time>
      </trkpt>
      <trkpt lat="47.57001" lon="-0.76206">
        <ele>97.23</ele>
        <time>2014-07-22T13:35:00Z</time>
      </trkpt>
      <trkpt lat="47.56978" lon="-0.76244">
        <ele>98.67</ele>
        <time>2014-07-22T13:35:07Z</time>
      </trkpt>
      <trkpt lat="47.56976" lon="-0.76248">
        <ele>98.67</ele>
        <time>2014-07-22T13:35:08Z</time>
      </trkpt>
      <trkpt lat="47.56959" lon="-0.7628">
        <ele>98.67</ele>
        <time>2014-07-22T13:35:14Z</time>
      </trkpt>
      <trkpt lat="47.56947" lon="-0.76302">
        <ele>98.67</ele>
        <time>2014-07-22T13:35:19Z</time>
      </trkpt>
      <trkpt lat="47.56943" lon="-0.76333">
        <ele>99.15</ele>
        <time>2014-07-22T13:35:24Z</time>
      </trkpt>
      <trkpt lat="47.56942" lon="-0.76339">
        <ele>99.15</ele>
        <time>2014-07-22T13:35:25Z</time>
      </trkpt>
      <trkpt lat="47.56939" lon="-0.76367">
        <ele>99.15</ele>
        <time>2014-07-22T13:35:29Z</time>
      </trkpt>
      <trkpt lat="47.56937" lon="-0.76395">
        <ele>98.67</ele>
        <time>2014-07-22T13:35:34Z</time>
      </trkpt>
      <trkpt lat="47.56934" lon="-0.76437">
        <ele>98.19</ele>
        <time>2014-07-22T13:35:40Z</time>
      </trkpt>
      <trkpt lat="47.56933" lon="-0.76447">
        <ele>98.19</ele>
        <time>2014-07-22T13:35:42Z</time>
      </trkpt>
      <trkpt lat="47.56933" lon="-0.76453">
        <ele>98.19</ele>
        <time>2014-07-22T13:35:43Z</time>
      </trkpt>
      <trkpt lat="47.5693" lon="-0.76474">
        <ele>98.67</ele>
        <time>2014-07-22T13:35:46Z</time>
      </trkpt>
      <trkpt lat="47.56924" lon="-0.76502">
        <ele>98.67</ele>
        <time>2014-07-22T13:35:49Z</time>
      </trkpt>
      <trkpt lat="47.56916" lon="-0.76547">
        <ele>99.15</ele>
        <time>2014-07-22T13:35:55Z</time>
      </trkpt>
      <trkpt lat="47.56905" lon="-0.76596">
        <ele>98.19</ele>
        <time>2014-07-22T13:36:01Z</time>
      </trkpt>
      <trkpt lat="47.56901" lon="-0.76618">
        <ele>98.67</ele>
        <time>2014-07-22T13:36:04Z</time>
      </trkpt>
      <trkpt lat="47.56894" lon="-0.76657">
        <ele>99.15</ele>
        <time>2014-07-22T13:36:10Z</time>
      </trkpt>
      <trkpt lat="47.56896" lon="-0.76664">
        <ele>99.15</ele>
        <time>2014-07-22T13:36:13Z</time>
      </trkpt>
      <trkpt lat="47.56929" lon="-0.76653">
        <ele>99.15</ele>
        <time>2014-07-22T13:36:21Z</time>
      </trkpt>
      <trkpt lat="47.56956" lon="-0.76653">
        <ele>99.15</ele>
        <time>2014-07-22T13:36:27Z</time>
      </trkpt>
      <trkpt lat="47.56983" lon="-0.76683">
        <ele>98.67</ele>
        <time>2014-07-22T13:36:34Z</time>
      </trkpt>
      <trkpt lat="47.56989" lon="-0.76695">
        <ele>99.15</ele>
        <time>2014-07-22T13:36:36Z</time>
      </trkpt>
      <trkpt lat="47.56999" lon="-0.76712">
        <ele>98.67</ele>
        <time>2014-07-22T13:36:39Z</time>
      </trkpt>
      <trkpt lat="47.57006" lon="-0.76725">
        <ele>98.67</ele>
        <time>2014-07-22T13:36:41Z</time>
      </trkpt>
      <trkpt lat="47.57012" lon="-0.76736">
        <ele>98.67</ele>
        <time>2014-07-22T13:36:43Z</time>
      </trkpt>
      <trkpt lat="47.57042" lon="-0.76796">
        <ele>98.67</ele>
        <time>2014-07-22T13:36:51Z</time>
      </trkpt>
      <trkpt lat="47.5707" lon="-0.76845">
        <ele>98.67</ele>
        <time>2014-07-22T13:36:59Z</time>
      </trkpt>
      <trkpt lat="47.57085" lon="-0.76871">
        <ele>98.19</ele>
        <time>2014-07-22T13:37:04Z</time>
      </trkpt>
      <trkpt lat="47.57103" lon="-0.76896">
        <ele>98.67</ele>
        <time>2014-07-22T13:37:09Z</time>
      </trkpt>
      <trkpt lat="47.5711" lon="-0.76905">
        <ele>98.19</ele>
        <time>2014-07-22T13:37:11Z</time>
      </trkpt>
      <trkpt lat="47.57117" lon="-0.76914">
        <ele>98.67</ele>
        <time>2014-07-22T13:37:13Z</time>
      </trkpt>
      <trkpt lat="47.57142" lon="-0.7695">
        <ele>98.67</ele>
        <time>2014-07-22T13:37:21Z</time>
      </trkpt>
      <trkpt lat="47.57146" lon="-0.76955">
        <ele>98.67</ele>
        <time>2014-07-22T13:37:22Z</time>
      </trkpt>
      <trkpt lat="47.57168" lon="-0.76987">
        <ele>98.67</ele>
        <time>2014-07-22T13:37:27Z</time>
      </trkpt>
      <trkpt lat="47.57184" lon="-0.77017">
        <ele>98.67</ele>
        <time>2014-07-22T13:37:31Z</time>
      </trkpt>
      <trkpt lat="47.57187" lon="-0.7706">
        <ele>98.19</ele>
        <time>2014-07-22T13:37:36Z</time>
      </trkpt>
      <trkpt lat="47.57186" lon="-0.77069">
        <ele>98.19</ele>
        <time>2014-07-22T13:37:37Z</time>
      </trkpt>
      <trkpt lat="47.57183" lon="-0.77088">
        <ele>98.19</ele>
        <time>2014-07-22T13:37:39Z</time>
      </trkpt>
      <trkpt lat="47.57169" lon="-0.77133">
        <ele>97.71</ele>
        <time>2014-07-22T13:37:44Z</time>
      </trkpt>
      <trkpt lat="47.57147" lon="-0.77201">
        <ele>94.83</ele>
        <time>2014-07-22T13:37:51Z</time>
      </trkpt>
      <trkpt lat="47.57138" lon="-0.7723">
        <ele>94.35</ele>
        <time>2014-07-22T13:37:55Z</time>
      </trkpt>
      <trkpt lat="47.5714" lon="-0.77238">
        <ele>94.35</ele>
        <time>2014-07-22T13:37:57Z</time>
      </trkpt>
      <trkpt lat="47.57155" lon="-0.77275">
        <ele>93.87</ele>
        <time>2014-07-22T13:38:03Z</time>
      </trkpt>
      <trkpt lat="47.57162" lon="-0.77293">
        <ele>94.35</ele>
        <time>2014-07-22T13:38:05Z</time>
      </trkpt>
      <trkpt lat="47.57174" lon="-0.77331">
        <ele>93.87</ele>
        <time>2014-07-22T13:38:09Z</time>
      </trkpt>
      <trkpt lat="47.57183" lon="-0.77365">
        <ele>93.39</ele>
        <time>2014-07-22T13:38:13Z</time>
      </trkpt>
      <trkpt lat="47.57196" lon="-0.77392">
        <ele>92.9</ele>
        <time>2014-07-22T13:38:17Z</time>
      </trkpt>
      <trkpt lat="47.57202" lon="-0.77407">
        <ele>92.42</ele>
        <time>2014-07-22T13:38:19Z</time>
      </trkpt>
      <trkpt lat="47.57215" lon="-0.77431">
        <ele>91.94</ele>
        <time>2014-07-22T13:38:24Z</time>
      </trkpt>
      <trkpt lat="47.5723" lon="-0.77454">
        <ele>92.42</ele>
        <time>2014-07-22T13:38:28Z</time>
      </trkpt>
      <trkpt lat="47.57245" lon="-0.77474">
        <ele>92.42</ele>
        <time>2014-07-22T13:38:32Z</time>
      </trkpt>
      <trkpt lat="47.57261" lon="-0.77504">
        <ele>92.9</ele>
        <time>2014-07-22T13:38:37Z</time>
      </trkpt>
      <trkpt lat="47.57273" lon="-0.77534">
        <ele>91.94</ele>
        <time>2014-07-22T13:38:41Z</time>
      </trkpt>
      <trkpt lat="47.5729" lon="-0.7757">
        <ele>91.46</ele>
        <time>2014-07-22T13:38:47Z</time>
      </trkpt>
      <trkpt lat="47.5731" lon="-0.77597">
        <ele>90.98</ele>
        <time>2014-07-22T13:38:52Z</time>
      </trkpt>
      <trkpt lat="47.57314" lon="-0.77608">
        <ele>90.5</ele>
        <time>2014-07-22T13:38:54Z</time>
      </trkpt>
      <trkpt lat="47.57323" lon="-0.77623">
        <ele>90.98</ele>
        <time>2014-07-22T13:38:58Z</time>
      </trkpt>
      <trkpt lat="47.57331" lon="-0.7763">
        <ele>90.5</ele>
        <time>2014-07-22T13:39:00Z</time>
      </trkpt>
      <trkpt lat="47.57353" lon="-0.77661">
        <ele>89.54</ele>
        <time>2014-07-22T13:39:06Z</time>
      </trkpt>
      <trkpt lat="47.57365" lon="-0.77685">
        <ele>90.02</ele>
        <time>2014-07-22T13:39:10Z</time>
      </trkpt>
      <trkpt lat="47.57383" lon="-0.77717">
        <ele>89.06</ele>
        <time>2014-07-22T13:39:16Z</time>
      </trkpt>
      <trkpt lat="47.57385" lon="-0.77725">
        <ele>91.94</ele>
        <time>2014-07-22T13:39:21Z</time>
      </trkpt>
      <trkpt lat="47.57385" lon="-0.77725">
        <ele>89.54</ele>
        <time>2014-07-22T13:39:23Z</time>
      </trkpt>
      <trkpt lat="47.57375" lon="-0.77728">
        <ele>90.02</ele>
        <time>2014-07-22T13:39:29Z</time>
      </trkpt>
      <trkpt lat="47.57369" lon="-0.77731">
        <ele>90.02</ele>
        <time>2014-07-22T13:39:31Z</time>
      </trkpt>
      <trkpt lat="47.57342" lon="-0.77741">
        <ele>91.46</ele>
        <time>2014-07-22T13:39:38Z</time>
      </trkpt>
      <trkpt lat="47.57315" lon="-0.77753">
        <ele>91.94</ele>
        <time>2014-07-22T13:39:45Z</time>
      </trkpt>
      <trkpt lat="47.57291" lon="-0.77765">
        <ele>92.42</ele>
        <time>2014-07-22T13:39:51Z</time>
      </trkpt>
      <trkpt lat="47.57258" lon="-0.77781">
        <ele>92.9</ele>
        <time>2014-07-22T13:39:59Z</time>
      </trkpt>
      <trkpt lat="47.57243" lon="-0.77788">
        <ele>93.87</ele>
        <time>2014-07-22T13:40:02Z</time>
      </trkpt>
      <trkpt lat="47.57233" lon="-0.77794">
        <ele>93.87</ele>
        <time>2014-07-22T13:40:04Z</time>
      </trkpt>
      <trkpt lat="47.57211" lon="-0.77802">
        <ele>93.87</ele>
        <time>2014-07-22T13:40:08Z</time>
      </trkpt>
      <trkpt lat="47.57191" lon="-0.7781">
        <ele>94.35</ele>
        <time>2014-07-22T13:40:12Z</time>
      </trkpt>
      <trkpt lat="47.57161" lon="-0.77822">
        <ele>94.83</ele>
        <time>2014-07-22T13:40:19Z</time>
      </trkpt>
      <trkpt lat="47.57154" lon="-0.77826">
        <ele>95.31</ele>
        <time>2014-07-22T13:40:21Z</time>
      </trkpt>
      <trkpt lat="47.57148" lon="-0.77846">
        <ele>95.79</ele>
        <time>2014-07-22T13:40:25Z</time>
      </trkpt>
      <trkpt lat="47.57151" lon="-0.77865">
        <ele>95.31</ele>
        <time>2014-07-22T13:40:28Z</time>
      </trkpt>
      <trkpt lat="47.5716" lon="-0.77924">
        <ele>95.31</ele>
        <time>2014-07-22T13:40:36Z</time>
      </trkpt>
      <trkpt lat="47.57174" lon="-0.77983">
        <ele>94.35</ele>
        <time>2014-07-22T13:40:43Z</time>
      </trkpt>
      <trkpt lat="47.57182" lon="-0.7802">
        <ele>93.87</ele>
        <time>2014-07-22T13:40:47Z</time>
      </trkpt>
      <trkpt lat="47.57186" lon="-0.78038">
        <ele>93.39</ele>
        <time>2014-07-22T13:40:49Z</time>
      </trkpt>
      <trkpt lat="47.57199" lon="-0.78077">
        <ele>93.39</ele>
        <time>2014-07-22T13:40:53Z</time>
      </trkpt>
      <trkpt lat="47.57221" lon="-0.78158">
        <ele>92.9</ele>
        <time>2014-07-22T13:41:01Z</time>
      </trkpt>
      <trkpt lat="47.57231" lon="-0.78213">
        <ele>91.46</ele>
        <time>2014-07-22T13:41:06Z</time>
      </trkpt>
      <trkpt lat="47.57239" lon="-0.7826">
        <ele>91.94</ele>
        <time>2014-07-22T13:41:10Z</time>
      </trkpt>
      <trkpt lat="47.57254" lon="-0.78333">
        <ele>91.46</ele>
        <time>2014-07-22T13:41:17Z</time>
      </trkpt>
      <trkpt lat="47.57259" lon="-0.78355">
        <ele>90.98</ele>
        <time>2014-07-22T13:41:19Z</time>
      </trkpt>
      <trkpt lat="47.57274" lon="-0.78439">
        <ele>90.98</ele>
        <time>2014-07-22T13:41:27Z</time>
      </trkpt>
      <trkpt lat="47.57281" lon="-0.78478">
        <ele>90.98</ele>
        <time>2014-07-22T13:41:31Z</time>
      </trkpt>
      <trkpt lat="47.57285" lon="-0.78508">
        <ele>90.98</ele>
        <time>2014-07-22T13:41:35Z</time>
      </trkpt>
      <trkpt lat="47.57273" lon="-0.7853">
        <ele>91.46</ele>
        <time>2014-07-22T13:41:39Z</time>
      </trkpt>
      <trkpt lat="47.57264" lon="-0.78534">
        <ele>91.46</ele>
        <time>2014-07-22T13:41:41Z</time>
      </trkpt>
      <trkpt lat="47.57227" lon="-0.78544">
        <ele>92.9</ele>
        <time>2014-07-22T13:41:49Z</time>
      </trkpt>
      <trkpt lat="47.57193" lon="-0.78555">
        <ele>93.87</ele>
        <time>2014-07-22T13:41:56Z</time>
      </trkpt>
      <trkpt lat="47.57184" lon="-0.78559">
        <ele>93.87</ele>
        <time>2014-07-22T13:41:58Z</time>
      </trkpt>
      <trkpt lat="47.57164" lon="-0.78566">
        <ele>93.87</ele>
        <time>2014-07-22T13:42:02Z</time>
      </trkpt>
      <trkpt lat="47.5715" lon="-0.78572">
        <ele>94.83</ele>
        <time>2014-07-22T13:42:05Z</time>
      </trkpt>
      <trkpt lat="47.57129" lon="-0.78574">
        <ele>95.31</ele>
        <time>2014-07-22T13:42:10Z</time>
      </trkpt>
      <trkpt lat="47.57114" lon="-0.78576">
        <ele>94.83</ele>
        <time>2014-07-22T13:42:13Z</time>
      </trkpt>
      <trkpt lat="47.57096" lon="-0.78578">
        <ele>93.87</ele>
        <time>2014-07-22T13:42:18Z</time>
      </trkpt>
      <trkpt lat="47.57087" lon="-0.78592">
        <ele>94.83</ele>
        <time>2014-07-22T13:42:24Z</time>
      </trkpt>
      <trkpt lat="47.57086" lon="-0.78594">
        <ele>94.35</ele>
        <time>2014-07-22T13:42:25Z</time>
      </trkpt>
      <trkpt lat="47.57085" lon="-0.78598">
        <ele>94.35</ele>
        <time>2014-07-22T13:42:32Z</time>
      </trkpt>
      <trkpt lat="47.57085" lon="-0.78598">
        <ele>94.35</ele>
        <time>2014-07-22T13:42:49Z</time>
      </trkpt>
      <trkpt lat="47.57085" lon="-0.78598">
        <ele>94.83</ele>
        <time>2014-07-22T13:42:57Z</time>
      </trkpt>
      <trkpt lat="47.57085" lon="-0.78598">
        <ele>95.31</ele>
        <time>2014-07-22T13:43:13Z</time>
      </trkpt>
      <trkpt lat="47.57085" lon="-0.78598">
        <ele>87.14</ele>
        <time>2014-07-22T13:43:26Z</time>
      </trkpt>
      <trkpt lat="47.57085" lon="-0.78598">
        <ele>95.79</ele>
        <time>2014-07-22T13:43:27Z</time>
      </trkpt>
      <trkpt lat="47.57085" lon="-0.78599">
        <ele>95.31</ele>
        <time>2014-07-22T13:43:43Z</time>
      </trkpt>
      <trkpt lat="47.57085" lon="-0.78599">
        <ele>94.83</ele>
        <time>2014-07-22T13:43:56Z</time>
      </trkpt>
      <trkpt lat="47.57084" lon="-0.78598">
        <ele>95.31</ele>
        <time>2014-07-22T13:44:02Z</time>
      </trkpt>
      <trkpt lat="47.57084" lon="-0.78598">
        <ele>94.83</ele>
        <time>2014-07-22T13:44:13Z</time>
      </trkpt>
      <trkpt lat="47.57084" lon="-0.78598">
        <ele>95.31</ele>
        <time>2014-07-22T13:44:27Z</time>
      </trkpt>
      <trkpt lat="47.57084" lon="-0.78598">
        <ele>95.31</ele>
        <time>2014-07-22T13:44:43Z</time>
      </trkpt>
      <trkpt lat="47.57084" lon="-0.78598">
        <ele>95.31</ele>
        <time>2014-07-22T13:45:00Z</time>
      </trkpt>
      <trkpt lat="47.57084" lon="-0.78598">
        <ele>95.31</ele>
        <time>2014-07-22T13:45:13Z</time>
      </trkpt>
      <trkpt lat="47.57084" lon="-0.78598">
        <ele>95.31</ele>
        <time>2014-07-22T13:45:29Z</time>
      </trkpt>
      <trkpt lat="47.57084" lon="-0.78597">
        <ele>95.31</ele>
        <time>2014-07-22T13:45:40Z</time>
      </trkpt>
      <trkpt lat="47.57084" lon="-0.78597">
        <ele>95.31</ele>
        <time>2014-07-22T13:45:54Z</time>
      </trkpt>
      <trkpt lat="47.57084" lon="-0.78597">
        <ele>95.31</ele>
        <time>2014-07-22T13:46:10Z</time>
      </trkpt>
      <trkpt lat="47.57084" lon="-0.78596">
        <ele>95.31</ele>
        <time>2014-07-22T13:46:18Z</time>
      </trkpt>
      <trkpt lat="47.57088" lon="-0.78587">
        <ele>95.31</ele>
        <time>2014-07-22T13:46:22Z</time>
      </trkpt>
      <trkpt lat="47.57092" lon="-0.78579">
        <ele>95.79</ele>
        <time>2014-07-22T13:46:25Z</time>
      </trkpt>
      <trkpt lat="47.57082" lon="-0.78568">
        <ele>95.79</ele>
        <time>2014-07-22T13:46:31Z</time>
      </trkpt>
      <trkpt lat="47.57071" lon="-0.78556">
        <ele>96.27</ele>
        <time>2014-07-22T13:46:36Z</time>
      </trkpt>
      <trkpt lat="47.57057" lon="-0.78525">
        <ele>96.75</ele>
        <time>2014-07-22T13:46:42Z</time>
      </trkpt>
      <trkpt lat="47.57051" lon="-0.78492">
        <ele>97.23</ele>
        <time>2014-07-22T13:46:48Z</time>
      </trkpt>
      <trkpt lat="47.57043" lon="-0.78455">
        <ele>96.75</ele>
        <time>2014-07-22T13:46:54Z</time>
      </trkpt>
      <trkpt lat="47.57035" lon="-0.78411">
        <ele>97.23</ele>
        <time>2014-07-22T13:47:01Z</time>
      </trkpt>
      <trkpt lat="47.57029" lon="-0.78379">
        <ele>97.71</ele>
        <time>2014-07-22T13:47:07Z</time>
      </trkpt>
      <trkpt lat="47.57023" lon="-0.78341">
        <ele>97.71</ele>
        <time>2014-07-22T13:47:13Z</time>
      </trkpt>
      <trkpt lat="47.57017" lon="-0.78307">
        <ele>98.19</ele>
        <time>2014-07-22T13:47:19Z</time>
      </trkpt>
      <trkpt lat="47.57009" lon="-0.7827">
        <ele>99.15</ele>
        <time>2014-07-22T13:47:25Z</time>
      </trkpt>
      <trkpt lat="47.57001" lon="-0.78233">
        <ele>99.63</ele>
        <time>2014-07-22T13:47:31Z</time>
      </trkpt>
      <trkpt lat="47.56997" lon="-0.78206">
        <ele>100.11</ele>
        <time>2014-07-22T13:47:36Z</time>
      </trkpt>
      <trkpt lat="47.56988" lon="-0.78163">
        <ele>100.6</ele>
        <time>2014-07-22T13:47:43Z</time>
      </trkpt>
      <trkpt lat="47.56981" lon="-0.78129">
        <ele>100.6</ele>
        <time>2014-07-22T13:47:49Z</time>
      </trkpt>
      <trkpt lat="47.56974" lon="-0.78094">
        <ele>101.08</ele>
        <time>2014-07-22T13:47:55Z</time>
      </trkpt>
      <trkpt lat="47.56968" lon="-0.78066">
        <ele>101.56</ele>
        <time>2014-07-22T13:48:00Z</time>
      </trkpt>
      <trkpt lat="47.56962" lon="-0.78023">
        <ele>102.04</ele>
        <time>2014-07-22T13:48:05Z</time>
      </trkpt>
      <trkpt lat="47.5695" lon="-0.77974">
        <ele>101.56</ele>
        <time>2014-07-22T13:48:12Z</time>
      </trkpt>
      <trkpt lat="47.56945" lon="-0.77957">
        <ele>101.56</ele>
        <time>2014-07-22T13:48:16Z</time>
      </trkpt>
      <trkpt lat="47.56921" lon="-0.77937">
        <ele>100.6</ele>
        <time>2014-07-22T13:48:23Z</time>
      </trkpt>
      <trkpt lat="47.56903" lon="-0.77941">
        <ele>100.6</ele>
        <time>2014-07-22T13:48:28Z</time>
      </trkpt>
      <trkpt lat="47.56875" lon="-0.7795">
        <ele>100.6</ele>
        <time>2014-07-22T13:48:33Z</time>
      </trkpt>
      <trkpt lat="47.5687" lon="-0.77952">
        <ele>100.11</ele>
        <time>2014-07-22T13:48:34Z</time>
      </trkpt>
      <trkpt lat="47.56845" lon="-0.77967">
        <ele>100.11</ele>
        <time>2014-07-22T13:48:39Z</time>
      </trkpt>
      <trkpt lat="47.56838" lon="-0.7797">
        <ele>100.11</ele>
        <time>2014-07-22T13:48:40Z</time>
      </trkpt>
      <trkpt lat="47.568" lon="-0.77985">
        <ele>100.11</ele>
        <time>2014-07-22T13:48:46Z</time>
      </trkpt>
      <trkpt lat="47.56759" lon="-0.77999">
        <ele>98.67</ele>
        <time>2014-07-22T13:48:53Z</time>
      </trkpt>
      <trkpt lat="47.56752" lon="-0.78001">
        <ele>97.71</ele>
        <time>2014-07-22T13:48:55Z</time>
      </trkpt>
      <trkpt lat="47.56742" lon="-0.77994">
        <ele>97.23</ele>
        <time>2014-07-22T13:49:01Z</time>
      </trkpt>
      <trkpt lat="47.56741" lon="-0.77993">
        <ele>96.75</ele>
        <time>2014-07-22T13:49:02Z</time>
      </trkpt>
      <trkpt lat="47.56737" lon="-0.77994">
        <ele>96.75</ele>
        <time>2014-07-22T13:49:04Z</time>
      </trkpt>
      <trkpt lat="47.56734" lon="-0.77991">
        <ele>97.71</ele>
        <time>2014-07-22T13:49:06Z</time>
      </trkpt>
      <trkpt lat="47.56725" lon="-0.77968">
        <ele>98.19</ele>
        <time>2014-07-22T13:49:12Z</time>
      </trkpt>
      <trkpt lat="47.56712" lon="-0.77935">
        <ele>98.19</ele>
        <time>2014-07-22T13:49:17Z</time>
      </trkpt>
      <trkpt lat="47.56708" lon="-0.77924">
        <ele>98.19</ele>
        <time>2014-07-22T13:49:19Z</time>
      </trkpt>
      <trkpt lat="47.56693" lon="-0.77891">
        <ele>98.19</ele>
        <time>2014-07-22T13:49:25Z</time>
      </trkpt>
      <trkpt lat="47.56686" lon="-0.77868">
        <ele>98.67</ele>
        <time>2014-07-22T13:49:29Z</time>
      </trkpt>
      <trkpt lat="47.56675" lon="-0.7784">
        <ele>98.67</ele>
        <time>2014-07-22T13:49:33Z</time>
      </trkpt>
      <trkpt lat="47.56661" lon="-0.77801">
        <ele>98.67</ele>
        <time>2014-07-22T13:49:39Z</time>
      </trkpt>
      <trkpt lat="47.56646" lon="-0.7776">
        <ele>98.67</ele>
        <time>2014-07-22T13:49:46Z</time>
      </trkpt>
      <trkpt lat="47.56639" lon="-0.7774">
        <ele>98.67</ele>
        <time>2014-07-22T13:49:50Z</time>
      </trkpt>
      <trkpt lat="47.56634" lon="-0.77715">
        <ele>98.67</ele>
        <time>2014-07-22T13:49:53Z</time>
      </trkpt>
      <trkpt lat="47.56622" lon="-0.77657">
        <ele>99.15</ele>
        <time>2014-07-22T13:50:01Z</time>
      </trkpt>
      <trkpt lat="47.56618" lon="-0.77624">
        <ele>99.15</ele>
        <time>2014-07-22T13:50:07Z</time>
      </trkpt>
      <trkpt lat="47.56615" lon="-0.77593">
        <ele>99.63</ele>
        <time>2014-07-22T13:50:12Z</time>
      </trkpt>
      <trkpt lat="47.56616" lon="-0.77554">
        <ele>100.11</ele>
        <time>2014-07-22T13:50:19Z</time>
      </trkpt>
      <trkpt lat="47.5661" lon="-0.77517">
        <ele>100.11</ele>
        <time>2014-07-22T13:50:25Z</time>
      </trkpt>
      <trkpt lat="47.56607" lon="-0.7751">
        <ele>100.6</ele>
        <time>2014-07-22T13:50:26Z</time>
      </trkpt>
      <trkpt lat="47.56596" lon="-0.77482">
        <ele>100.11</ele>
        <time>2014-07-22T13:50:30Z</time>
      </trkpt>
      <trkpt lat="47.56588" lon="-0.77462">
        <ele>100.6</ele>
        <time>2014-07-22T13:50:33Z</time>
      </trkpt>
      <trkpt lat="47.56566" lon="-0.77417">
        <ele>100.6</ele>
        <time>2014-07-22T13:50:40Z</time>
      </trkpt>
      <trkpt lat="47.56563" lon="-0.7741">
        <ele>100.6</ele>
        <time>2014-07-22T13:50:41Z</time>
      </trkpt>
      <trkpt lat="47.56557" lon="-0.77395">
        <ele>100.11</ele>
        <time>2014-07-22T13:50:43Z</time>
      </trkpt>
      <trkpt lat="47.56541" lon="-0.77353">
        <ele>100.11</ele>
        <time>2014-07-22T13:50:49Z</time>
      </trkpt>
      <trkpt lat="47.56538" lon="-0.7734">
        <ele>100.6</ele>
        <time>2014-07-22T13:50:51Z</time>
      </trkpt>
      <trkpt lat="47.56533" lon="-0.77303">
        <ele>100.6</ele>
        <time>2014-07-22T13:50:57Z</time>
      </trkpt>
      <trkpt lat="47.56528" lon="-0.77263">
        <ele>100.6</ele>
        <time>2014-07-22T13:51:03Z</time>
      </trkpt>
      <trkpt lat="47.56525" lon="-0.77228">
        <ele>101.08</ele>
        <time>2014-07-22T13:51:09Z</time>
      </trkpt>
      <trkpt lat="47.56524" lon="-0.77221">
        <ele>101.08</ele>
        <time>2014-07-22T13:51:10Z</time>
      </trkpt>
      <trkpt lat="47.56514" lon="-0.7718">
        <ele>101.08</ele>
        <time>2014-07-22T13:51:16Z</time>
      </trkpt>
      <trkpt lat="47.56505" lon="-0.77155">
        <ele>101.08</ele>
        <time>2014-07-22T13:51:19Z</time>
      </trkpt>
      <trkpt lat="47.56491" lon="-0.77097">
        <ele>101.08</ele>
        <time>2014-07-22T13:51:26Z</time>
      </trkpt>
      <trkpt lat="47.56486" lon="-0.77074">
        <ele>101.56</ele>
        <time>2014-07-22T13:51:30Z</time>
      </trkpt>
      <trkpt lat="47.56486" lon="-0.77064">
        <ele>101.56</ele>
        <time>2014-07-22T13:51:32Z</time>
      </trkpt>
      <trkpt lat="47.56481" lon="-0.77027">
        <ele>101.56</ele>
        <time>2014-07-22T13:51:38Z</time>
      </trkpt>
      <trkpt lat="47.56477" lon="-0.76996">
        <ele>101.56</ele>
        <time>2014-07-22T13:51:43Z</time>
      </trkpt>
      <trkpt lat="47.56473" lon="-0.76949">
        <ele>102.04</ele>
        <time>2014-07-22T13:51:51Z</time>
      </trkpt>
      <trkpt lat="47.56465" lon="-0.769">
        <ele>102.52</ele>
        <time>2014-07-22T13:51:58Z</time>
      </trkpt>
      <trkpt lat="47.56462" lon="-0.76883">
        <ele>102.52</ele>
        <time>2014-07-22T13:52:00Z</time>
      </trkpt>
      <trkpt lat="47.56448" lon="-0.76824">
        <ele>102.52</ele>
        <time>2014-07-22T13:52:07Z</time>
      </trkpt>
      <trkpt lat="47.56437" lon="-0.76779">
        <ele>103.48</ele>
        <time>2014-07-22T13:52:13Z</time>
      </trkpt>
      <trkpt lat="47.5642" lon="-0.7673">
        <ele>103.48</ele>
        <time>2014-07-22T13:52:18Z</time>
      </trkpt>
      <trkpt lat="47.56405" lon="-0.76656">
        <ele>103.96</ele>
        <time>2014-07-22T13:52:27Z</time>
      </trkpt>
      <trkpt lat="47.56395" lon="-0.76615">
        <ele>103.96</ele>
        <time>2014-07-22T13:52:32Z</time>
      </trkpt>
      <trkpt lat="47.56386" lon="-0.76578">
        <ele>103.96</ele>
        <time>2014-07-22T13:52:37Z</time>
      </trkpt>
      <trkpt lat="47.56372" lon="-0.76513">
        <ele>104.92</ele>
        <time>2014-07-22T13:52:46Z</time>
      </trkpt>
      <trkpt lat="47.5636" lon="-0.76453">
        <ele>104.44</ele>
        <time>2014-07-22T13:52:54Z</time>
      </trkpt>
      <trkpt lat="47.5635" lon="-0.76402">
        <ele>104.92</ele>
        <time>2014-07-22T13:53:01Z</time>
      </trkpt>
      <trkpt lat="47.56335" lon="-0.76327">
        <ele>105.4</ele>
        <time>2014-07-22T13:53:10Z</time>
      </trkpt>
      <trkpt lat="47.56327" lon="-0.76289">
        <ele>105.4</ele>
        <time>2014-07-22T13:53:15Z</time>
      </trkpt>
      <trkpt lat="47.56313" lon="-0.7622">
        <ele>105.4</ele>
        <time>2014-07-22T13:53:24Z</time>
      </trkpt>
      <trkpt lat="47.56303" lon="-0.76173">
        <ele>105.4</ele>
        <time>2014-07-22T13:53:30Z</time>
      </trkpt>
      <trkpt lat="47.56296" lon="-0.76144">
        <ele>104.44</ele>
        <time>2014-07-22T13:53:34Z</time>
      </trkpt>
      <trkpt lat="47.5629" lon="-0.76111">
        <ele>105.4</ele>
        <time>2014-07-22T13:53:38Z</time>
      </trkpt>
      <trkpt lat="47.56279" lon="-0.76062">
        <ele>105.4</ele>
        <time>2014-07-22T13:53:44Z</time>
      </trkpt>
      <trkpt lat="47.56263" lon="-0.75983">
        <ele>105.4</ele>
        <time>2014-07-22T13:53:53Z</time>
      </trkpt>
      <trkpt lat="47.56259" lon="-0.75963">
        <ele>105.88</ele>
        <time>2014-07-22T13:53:55Z</time>
      </trkpt>
      <trkpt lat="47.56248" lon="-0.75904">
        <ele>104.92</ele>
        <time>2014-07-22T13:54:01Z</time>
      </trkpt>
      <trkpt lat="47.56232" lon="-0.75818">
        <ele>105.4</ele>
        <time>2014-07-22T13:54:10Z</time>
      </trkpt>
      <trkpt lat="47.56216" lon="-0.75735">
        <ele>105.88</ele>
        <time>2014-07-22T13:54:19Z</time>
      </trkpt>
      <trkpt lat="47.56207" lon="-0.75682">
        <ele>105.88</ele>
        <time>2014-07-22T13:54:25Z</time>
      </trkpt>
      <trkpt lat="47.56201" lon="-0.75658">
        <ele>105.88</ele>
        <time>2014-07-22T13:54:28Z</time>
      </trkpt>
      <trkpt lat="47.56191" lon="-0.756">
        <ele>104.92</ele>
        <time>2014-07-22T13:54:35Z</time>
      </trkpt>
      <trkpt lat="47.56188" lon="-0.75587">
        <ele>104.92</ele>
        <time>2014-07-22T13:54:37Z</time>
      </trkpt>
      <trkpt lat="47.56181" lon="-0.75542">
        <ele>105.4</ele>
        <time>2014-07-22T13:54:43Z</time>
      </trkpt>
      <trkpt lat="47.56171" lon="-0.75487">
        <ele>105.4</ele>
        <time>2014-07-22T13:54:50Z</time>
      </trkpt>
      <trkpt lat="47.56168" lon="-0.75471">
        <ele>105.88</ele>
        <time>2014-07-22T13:54:52Z</time>
      </trkpt>
      <trkpt lat="47.56164" lon="-0.7545">
        <ele>105.88</ele>
        <time>2014-07-22T13:54:55Z</time>
      </trkpt>
      <trkpt lat="47.56158" lon="-0.75418">
        <ele>105.88</ele>
        <time>2014-07-22T13:54:59Z</time>
      </trkpt>
      <trkpt lat="47.56149" lon="-0.7537">
        <ele>105.88</ele>
        <time>2014-07-22T13:55:06Z</time>
      </trkpt>
      <trkpt lat="47.56143" lon="-0.75337">
        <ele>105.88</ele>
        <time>2014-07-22T13:55:11Z</time>
      </trkpt>
      <trkpt lat="47.56135" lon="-0.75286">
        <ele>106.36</ele>
        <time>2014-07-22T13:55:17Z</time>
      </trkpt>
      <trkpt lat="47.5613" lon="-0.75253">
        <ele>105.88</ele>
        <time>2014-07-22T13:55:21Z</time>
      </trkpt>
      <trkpt lat="47.56113" lon="-0.75229">
        <ele>104.92</ele>
        <time>2014-07-22T13:55:25Z</time>
      </trkpt>
      <trkpt lat="47.56108" lon="-0.75229">
        <ele>104.92</ele>
        <time>2014-07-22T13:55:26Z</time>
      </trkpt>
      <trkpt lat="47.56082" lon="-0.75231">
        <ele>104.92</ele>
        <time>2014-07-22T13:55:31Z</time>
      </trkpt>
      <trkpt lat="47.56067" lon="-0.75218">
        <ele>105.4</ele>
        <time>2014-07-22T13:55:35Z</time>
      </trkpt>
      <trkpt lat="47.56067" lon="-0.75206">
        <ele>105.4</ele>
        <time>2014-07-22T13:55:37Z</time>
      </trkpt>
      <trkpt lat="47.56078" lon="-0.75154">
        <ele>103.96</ele>
        <time>2014-07-22T13:55:44Z</time>
      </trkpt>
      <trkpt lat="47.56082" lon="-0.75137">
        <ele>104.44</ele>
        <time>2014-07-22T13:55:46Z</time>
      </trkpt>
      <trkpt lat="47.56089" lon="-0.75106">
        <ele>103.48</ele>
        <time>2014-07-22T13:55:50Z</time>
      </trkpt>
      <trkpt lat="47.56094" lon="-0.7509">
        <ele>103.48</ele>
        <time>2014-07-22T13:55:52Z</time>
      </trkpt>
      <trkpt lat="47.56107" lon="-0.75038">
        <ele>103</ele>
        <time>2014-07-22T13:55:58Z</time>
      </trkpt>
      <trkpt lat="47.56116" lon="-0.74992">
        <ele>102.52</ele>
        <time>2014-07-22T13:56:03Z</time>
      </trkpt>
      <trkpt lat="47.56126" lon="-0.74956">
        <ele>101.56</ele>
        <time>2014-07-22T13:56:07Z</time>
      </trkpt>
      <trkpt lat="47.56134" lon="-0.7493">
        <ele>102.04</ele>
        <time>2014-07-22T13:56:10Z</time>
      </trkpt>
      <trkpt lat="47.56147" lon="-0.74882">
        <ele>102.04</ele>
        <time>2014-07-22T13:56:17Z</time>
      </trkpt>
      <trkpt lat="47.56152" lon="-0.74858">
        <ele>101.56</ele>
        <time>2014-07-22T13:56:21Z</time>
      </trkpt>
      <trkpt lat="47.56169" lon="-0.74815">
        <ele>102.04</ele>
        <time>2014-07-22T13:56:28Z</time>
      </trkpt>
      <trkpt lat="47.56178" lon="-0.74783">
        <ele>102.04</ele>
        <time>2014-07-22T13:56:35Z</time>
      </trkpt>
      <trkpt lat="47.56183" lon="-0.74758">
        <ele>102.52</ele>
        <time>2014-07-22T13:56:42Z</time>
      </trkpt>
      <trkpt lat="47.56191" lon="-0.74736">
        <ele>102.52</ele>
        <time>2014-07-22T13:56:49Z</time>
      </trkpt>
      <trkpt lat="47.56193" lon="-0.74726">
        <ele>102.52</ele>
        <time>2014-07-22T13:56:51Z</time>
      </trkpt>
      <trkpt lat="47.56206" lon="-0.74708">
        <ele>103</ele>
        <time>2014-07-22T13:56:57Z</time>
      </trkpt>
      <trkpt lat="47.56207" lon="-0.74703">
        <ele>103.48</ele>
        <time>2014-07-22T13:56:58Z</time>
      </trkpt>
      <trkpt lat="47.56218" lon="-0.74672">
        <ele>103.48</ele>
        <time>2014-07-22T13:57:04Z</time>
      </trkpt>
      <trkpt lat="47.56223" lon="-0.74636">
        <ele>104.92</ele>
        <time>2014-07-22T13:57:10Z</time>
      </trkpt>
      <trkpt lat="47.56223" lon="-0.7463">
        <ele>104.92</ele>
        <time>2014-07-22T13:57:11Z</time>
      </trkpt>
      <trkpt lat="47.56233" lon="-0.74598">
        <ele>105.4</ele>
        <time>2014-07-22T13:57:15Z</time>
      </trkpt>
      <trkpt lat="47.56242" lon="-0.74561">
        <ele>105.88</ele>
        <time>2014-07-22T13:57:21Z</time>
      </trkpt>
      <trkpt lat="47.5624" lon="-0.74526">
        <ele>105.88</ele>
        <time>2014-07-22T13:57:27Z</time>
      </trkpt>
      <trkpt lat="47.56237" lon="-0.74508">
        <ele>105.4</ele>
        <time>2014-07-22T13:57:30Z</time>
      </trkpt>
      <trkpt lat="47.56232" lon="-0.74479">
        <ele>105.4</ele>
        <time>2014-07-22T13:57:34Z</time>
      </trkpt>
      <trkpt lat="47.56225" lon="-0.74439">
        <ele>105.88</ele>
        <time>2014-07-22T13:57:40Z</time>
      </trkpt>
      <trkpt lat="47.56223" lon="-0.74426">
        <ele>105.88</ele>
        <time>2014-07-22T13:57:42Z</time>
      </trkpt>
      <trkpt lat="47.56218" lon="-0.74386">
        <ele>105.4</ele>
        <time>2014-07-22T13:57:49Z</time>
      </trkpt>
      <trkpt lat="47.56217" lon="-0.74365">
        <ele>105.4</ele>
        <time>2014-07-22T13:57:54Z</time>
      </trkpt>
      <trkpt lat="47.56216" lon="-0.74361">
        <ele>105.4</ele>
        <time>2014-07-22T13:57:55Z</time>
      </trkpt>
      <trkpt lat="47.5621" lon="-0.74333">
        <ele>105.88</ele>
        <time>2014-07-22T13:58:00Z</time>
      </trkpt>
      <trkpt lat="47.56201" lon="-0.74309">
        <ele>105.88</ele>
        <time>2014-07-22T13:58:04Z</time>
      </trkpt>
      <trkpt lat="47.56195" lon="-0.74288">
        <ele>105.88</ele>
        <time>2014-07-22T13:58:07Z</time>
      </trkpt>
      <trkpt lat="47.56186" lon="-0.74247">
        <ele>106.36</ele>
        <time>2014-07-22T13:58:14Z</time>
      </trkpt>
      <trkpt lat="47.56182" lon="-0.74224">
        <ele>105.88</ele>
        <time>2014-07-22T13:58:17Z</time>
      </trkpt>
      <trkpt lat="47.56175" lon="-0.74194">
        <ele>105.88</ele>
        <time>2014-07-22T13:58:21Z</time>
      </trkpt>
      <trkpt lat="47.5617" lon="-0.7415">
        <ele>106.84</ele>
        <time>2014-07-22T13:58:27Z</time>
      </trkpt>
      <trkpt lat="47.56167" lon="-0.74136">
        <ele>106.84</ele>
        <time>2014-07-22T13:58:29Z</time>
      </trkpt>
      <trkpt lat="47.56165" lon="-0.74126">
        <ele>106.84</ele>
        <time>2014-07-22T13:58:31Z</time>
      </trkpt>
      <trkpt lat="47.56162" lon="-0.74112">
        <ele>107.32</ele>
        <time>2014-07-22T13:58:33Z</time>
      </trkpt>
      <trkpt lat="47.56154" lon="-0.74078">
        <ele>106.84</ele>
        <time>2014-07-22T13:58:38Z</time>
      </trkpt>
      <trkpt lat="47.5615" lon="-0.74057">
        <ele>107.32</ele>
        <time>2014-07-22T13:58:41Z</time>
      </trkpt>
      <trkpt lat="47.5614" lon="-0.7401">
        <ele>106.84</ele>
        <time>2014-07-22T13:58:47Z</time>
      </trkpt>
      <trkpt lat="47.56126" lon="-0.73953">
        <ele>107.32</ele>
        <time>2014-07-22T13:58:54Z</time>
      </trkpt>
      <trkpt lat="47.56123" lon="-0.73937">
        <ele>106.84</ele>
        <time>2014-07-22T13:58:56Z</time>
      </trkpt>
      <trkpt lat="47.5612" lon="-0.73922">
        <ele>106.36</ele>
        <time>2014-07-22T13:58:58Z</time>
      </trkpt>
      <trkpt lat="47.56113" lon="-0.73884">
        <ele>106.84</ele>
        <time>2014-07-22T13:59:04Z</time>
      </trkpt>
      <trkpt lat="47.56107" lon="-0.73848">
        <ele>107.32</ele>
        <time>2014-07-22T13:59:09Z</time>
      </trkpt>
      <trkpt lat="47.56104" lon="-0.73835">
        <ele>107.32</ele>
        <time>2014-07-22T13:59:11Z</time>
      </trkpt>
      <trkpt lat="47.56099" lon="-0.73813">
        <ele>107.32</ele>
        <time>2014-07-22T13:59:14Z</time>
      </trkpt>
      <trkpt lat="47.56088" lon="-0.73755">
        <ele>108.29</ele>
        <time>2014-07-22T13:59:22Z</time>
      </trkpt>
      <trkpt lat="47.56081" lon="-0.73722">
        <ele>108.77</ele>
        <time>2014-07-22T13:59:27Z</time>
      </trkpt>
      <trkpt lat="47.56078" lon="-0.73708">
        <ele>108.77</ele>
        <time>2014-07-22T13:59:29Z</time>
      </trkpt>
      <trkpt lat="47.5607" lon="-0.73667">
        <ele>109.25</ele>
        <time>2014-07-22T13:59:35Z</time>
      </trkpt>
      <trkpt lat="47.56063" lon="-0.73638">
        <ele>109.25</ele>
        <time>2014-07-22T13:59:39Z</time>
      </trkpt>
      <trkpt lat="47.56054" lon="-0.73596">
        <ele>110.21</ele>
        <time>2014-07-22T13:59:45Z</time>
      </trkpt>
      <trkpt lat="47.56046" lon="-0.73549">
        <ele>110.21</ele>
        <time>2014-07-22T13:59:52Z</time>
      </trkpt>
      <trkpt lat="47.56044" lon="-0.73527">
        <ele>110.21</ele>
        <time>2014-07-22T13:59:55Z</time>
      </trkpt>
      <trkpt lat="47.56043" lon="-0.73506">
        <ele>110.69</ele>
        <time>2014-07-22T13:59:58Z</time>
      </trkpt>
      <trkpt lat="47.56038" lon="-0.73488">
        <ele>110.69</ele>
        <time>2014-07-22T14:00:01Z</time>
      </trkpt>
      <trkpt lat="47.56031" lon="-0.73449">
        <ele>110.69</ele>
        <time>2014-07-22T14:00:06Z</time>
      </trkpt>
      <trkpt lat="47.5603" lon="-0.73434">
        <ele>111.17</ele>
        <time>2014-07-22T14:00:08Z</time>
      </trkpt>
      <trkpt lat="47.56021" lon="-0.73388">
        <ele>111.17</ele>
        <time>2014-07-22T14:00:14Z</time>
      </trkpt>
      <trkpt lat="47.56017" lon="-0.73357">
        <ele>111.65</ele>
        <time>2014-07-22T14:00:19Z</time>
      </trkpt>
      <trkpt lat="47.56014" lon="-0.73333">
        <ele>112.13</ele>
        <time>2014-07-22T14:00:22Z</time>
      </trkpt>
      <trkpt lat="47.56009" lon="-0.73312">
        <ele>112.13</ele>
        <time>2014-07-22T14:00:24Z</time>
      </trkpt>
      <trkpt lat="47.55992" lon="-0.73243">
        <ele>111.65</ele>
        <time>2014-07-22T14:00:33Z</time>
      </trkpt>
      <trkpt lat="47.55987" lon="-0.73214">
        <ele>112.13</ele>
        <time>2014-07-22T14:00:37Z</time>
      </trkpt>
      <trkpt lat="47.55974" lon="-0.73158">
        <ele>112.13</ele>
        <time>2014-07-22T14:00:45Z</time>
      </trkpt>
      <trkpt lat="47.55969" lon="-0.73114">
        <ele>112.13</ele>
        <time>2014-07-22T14:00:51Z</time>
      </trkpt>
      <trkpt lat="47.55968" lon="-0.73107">
        <ele>112.13</ele>
        <time>2014-07-22T14:00:52Z</time>
      </trkpt>
      <trkpt lat="47.55955" lon="-0.73044">
        <ele>112.13</ele>
        <time>2014-07-22T14:01:00Z</time>
      </trkpt>
      <trkpt lat="47.55952" lon="-0.73035">
        <ele>112.13</ele>
        <time>2014-07-22T14:01:01Z</time>
      </trkpt>
      <trkpt lat="47.55939" lon="-0.72983">
        <ele>111.65</ele>
        <time>2014-07-22T14:01:07Z</time>
      </trkpt>
      <trkpt lat="47.55935" lon="-0.72969">
        <ele>111.65</ele>
        <time>2014-07-22T14:01:09Z</time>
      </trkpt>
      <trkpt lat="47.55927" lon="-0.72926">
        <ele>112.61</ele>
        <time>2014-07-22T14:01:14Z</time>
      </trkpt>
      <trkpt lat="47.55912" lon="-0.72865">
        <ele>112.13</ele>
        <time>2014-07-22T14:01:21Z</time>
      </trkpt>
      <trkpt lat="47.5591" lon="-0.72856">
        <ele>112.61</ele>
        <time>2014-07-22T14:01:22Z</time>
      </trkpt>
      <trkpt lat="47.55902" lon="-0.72824">
        <ele>112.13</ele>
        <time>2014-07-22T14:01:26Z</time>
      </trkpt>
      <trkpt lat="47.55891" lon="-0.72768">
        <ele>112.61</ele>
        <time>2014-07-22T14:01:34Z</time>
      </trkpt>
      <trkpt lat="47.55889" lon="-0.72761">
        <ele>112.61</ele>
        <time>2014-07-22T14:01:35Z</time>
      </trkpt>
      <trkpt lat="47.55884" lon="-0.72743">
        <ele>112.61</ele>
        <time>2014-07-22T14:01:38Z</time>
      </trkpt>
      <trkpt lat="47.55876" lon="-0.72712">
        <ele>113.09</ele>
        <time>2014-07-22T14:01:43Z</time>
      </trkpt>
      <trkpt lat="47.55868" lon="-0.72677">
        <ele>112.61</ele>
        <time>2014-07-22T14:01:49Z</time>
      </trkpt>
      <trkpt lat="47.55865" lon="-0.72664">
        <ele>112.61</ele>
        <time>2014-07-22T14:01:51Z</time>
      </trkpt>
      <trkpt lat="47.55862" lon="-0.72651">
        <ele>112.13</ele>
        <time>2014-07-22T14:01:53Z</time>
      </trkpt>
      <trkpt lat="47.55857" lon="-0.72631">
        <ele>112.61</ele>
        <time>2014-07-22T14:01:56Z</time>
      </trkpt>
      <trkpt lat="47.55851" lon="-0.72617">
        <ele>112.61</ele>
        <time>2014-07-22T14:01:58Z</time>
      </trkpt>
      <trkpt lat="47.55845" lon="-0.72585">
        <ele>113.09</ele>
        <time>2014-07-22T14:02:02Z</time>
      </trkpt>
      <trkpt lat="47.55841" lon="-0.72556">
        <ele>113.09</ele>
        <time>2014-07-22T14:02:06Z</time>
      </trkpt>
      <trkpt lat="47.55833" lon="-0.7252">
        <ele>112.61</ele>
        <time>2014-07-22T14:02:11Z</time>
      </trkpt>
      <trkpt lat="47.5582" lon="-0.72451">
        <ele>112.61</ele>
        <time>2014-07-22T14:02:20Z</time>
      </trkpt>
      <trkpt lat="47.55815" lon="-0.72425">
        <ele>112.13</ele>
        <time>2014-07-22T14:02:24Z</time>
      </trkpt>
      <trkpt lat="47.55804" lon="-0.72422">
        <ele>112.13</ele>
        <time>2014-07-22T14:02:29Z</time>
      </trkpt>
      <trkpt lat="47.55801" lon="-0.72425">
        <ele>112.13</ele>
        <time>2014-07-22T14:02:30Z</time>
      </trkpt>
      <trkpt lat="47.55778" lon="-0.72432">
        <ele>111.65</ele>
        <time>2014-07-22T14:02:34Z</time>
      </trkpt>
      <trkpt lat="47.5573" lon="-0.72453">
        <ele>110.69</ele>
        <time>2014-07-22T14:02:42Z</time>
      </trkpt>
      <trkpt lat="47.55701" lon="-0.72461">
        <ele>109.25</ele>
        <time>2014-07-22T14:02:47Z</time>
      </trkpt>
      <trkpt lat="47.55686" lon="-0.72468">
        <ele>109.25</ele>
        <time>2014-07-22T14:02:50Z</time>
      </trkpt>
      <trkpt lat="47.55661" lon="-0.72482">
        <ele>108.77</ele>
        <time>2014-07-22T14:02:55Z</time>
      </trkpt>
      <trkpt lat="47.55627" lon="-0.72502">
        <ele>106.84</ele>
        <time>2014-07-22T14:03:01Z</time>
      </trkpt>
      <trkpt lat="47.55623" lon="-0.72504">
        <ele>106.36</ele>
        <time>2014-07-22T14:03:02Z</time>
      </trkpt>
      <trkpt lat="47.55614" lon="-0.72492">
        <ele>105.88</ele>
        <time>2014-07-22T14:03:06Z</time>
      </trkpt>
      <trkpt lat="47.55612" lon="-0.72471">
        <ele>106.36</ele>
        <time>2014-07-22T14:03:10Z</time>
      </trkpt>
      <trkpt lat="47.55609" lon="-0.72458">
        <ele>106.84</ele>
        <time>2014-07-22T14:03:12Z</time>
      </trkpt>
      <trkpt lat="47.55601" lon="-0.72414">
        <ele>107.81</ele>
        <time>2014-07-22T14:03:19Z</time>
      </trkpt>
      <trkpt lat="47.55602" lon="-0.72379">
        <ele>108.29</ele>
        <time>2014-07-22T14:03:25Z</time>
      </trkpt>
      <trkpt lat="47.55609" lon="-0.72355">
        <ele>109.25</ele>
        <time>2014-07-22T14:03:30Z</time>
      </trkpt>
      <trkpt lat="47.55611" lon="-0.72326">
        <ele>109.25</ele>
        <time>2014-07-22T14:03:37Z</time>
      </trkpt>
      <trkpt lat="47.55612" lon="-0.7232">
        <ele>109.73</ele>
        <time>2014-07-22T14:03:39Z</time>
      </trkpt>
      <trkpt lat="47.55618" lon="-0.72313">
        <ele>109.73</ele>
        <time>2014-07-22T14:03:44Z</time>
      </trkpt>
      <trkpt lat="47.55619" lon="-0.72315">
        <ele>109.73</ele>
        <time>2014-07-22T14:03:46Z</time>
      </trkpt>
      <trkpt lat="47.55609" lon="-0.72309">
        <ele>109.25</ele>
        <time>2014-07-22T14:03:51Z</time>
      </trkpt>
      <trkpt lat="47.55605" lon="-0.72303">
        <ele>109.73</ele>
        <time>2014-07-22T14:03:53Z</time>
      </trkpt>
      <trkpt lat="47.55587" lon="-0.72286">
        <ele>109.25</ele>
        <time>2014-07-22T14:03:59Z</time>
      </trkpt>
      <trkpt lat="47.55573" lon="-0.72281">
        <ele>109.25</ele>
        <time>2014-07-22T14:04:03Z</time>
      </trkpt>
      <trkpt lat="47.55558" lon="-0.72276">
        <ele>108.29</ele>
        <time>2014-07-22T14:04:07Z</time>
      </trkpt>
      <trkpt lat="47.55552" lon="-0.7226">
        <ele>108.77</ele>
        <time>2014-07-22T14:04:10Z</time>
      </trkpt>
      <trkpt lat="47.55548" lon="-0.7224">
        <ele>109.25</ele>
        <time>2014-07-22T14:04:13Z</time>
      </trkpt>
      <trkpt lat="47.55537" lon="-0.72198">
        <ele>109.73</ele>
        <time>2014-07-22T14:04:19Z</time>
      </trkpt>
      <trkpt lat="47.55532" lon="-0.72176">
        <ele>109.73</ele>
        <time>2014-07-22T14:04:22Z</time>
      </trkpt>
      <trkpt lat="47.55517" lon="-0.72107">
        <ele>109.73</ele>
        <time>2014-07-22T14:04:31Z</time>
      </trkpt>
      <trkpt lat="47.55514" lon="-0.72092">
        <ele>109.73</ele>
        <time>2014-07-22T14:04:33Z</time>
      </trkpt>
      <trkpt lat="47.55506" lon="-0.72054">
        <ele>110.21</ele>
        <time>2014-07-22T14:04:38Z</time>
      </trkpt>
      <trkpt lat="47.55493" lon="-0.71986">
        <ele>110.69</ele>
        <time>2014-07-22T14:04:47Z</time>
      </trkpt>
      <trkpt lat="47.55482" lon="-0.71929">
        <ele>111.17</ele>
        <time>2014-07-22T14:04:55Z</time>
      </trkpt>
      <trkpt lat="47.55471" lon="-0.71898">
        <ele>111.17</ele>
        <time>2014-07-22T14:05:00Z</time>
      </trkpt>
      <trkpt lat="47.55463" lon="-0.71896">
        <ele>111.65</ele>
        <time>2014-07-22T14:05:02Z</time>
      </trkpt>
      <trkpt lat="47.55443" lon="-0.71903">
        <ele>111.17</ele>
        <time>2014-07-22T14:05:06Z</time>
      </trkpt>
      <trkpt lat="47.55428" lon="-0.71911">
        <ele>110.21</ele>
        <time>2014-07-22T14:05:09Z</time>
      </trkpt>
      <trkpt lat="47.55405" lon="-0.71921">
        <ele>108.29</ele>
        <time>2014-07-22T14:05:14Z</time>
      </trkpt>
      <trkpt lat="47.55397" lon="-0.71907">
        <ele>108.77</ele>
        <time>2014-07-22T14:05:19Z</time>
      </trkpt>
      <trkpt lat="47.55392" lon="-0.71869">
        <ele>108.77</ele>
        <time>2014-07-22T14:05:26Z</time>
      </trkpt>
      <trkpt lat="47.55381" lon="-0.71829">
        <ele>108.77</ele>
        <time>2014-07-22T14:05:32Z</time>
      </trkpt>
      <trkpt lat="47.55377" lon="-0.718">
        <ele>109.25</ele>
        <time>2014-07-22T14:05:37Z</time>
      </trkpt>
      <trkpt lat="47.55376" lon="-0.71781">
        <ele>109.25</ele>
        <time>2014-07-22T14:05:40Z</time>
      </trkpt>
      <trkpt lat="47.55372" lon="-0.71751">
        <ele>108.77</ele>
        <time>2014-07-22T14:05:44Z</time>
      </trkpt>
      <trkpt lat="47.5537" lon="-0.71737">
        <ele>109.25</ele>
        <time>2014-07-22T14:05:46Z</time>
      </trkpt>
      <trkpt lat="47.5537" lon="-0.71694">
        <ele>109.25</ele>
        <time>2014-07-22T14:05:52Z</time>
      </trkpt>
      <trkpt lat="47.55368" lon="-0.71665">
        <ele>109.73</ele>
        <time>2014-07-22T14:05:57Z</time>
      </trkpt>
      <trkpt lat="47.55362" lon="-0.71629">
        <ele>109.73</ele>
        <time>2014-07-22T14:06:03Z</time>
      </trkpt>
      <trkpt lat="47.55357" lon="-0.71595">
        <ele>110.21</ele>
        <time>2014-07-22T14:06:09Z</time>
      </trkpt>
      <trkpt lat="47.55356" lon="-0.71572">
        <ele>109.73</ele>
        <time>2014-07-22T14:06:14Z</time>
      </trkpt>
      <trkpt lat="47.55354" lon="-0.71567">
        <ele>109.73</ele>
        <time>2014-07-22T14:06:15Z</time>
      </trkpt>
      <trkpt lat="47.55345" lon="-0.71543">
        <ele>110.69</ele>
        <time>2014-07-22T14:06:19Z</time>
      </trkpt>
      <trkpt lat="47.55337" lon="-0.7151">
        <ele>110.69</ele>
        <time>2014-07-22T14:06:26Z</time>
      </trkpt>
      <trkpt lat="47.55323" lon="-0.71468">
        <ele>111.17</ele>
        <time>2014-07-22T14:06:34Z</time>
      </trkpt>
      <trkpt lat="47.55316" lon="-0.71445">
        <ele>112.13</ele>
        <time>2014-07-22T14:06:39Z</time>
      </trkpt>
      <trkpt lat="47.55308" lon="-0.71409">
        <ele>111.65</ele>
        <time>2014-07-22T14:06:47Z</time>
      </trkpt>
      <trkpt lat="47.55302" lon="-0.71378">
        <ele>112.61</ele>
        <time>2014-07-22T14:06:53Z</time>
      </trkpt>
      <trkpt lat="47.55303" lon="-0.7134">
        <ele>113.09</ele>
        <time>2014-07-22T14:06:59Z</time>
      </trkpt>
      <trkpt lat="47.55303" lon="-0.71317">
        <ele>112.61</ele>
        <time>2014-07-22T14:07:04Z</time>
      </trkpt>
      <trkpt lat="47.55303" lon="-0.71294">
        <ele>113.09</ele>
        <time>2014-07-22T14:07:10Z</time>
      </trkpt>
      <trkpt lat="47.55303" lon="-0.71287">
        <ele>112.61</ele>
        <time>2014-07-22T14:07:11Z</time>
      </trkpt>
      <trkpt lat="47.55302" lon="-0.71263">
        <ele>113.09</ele>
        <time>2014-07-22T14:07:15Z</time>
      </trkpt>
      <trkpt lat="47.55319" lon="-0.71215">
        <ele>113.57</ele>
        <time>2014-07-22T14:07:22Z</time>
      </trkpt>
      <trkpt lat="47.55329" lon="-0.7119">
        <ele>114.05</ele>
        <time>2014-07-22T14:07:27Z</time>
      </trkpt>
      <trkpt lat="47.55332" lon="-0.7115">
        <ele>114.05</ele>
        <time>2014-07-22T14:07:33Z</time>
      </trkpt>
      <trkpt lat="47.5534" lon="-0.71117">
        <ele>113.57</ele>
        <time>2014-07-22T14:07:39Z</time>
      </trkpt>
      <trkpt lat="47.55335" lon="-0.71075">
        <ele>113.57</ele>
        <time>2014-07-22T14:07:46Z</time>
      </trkpt>
      <trkpt lat="47.55331" lon="-0.71049">
        <ele>113.57</ele>
        <time>2014-07-22T14:07:50Z</time>
      </trkpt>
      <trkpt lat="47.55306" lon="-0.71">
        <ele>113.09</ele>
        <time>2014-07-22T14:07:57Z</time>
      </trkpt>
      <trkpt lat="47.553" lon="-0.7099">
        <ele>113.09</ele>
        <time>2014-07-22T14:07:58Z</time>
      </trkpt>
      <trkpt lat="47.5529" lon="-0.70952">
        <ele>113.57</ele>
        <time>2014-07-22T14:08:04Z</time>
      </trkpt>
      <trkpt lat="47.55291" lon="-0.70948">
        <ele>112.61</ele>
        <time>2014-07-22T14:08:05Z</time>
      </trkpt>
      <trkpt lat="47.55295" lon="-0.70946">
        <ele>112.61</ele>
        <time>2014-07-22T14:08:11Z</time>
      </trkpt>
      <trkpt lat="47.55294" lon="-0.70946">
        <ele>112.61</ele>
        <time>2014-07-22T14:08:14Z</time>
      </trkpt>
      <trkpt lat="47.5529" lon="-0.7095">
        <ele>112.61</ele>
        <time>2014-07-22T14:08:19Z</time>
      </trkpt>
      <trkpt lat="47.55281" lon="-0.70933">
        <ele>112.13</ele>
        <time>2014-07-22T14:08:25Z</time>
      </trkpt>
      <trkpt lat="47.55277" lon="-0.70905">
        <ele>112.13</ele>
        <time>2014-07-22T14:08:33Z</time>
      </trkpt>
      <trkpt lat="47.55277" lon="-0.70904">
        <ele>112.13</ele>
        <time>2014-07-22T14:08:37Z</time>
      </trkpt>
      <trkpt lat="47.55277" lon="-0.70904">
        <ele>112.13</ele>
        <time>2014-07-22T14:08:49Z</time>
      </trkpt>
      <trkpt lat="47.55275" lon="-0.70896">
        <ele>112.61</ele>
        <time>2014-07-22T14:08:57Z</time>
      </trkpt>
      <trkpt lat="47.55268" lon="-0.70871">
        <ele>112.13</ele>
        <time>2014-07-22T14:09:03Z</time>
      </trkpt>
      <trkpt lat="47.55256" lon="-0.7084">
        <ele>111.65</ele>
        <time>2014-07-22T14:09:11Z</time>
      </trkpt>
      <trkpt lat="47.55242" lon="-0.70818">
        <ele>110.69</ele>
        <time>2014-07-22T14:09:17Z</time>
      </trkpt>
      <trkpt lat="47.55217" lon="-0.70773">
        <ele>111.17</ele>
        <time>2014-07-22T14:09:26Z</time>
      </trkpt>
      <trkpt lat="47.5518" lon="-0.70717">
        <ele>111.17</ele>
        <time>2014-07-22T14:09:37Z</time>
      </trkpt>
      <trkpt lat="47.55144" lon="-0.70668">
        <ele>111.17</ele>
        <time>2014-07-22T14:09:46Z</time>
      </trkpt>
      <trkpt lat="47.55135" lon="-0.70659">
        <ele>110.21</ele>
        <time>2014-07-22T14:09:48Z</time>
      </trkpt>
      <trkpt lat="47.55084" lon="-0.70631">
        <ele>108.77</ele>
        <time>2014-07-22T14:09:58Z</time>
      </trkpt>
      <trkpt lat="47.55073" lon="-0.70624">
        <ele>108.77</ele>
        <time>2014-07-22T14:10:00Z</time>
      </trkpt>
      <trkpt lat="47.5506" lon="-0.70597">
        <ele>108.29</ele>
        <time>2014-07-22T14:10:04Z</time>
      </trkpt>
      <trkpt lat="47.55046" lon="-0.70532">
        <ele>108.29</ele>
        <time>2014-07-22T14:10:13Z</time>
      </trkpt>
      <trkpt lat="47.55036" lon="-0.70475">
        <ele>108.77</ele>
        <time>2014-07-22T14:10:21Z</time>
      </trkpt>
      <trkpt lat="47.55024" lon="-0.70408">
        <ele>109.73</ele>
        <time>2014-07-22T14:10:30Z</time>
      </trkpt>
      <trkpt lat="47.55015" lon="-0.70358">
        <ele>109.25</ele>
        <time>2014-07-22T14:10:37Z</time>
      </trkpt>
      <trkpt lat="47.55003" lon="-0.70315">
        <ele>109.25</ele>
        <time>2014-07-22T14:10:44Z</time>
      </trkpt>
      <trkpt lat="47.55" lon="-0.70295">
        <ele>109.25</ele>
        <time>2014-07-22T14:10:47Z</time>
      </trkpt>
      <trkpt lat="47.5499" lon="-0.70216">
        <ele>109.73</ele>
        <time>2014-07-22T14:10:58Z</time>
      </trkpt>
      <trkpt lat="47.54994" lon="-0.70135">
        <ele>109.73</ele>
        <time>2014-07-22T14:11:08Z</time>
      </trkpt>
      <trkpt lat="47.54995" lon="-0.70056">
        <ele>109.25</ele>
        <time>2014-07-22T14:11:17Z</time>
      </trkpt>
      <trkpt lat="47.54994" lon="-0.70037">
        <ele>109.25</ele>
        <time>2014-07-22T14:11:19Z</time>
      </trkpt>
      <trkpt lat="47.54973" lon="-0.69986">
        <ele>109.25</ele>
        <time>2014-07-22T14:11:26Z</time>
      </trkpt>
      <trkpt lat="47.54939" lon="-0.69927">
        <ele>109.25</ele>
        <time>2014-07-22T14:11:36Z</time>
      </trkpt>
      <trkpt lat="47.54903" lon="-0.69874">
        <ele>107.81</ele>
        <time>2014-07-22T14:11:45Z</time>
      </trkpt>
      <trkpt lat="47.54898" lon="-0.69869">
        <ele>108.77</ele>
        <time>2014-07-22T14:11:46Z</time>
      </trkpt>
      <trkpt lat="47.54858" lon="-0.69806">
        <ele>107.32</ele>
        <time>2014-07-22T14:11:56Z</time>
      </trkpt>
      <trkpt lat="47.54835" lon="-0.69762">
        <ele>107.32</ele>
        <time>2014-07-22T14:12:02Z</time>
      </trkpt>
      <trkpt lat="47.54804" lon="-0.69695">
        <ele>106.84</ele>
        <time>2014-07-22T14:12:11Z</time>
      </trkpt>
      <trkpt lat="47.54782" lon="-0.69645">
        <ele>105.88</ele>
        <time>2014-07-22T14:12:18Z</time>
      </trkpt>
      <trkpt lat="47.54755" lon="-0.69578">
        <ele>106.84</ele>
        <time>2014-07-22T14:12:27Z</time>
      </trkpt>
      <trkpt lat="47.54725" lon="-0.69507">
        <ele>107.81</ele>
        <time>2014-07-22T14:12:37Z</time>
      </trkpt>
      <trkpt lat="47.54711" lon="-0.6947">
        <ele>107.32</ele>
        <time>2014-07-22T14:12:42Z</time>
      </trkpt>
      <trkpt lat="47.54694" lon="-0.69398">
        <ele>106.84</ele>
        <time>2014-07-22T14:12:51Z</time>
      </trkpt>
      <trkpt lat="47.54683" lon="-0.69312">
        <ele>107.32</ele>
        <time>2014-07-22T14:13:01Z</time>
      </trkpt>
      <trkpt lat="47.54673" lon="-0.69244">
        <ele>106.36</ele>
        <time>2014-07-22T14:13:09Z</time>
      </trkpt>
      <trkpt lat="47.54658" lon="-0.69178">
        <ele>107.32</ele>
        <time>2014-07-22T14:13:17Z</time>
      </trkpt>
      <trkpt lat="47.54637" lon="-0.69103">
        <ele>107.32</ele>
        <time>2014-07-22T14:13:26Z</time>
      </trkpt>
      <trkpt lat="47.54626" lon="-0.69062">
        <ele>106.84</ele>
        <time>2014-07-22T14:13:31Z</time>
      </trkpt>
      <trkpt lat="47.54602" lon="-0.68991">
        <ele>107.32</ele>
        <time>2014-07-22T14:13:40Z</time>
      </trkpt>
      <trkpt lat="47.54576" lon="-0.68921">
        <ele>106.84</ele>
        <time>2014-07-22T14:13:49Z</time>
      </trkpt>
      <trkpt lat="47.54564" lon="-0.68841">
        <ele>106.36</ele>
        <time>2014-07-22T14:13:58Z</time>
      </trkpt>
      <trkpt lat="47.54563" lon="-0.6882">
        <ele>105.88</ele>
        <time>2014-07-22T14:14:02Z</time>
      </trkpt>
      <trkpt lat="47.54574" lon="-0.68818">
        <ele>105.4</ele>
        <time>2014-07-22T14:14:07Z</time>
      </trkpt>
      <trkpt lat="47.54578" lon="-0.68817">
        <ele>105.88</ele>
        <time>2014-07-22T14:14:08Z</time>
      </trkpt>
      <trkpt lat="47.54618" lon="-0.688">
        <ele>104.44</ele>
        <time>2014-07-22T14:14:16Z</time>
      </trkpt>
      <trkpt lat="47.54666" lon="-0.68782">
        <ele>102.52</ele>
        <time>2014-07-22T14:14:24Z</time>
      </trkpt>
      <trkpt lat="47.5471" lon="-0.68763">
        <ele>100.11</ele>
        <time>2014-07-22T14:14:31Z</time>
      </trkpt>
      <trkpt lat="47.54761" lon="-0.68736">
        <ele>97.71</ele>
        <time>2014-07-22T14:14:39Z</time>
      </trkpt>
      <trkpt lat="47.54819" lon="-0.68702">
        <ele>95.79</ele>
        <time>2014-07-22T14:14:48Z</time>
      </trkpt>
      <trkpt lat="47.5487" lon="-0.68666">
        <ele>94.83</ele>
        <time>2014-07-22T14:14:56Z</time>
      </trkpt>
      <trkpt lat="47.54926" lon="-0.68629">
        <ele>93.87</ele>
        <time>2014-07-22T14:15:05Z</time>
      </trkpt>
      <trkpt lat="47.5497" lon="-0.68587">
        <ele>94.35</ele>
        <time>2014-07-22T14:15:13Z</time>
      </trkpt>
      <trkpt lat="47.55005" lon="-0.68548">
        <ele>93.87</ele>
        <time>2014-07-22T14:15:20Z</time>
      </trkpt>
      <trkpt lat="47.5501" lon="-0.68542">
        <ele>93.87</ele>
        <time>2014-07-22T14:15:21Z</time>
      </trkpt>
      <trkpt lat="47.55029" lon="-0.6852">
        <ele>94.35</ele>
        <time>2014-07-22T14:15:25Z</time>
      </trkpt>
      <trkpt lat="47.55066" lon="-0.68469">
        <ele>93.39</ele>
        <time>2014-07-22T14:15:33Z</time>
      </trkpt>
      <trkpt lat="47.55103" lon="-0.68417">
        <ele>93.39</ele>
        <time>2014-07-22T14:15:41Z</time>
      </trkpt>
      <trkpt lat="47.55134" lon="-0.68372">
        <ele>92.42</ele>
        <time>2014-07-22T14:15:48Z</time>
      </trkpt>
      <trkpt lat="47.55169" lon="-0.68308">
        <ele>92.9</ele>
        <time>2014-07-22T14:15:57Z</time>
      </trkpt>
      <trkpt lat="47.55196" lon="-0.68262">
        <ele>92.9</ele>
        <time>2014-07-22T14:16:04Z</time>
      </trkpt>
      <trkpt lat="47.55215" lon="-0.68231">
        <ele>91.94</ele>
        <time>2014-07-22T14:16:09Z</time>
      </trkpt>
      <trkpt lat="47.55237" lon="-0.68185">
        <ele>92.9</ele>
        <time>2014-07-22T14:16:16Z</time>
      </trkpt>
      <trkpt lat="47.55268" lon="-0.68121">
        <ele>92.42</ele>
        <time>2014-07-22T14:16:25Z</time>
      </trkpt>
      <trkpt lat="47.55298" lon="-0.68058">
        <ele>91.94</ele>
        <time>2014-07-22T14:16:34Z</time>
      </trkpt>
      <trkpt lat="47.55321" lon="-0.68002">
        <ele>90.98</ele>
        <time>2014-07-22T14:16:42Z</time>
      </trkpt>
      <trkpt lat="47.55342" lon="-0.67944">
        <ele>90.02</ele>
        <time>2014-07-22T14:16:50Z</time>
      </trkpt>
      <trkpt lat="47.55366" lon="-0.67885">
        <ele>88.58</ele>
        <time>2014-07-22T14:16:58Z</time>
      </trkpt>
      <trkpt lat="47.55387" lon="-0.67818">
        <ele>87.62</ele>
        <time>2014-07-22T14:17:06Z</time>
      </trkpt>
      <trkpt lat="47.55406" lon="-0.67759">
        <ele>85.69</ele>
        <time>2014-07-22T14:17:13Z</time>
      </trkpt>
      <trkpt lat="47.55415" lon="-0.67735">
        <ele>85.69</ele>
        <time>2014-07-22T14:17:16Z</time>
      </trkpt>
      <trkpt lat="47.55427" lon="-0.67715">
        <ele>85.21</ele>
        <time>2014-07-22T14:17:19Z</time>
      </trkpt>
      <trkpt lat="47.5544" lon="-0.67693">
        <ele>83.29</ele>
        <time>2014-07-22T14:17:24Z</time>
      </trkpt>
      <trkpt lat="47.55438" lon="-0.67674">
        <ele>82.81</ele>
        <time>2014-07-22T14:17:29Z</time>
      </trkpt>
      <trkpt lat="47.55437" lon="-0.67669">
        <ele>82.81</ele>
        <time>2014-07-22T14:17:30Z</time>
      </trkpt>
      <trkpt lat="47.55432" lon="-0.67623">
        <ele>81.85</ele>
        <time>2014-07-22T14:17:38Z</time>
      </trkpt>
      <trkpt lat="47.55432" lon="-0.67617">
        <ele>81.85</ele>
        <time>2014-07-22T14:17:40Z</time>
      </trkpt>
      <trkpt lat="47.55435" lon="-0.67594">
        <ele>81.37</ele>
        <time>2014-07-22T14:17:45Z</time>
      </trkpt>
      <trkpt lat="47.55436" lon="-0.67586">
        <ele>80.89</ele>
        <time>2014-07-22T14:17:46Z</time>
      </trkpt>
      <trkpt lat="47.55453" lon="-0.67494">
        <ele>79.93</ele>
        <time>2014-07-22T14:17:56Z</time>
      </trkpt>
      <trkpt lat="47.55466" lon="-0.67408">
        <ele>78.97</ele>
        <time>2014-07-22T14:18:05Z</time>
      </trkpt>
      <trkpt lat="47.55476" lon="-0.67334">
        <ele>78</ele>
        <time>2014-07-22T14:18:12Z</time>
      </trkpt>
      <trkpt lat="47.55477" lon="-0.67247">
        <ele>77.52</ele>
        <time>2014-07-22T14:18:21Z</time>
      </trkpt>
      <trkpt lat="47.55479" lon="-0.67176">
        <ele>77.52</ele>
        <time>2014-07-22T14:18:29Z</time>
      </trkpt>
      <trkpt lat="47.55479" lon="-0.67153">
        <ele>78.48</ele>
        <time>2014-07-22T14:18:32Z</time>
      </trkpt>
      <trkpt lat="47.55478" lon="-0.6712">
        <ele>78</ele>
        <time>2014-07-22T14:18:38Z</time>
      </trkpt>
      <trkpt lat="47.55481" lon="-0.67109">
        <ele>78.48</ele>
        <time>2014-07-22T14:18:40Z</time>
      </trkpt>
      <trkpt lat="47.55503" lon="-0.67088">
        <ele>78.97</ele>
        <time>2014-07-22T14:18:46Z</time>
      </trkpt>
      <trkpt lat="47.55507" lon="-0.67085">
        <ele>78.48</ele>
        <time>2014-07-22T14:18:47Z</time>
      </trkpt>
      <trkpt lat="47.55525" lon="-0.67088">
        <ele>77.04</ele>
        <time>2014-07-22T14:18:51Z</time>
      </trkpt>
      <trkpt lat="47.5554" lon="-0.67093">
        <ele>76.56</ele>
        <time>2014-07-22T14:18:55Z</time>
      </trkpt>
      <trkpt lat="47.55555" lon="-0.67074">
        <ele>76.56</ele>
        <time>2014-07-22T14:18:59Z</time>
      </trkpt>
      <trkpt lat="47.55582" lon="-0.67053">
        <ele>75.6</ele>
        <time>2014-07-22T14:19:06Z</time>
      </trkpt>
      <trkpt lat="47.55589" lon="-0.67047">
        <ele>75.12</ele>
        <time>2014-07-22T14:19:08Z</time>
      </trkpt>
      <trkpt lat="47.55595" lon="-0.67039">
        <ele>75.12</ele>
        <time>2014-07-22T14:19:10Z</time>
      </trkpt>
      <trkpt lat="47.55606" lon="-0.67007">
        <ele>74.64</ele>
        <time>2014-07-22T14:19:16Z</time>
      </trkpt>
      <trkpt lat="47.55611" lon="-0.66989">
        <ele>74.64</ele>
        <time>2014-07-22T14:19:21Z</time>
      </trkpt>
      <trkpt lat="47.55616" lon="-0.66968">
        <ele>74.64</ele>
        <time>2014-07-22T14:19:25Z</time>
      </trkpt>
      <trkpt lat="47.55621" lon="-0.66942">
        <ele>74.64</ele>
        <time>2014-07-22T14:19:29Z</time>
      </trkpt>
      <trkpt lat="47.55628" lon="-0.66905">
        <ele>74.64</ele>
        <time>2014-07-22T14:19:36Z</time>
      </trkpt>
      <trkpt lat="47.55634" lon="-0.66898">
        <ele>74.64</ele>
        <time>2014-07-22T14:19:38Z</time>
      </trkpt>
      <trkpt lat="47.55642" lon="-0.66872">
        <ele>74.16</ele>
        <time>2014-07-22T14:19:43Z</time>
      </trkpt>
      <trkpt lat="47.55639" lon="-0.66866">
        <ele>74.16</ele>
        <time>2014-07-22T14:19:44Z</time>
      </trkpt>
      <trkpt lat="47.55636" lon="-0.6686">
        <ele>74.16</ele>
        <time>2014-07-22T14:19:45Z</time>
      </trkpt>
      <trkpt lat="47.55634" lon="-0.66853">
        <ele>74.16</ele>
        <time>2014-07-22T14:19:46Z</time>
      </trkpt>
      <trkpt lat="47.5562" lon="-0.66815">
        <ele>73.68</ele>
        <time>2014-07-22T14:19:53Z</time>
      </trkpt>
      <trkpt lat="47.55618" lon="-0.6681">
        <ele>73.68</ele>
        <time>2014-07-22T14:19:54Z</time>
      </trkpt>
      <trkpt lat="47.55616" lon="-0.66804">
        <ele>74.64</ele>
        <time>2014-07-22T14:19:55Z</time>
      </trkpt>
      <trkpt lat="47.55609" lon="-0.66779">
        <ele>74.16</ele>
        <time>2014-07-22T14:19:59Z</time>
      </trkpt>
      <trkpt lat="47.55608" lon="-0.66772">
        <ele>74.64</ele>
        <time>2014-07-22T14:20:00Z</time>
      </trkpt>
      <trkpt lat="47.55607" lon="-0.66765">
        <ele>74.64</ele>
        <time>2014-07-22T14:20:01Z</time>
      </trkpt>
      <trkpt lat="47.55608" lon="-0.66758">
        <ele>75.12</ele>
        <time>2014-07-22T14:20:02Z</time>
      </trkpt>
      <trkpt lat="47.55609" lon="-0.66751">
        <ele>75.12</ele>
        <time>2014-07-22T14:20:03Z</time>
      </trkpt>
      <trkpt lat="47.55611" lon="-0.66745">
        <ele>74.16</ele>
        <time>2014-07-22T14:20:04Z</time>
      </trkpt>
      <trkpt lat="47.55614" lon="-0.66738">
        <ele>75.12</ele>
        <time>2014-07-22T14:20:05Z</time>
      </trkpt>
      <trkpt lat="47.55617" lon="-0.66733">
        <ele>74.64</ele>
        <time>2014-07-22T14:20:06Z</time>
      </trkpt>
      <trkpt lat="47.55638" lon="-0.66703">
        <ele>74.16</ele>
        <time>2014-07-22T14:20:14Z</time>
      </trkpt>
      <trkpt lat="47.55641" lon="-0.66698">
        <ele>73.68</ele>
        <time>2014-07-22T14:20:15Z</time>
      </trkpt>
      <trkpt lat="47.55646" lon="-0.66687">
        <ele>73.2</ele>
        <time>2014-07-22T14:20:17Z</time>
      </trkpt>
      <trkpt lat="47.55646" lon="-0.6668">
        <ele>72.72</ele>
        <time>2014-07-22T14:20:18Z</time>
      </trkpt>
      <trkpt lat="47.55644" lon="-0.66674">
        <ele>72.24</ele>
        <time>2014-07-22T14:20:19Z</time>
      </trkpt>
      <trkpt lat="47.5564" lon="-0.66668">
        <ele>73.2</ele>
        <time>2014-07-22T14:20:20Z</time>
      </trkpt>
      <trkpt lat="47.55636" lon="-0.66662">
        <ele>73.2</ele>
        <time>2014-07-22T14:20:21Z</time>
      </trkpt>
      <trkpt lat="47.55607" lon="-0.66613">
        <ele>72.72</ele>
        <time>2014-07-22T14:20:29Z</time>
      </trkpt>
      <trkpt lat="47.55575" lon="-0.6656">
        <ele>72.72</ele>
        <time>2014-07-22T14:20:37Z</time>
      </trkpt>
      <trkpt lat="47.55525" lon="-0.66484">
        <ele>70.79</ele>
        <time>2014-07-22T14:20:47Z</time>
      </trkpt>
      <trkpt lat="47.55475" lon="-0.66408">
        <ele>70.79</ele>
        <time>2014-07-22T14:20:57Z</time>
      </trkpt>
      <trkpt lat="47.55431" lon="-0.66342">
        <ele>70.31</ele>
        <time>2014-07-22T14:21:06Z</time>
      </trkpt>
      <trkpt lat="47.55394" lon="-0.66299">
        <ele>69.83</ele>
        <time>2014-07-22T14:21:13Z</time>
      </trkpt>
      <trkpt lat="47.5535" lon="-0.66252">
        <ele>70.31</ele>
        <time>2014-07-22T14:21:21Z</time>
      </trkpt>
      <trkpt lat="47.55302" lon="-0.6619">
        <ele>70.79</ele>
        <time>2014-07-22T14:21:31Z</time>
      </trkpt>
      <trkpt lat="47.55282" lon="-0.66161">
        <ele>69.83</ele>
        <time>2014-07-22T14:21:36Z</time>
      </trkpt>
      <trkpt lat="47.55277" lon="-0.66156">
        <ele>69.35</ele>
        <time>2014-07-22T14:21:37Z</time>
      </trkpt>
      <trkpt lat="47.55267" lon="-0.66145">
        <ele>68.87</ele>
        <time>2014-07-22T14:21:39Z</time>
      </trkpt>
      <trkpt lat="47.55234" lon="-0.66103">
        <ele>66.95</ele>
        <time>2014-07-22T14:21:45Z</time>
      </trkpt>
      <trkpt lat="47.55219" lon="-0.66085">
        <ele>65.03</ele>
        <time>2014-07-22T14:21:48Z</time>
      </trkpt>
      <trkpt lat="47.55215" lon="-0.66082">
        <ele>65.03</ele>
        <time>2014-07-22T14:21:49Z</time>
      </trkpt>
      <trkpt lat="47.55206" lon="-0.66071">
        <ele>65.03</ele>
        <time>2014-07-22T14:21:53Z</time>
      </trkpt>
      <trkpt lat="47.55192" lon="-0.66038">
        <ele>66.95</ele>
        <time>2014-07-22T14:21:59Z</time>
      </trkpt>
      <trkpt lat="47.55189" lon="-0.6603">
        <ele>66.95</ele>
        <time>2014-07-22T14:22:00Z</time>
      </trkpt>
      <trkpt lat="47.55186" lon="-0.66022">
        <ele>67.91</ele>
        <time>2014-07-22T14:22:01Z</time>
      </trkpt>
      <trkpt lat="47.55183" lon="-0.66014">
        <ele>68.39</ele>
        <time>2014-07-22T14:22:02Z</time>
      </trkpt>
      <trkpt lat="47.55167" lon="-0.65987">
        <ele>69.83</ele>
        <time>2014-07-22T14:22:06Z</time>
      </trkpt>
      <trkpt lat="47.55139" lon="-0.65938">
        <ele>67.43</ele>
        <time>2014-07-22T14:22:13Z</time>
      </trkpt>
      <trkpt lat="47.551" lon="-0.65879">
        <ele>64.07</ele>
        <time>2014-07-22T14:22:20Z</time>
      </trkpt>
      <trkpt lat="47.55093" lon="-0.65871">
        <ele>64.07</ele>
        <time>2014-07-22T14:22:21Z</time>
      </trkpt>
      <trkpt lat="47.55038" lon="-0.65813">
        <ele>60.22</ele>
        <time>2014-07-22T14:22:28Z</time>
      </trkpt>
      <trkpt lat="47.54983" lon="-0.65762">
        <ele>60.7</ele>
        <time>2014-07-22T14:22:34Z</time>
      </trkpt>
      <trkpt lat="47.54959" lon="-0.65736">
        <ele>62.14</ele>
        <time>2014-07-22T14:22:37Z</time>
      </trkpt>
      <trkpt lat="47.54908" lon="-0.65698">
        <ele>63.1</ele>
        <time>2014-07-22T14:22:44Z</time>
      </trkpt>
      <trkpt lat="47.54858" lon="-0.65666">
        <ele>63.58</ele>
        <time>2014-07-22T14:22:52Z</time>
      </trkpt>
      <trkpt lat="47.54804" lon="-0.65636">
        <ele>63.1</ele>
        <time>2014-07-22T14:23:01Z</time>
      </trkpt>
      <trkpt lat="47.54749" lon="-0.65613">
        <ele>62.62</ele>
        <time>2014-07-22T14:23:10Z</time>
      </trkpt>
      <trkpt lat="47.54688" lon="-0.65591">
        <ele>62.62</ele>
        <time>2014-07-22T14:23:20Z</time>
      </trkpt>
      <trkpt lat="47.54612" lon="-0.65561">
        <ele>64.07</ele>
        <time>2014-07-22T14:23:33Z</time>
      </trkpt>
      <trkpt lat="47.54564" lon="-0.65541">
        <ele>66.47</ele>
        <time>2014-07-22T14:23:42Z</time>
      </trkpt>
      <trkpt lat="47.54529" lon="-0.65525">
        <ele>68.39</ele>
        <time>2014-07-22T14:23:50Z</time>
      </trkpt>
      <trkpt lat="47.5452" lon="-0.65521">
        <ele>69.35</ele>
        <time>2014-07-22T14:23:52Z</time>
      </trkpt>
      <trkpt lat="47.54486" lon="-0.65502">
        <ele>71.27</ele>
        <time>2014-07-22T14:24:01Z</time>
      </trkpt>
      <trkpt lat="47.54455" lon="-0.65479">
        <ele>72.72</ele>
        <time>2014-07-22T14:24:10Z</time>
      </trkpt>
      <trkpt lat="47.5443" lon="-0.65462">
        <ele>72.72</ele>
        <time>2014-07-22T14:24:17Z</time>
      </trkpt>
      <trkpt lat="47.54394" lon="-0.6543">
        <ele>74.16</ele>
        <time>2014-07-22T14:24:28Z</time>
      </trkpt>
      <trkpt lat="47.54368" lon="-0.65405">
        <ele>75.6</ele>
        <time>2014-07-22T14:24:36Z</time>
      </trkpt>
      <trkpt lat="47.54337" lon="-0.65369">
        <ele>76.08</ele>
        <time>2014-07-22T14:24:46Z</time>
      </trkpt>
      <trkpt lat="47.54327" lon="-0.65358">
        <ele>77.04</ele>
        <time>2014-07-22T14:24:49Z</time>
      </trkpt>
      <trkpt lat="47.54309" lon="-0.65359">
        <ele>76.08</ele>
        <time>2014-07-22T14:24:54Z</time>
      </trkpt>
      <trkpt lat="47.54286" lon="-0.65389">
        <ele>77.52</ele>
        <time>2014-07-22T14:25:02Z</time>
      </trkpt>
      <trkpt lat="47.54276" lon="-0.654">
        <ele>78</ele>
        <time>2014-07-22T14:25:05Z</time>
      </trkpt>
      <trkpt lat="47.54261" lon="-0.65413">
        <ele>78.48</ele>
        <time>2014-07-22T14:25:09Z</time>
      </trkpt>
      <trkpt lat="47.54235" lon="-0.6543">
        <ele>79.45</ele>
        <time>2014-07-22T14:25:16Z</time>
      </trkpt>
      <trkpt lat="47.54205" lon="-0.65445">
        <ele>80.89</ele>
        <time>2014-07-22T14:25:24Z</time>
      </trkpt>
      <trkpt lat="47.5419" lon="-0.65461">
        <ele>81.85</ele>
        <time>2014-07-22T14:25:29Z</time>
      </trkpt>
      <trkpt lat="47.54187" lon="-0.65465">
        <ele>81.85</ele>
        <time>2014-07-22T14:25:30Z</time>
      </trkpt>
      <trkpt lat="47.54166" lon="-0.65474">
        <ele>81.85</ele>
        <time>2014-07-22T14:25:35Z</time>
      </trkpt>
      <trkpt lat="47.54134" lon="-0.6547">
        <ele>82.81</ele>
        <time>2014-07-22T14:25:43Z</time>
      </trkpt>
      <trkpt lat="47.54107" lon="-0.65473">
        <ele>84.73</ele>
        <time>2014-07-22T14:25:50Z</time>
      </trkpt>
      <trkpt lat="47.54071" lon="-0.65482">
        <ele>85.69</ele>
        <time>2014-07-22T14:25:59Z</time>
      </trkpt>
      <trkpt lat="47.54053" lon="-0.65488">
        <ele>86.18</ele>
        <time>2014-07-22T14:26:03Z</time>
      </trkpt>
      <trkpt lat="47.54033" lon="-0.65495">
        <ele>86.66</ele>
        <time>2014-07-22T14:26:08Z</time>
      </trkpt>
      <trkpt lat="47.53997" lon="-0.65506">
        <ele>87.62</ele>
        <time>2014-07-22T14:26:17Z</time>
      </trkpt>
      <trkpt lat="47.53976" lon="-0.65513">
        <ele>87.14</ele>
        <time>2014-07-22T14:26:24Z</time>
      </trkpt>
      <trkpt lat="47.5397" lon="-0.65501">
        <ele>87.62</ele>
        <time>2014-07-22T14:26:28Z</time>
      </trkpt>
      <trkpt lat="47.53962" lon="-0.65475">
        <ele>87.62</ele>
        <time>2014-07-22T14:26:34Z</time>
      </trkpt>
      <trkpt lat="47.53963" lon="-0.6547">
        <ele>87.62</ele>
        <time>2014-07-22T14:26:40Z</time>
      </trkpt>
      <trkpt lat="47.53963" lon="-0.6547">
        <ele>87.14</ele>
        <time>2014-07-22T14:26:49Z</time>
      </trkpt>
      <trkpt lat="47.53963" lon="-0.6547">
        <ele>87.14</ele>
        <time>2014-07-22T14:27:03Z</time>
      </trkpt>
      <trkpt lat="47.53963" lon="-0.6547">
        <ele>81.37</ele>
        <time>2014-07-22T14:27:19Z</time>
      </trkpt>
      <trkpt lat="47.53963" lon="-0.6547">
        <ele>88.58</ele>
        <time>2014-07-22T14:27:20Z</time>
      </trkpt>
      <trkpt lat="47.53963" lon="-0.6547">
        <ele>84.25</ele>
        <time>2014-07-22T14:27:22Z</time>
      </trkpt>
      <trkpt lat="47.53963" lon="-0.6547">
        <ele>88.1</ele>
        <time>2014-07-22T14:27:23Z</time>
      </trkpt>
      <trkpt lat="47.53963" lon="-0.6547">
        <ele>87.14</ele>
        <time>2014-07-22T14:27:26Z</time>
      </trkpt>
      <trkpt lat="47.5396" lon="-0.65445">
        <ele>87.14</ele>
        <time>2014-07-22T14:27:32Z</time>
      </trkpt>
      <trkpt lat="47.53956" lon="-0.65426">
        <ele>87.14</ele>
        <time>2014-07-22T14:27:35Z</time>
      </trkpt>
      <trkpt lat="47.53952" lon="-0.65404">
        <ele>90.5</ele>
        <time>2014-07-22T14:27:38Z</time>
      </trkpt>
      <trkpt lat="47.53947" lon="-0.65334">
        <ele>86.66</ele>
        <time>2014-07-22T14:27:47Z</time>
      </trkpt>
      <trkpt lat="47.53944" lon="-0.6525">
        <ele>84.73</ele>
        <time>2014-07-22T14:27:57Z</time>
      </trkpt>
      <trkpt lat="47.5394" lon="-0.65207">
        <ele>84.73</ele>
        <time>2014-07-22T14:28:02Z</time>
      </trkpt>
      <trkpt lat="47.53934" lon="-0.65175">
        <ele>84.25</ele>
        <time>2014-07-22T14:28:06Z</time>
      </trkpt>
      <trkpt lat="47.53905" lon="-0.6509">
        <ele>84.25</ele>
        <time>2014-07-22T14:28:17Z</time>
      </trkpt>
      <trkpt lat="47.53879" lon="-0.65019">
        <ele>84.25</ele>
        <time>2014-07-22T14:28:26Z</time>
      </trkpt>
      <trkpt lat="47.53859" lon="-0.64949">
        <ele>83.77</ele>
        <time>2014-07-22T14:28:34Z</time>
      </trkpt>
      <trkpt lat="47.53842" lon="-0.64871">
        <ele>82.33</ele>
        <time>2014-07-22T14:28:42Z</time>
      </trkpt>
      <trkpt lat="47.53823" lon="-0.64785">
        <ele>82.33</ele>
        <time>2014-07-22T14:28:51Z</time>
      </trkpt>
      <trkpt lat="47.53811" lon="-0.64686">
        <ele>81.37</ele>
        <time>2014-07-22T14:29:01Z</time>
      </trkpt>
      <trkpt lat="47.53795" lon="-0.64584">
        <ele>79.93</ele>
        <time>2014-07-22T14:29:11Z</time>
      </trkpt>
      <trkpt lat="47.53777" lon="-0.64511">
        <ele>78.97</ele>
        <time>2014-07-22T14:29:18Z</time>
      </trkpt>
      <trkpt lat="47.53745" lon="-0.64403">
        <ele>78</ele>
        <time>2014-07-22T14:29:28Z</time>
      </trkpt>
      <trkpt lat="47.53723" lon="-0.64295">
        <ele>77.52</ele>
        <time>2014-07-22T14:29:38Z</time>
      </trkpt>
      <trkpt lat="47.53705" lon="-0.64212">
        <ele>76.08</ele>
        <time>2014-07-22T14:29:46Z</time>
      </trkpt>
      <trkpt lat="47.53686" lon="-0.64112">
        <ele>75.6</ele>
        <time>2014-07-22T14:29:56Z</time>
      </trkpt>
      <trkpt lat="47.53677" lon="-0.64057">
        <ele>75.12</ele>
        <time>2014-07-22T14:30:02Z</time>
      </trkpt>
      <trkpt lat="47.5368" lon="-0.64018">
        <ele>75.6</ele>
        <time>2014-07-22T14:30:07Z</time>
      </trkpt>
      <trkpt lat="47.53688" lon="-0.64008">
        <ele>75.6</ele>
        <time>2014-07-22T14:30:09Z</time>
      </trkpt>
      <trkpt lat="47.53738" lon="-0.6395">
        <ele>75.12</ele>
        <time>2014-07-22T14:30:20Z</time>
      </trkpt>
      <trkpt lat="47.53783" lon="-0.63898">
        <ele>73.2</ele>
        <time>2014-07-22T14:30:29Z</time>
      </trkpt>
      <trkpt lat="47.53799" lon="-0.63866">
        <ele>72.24</ele>
        <time>2014-07-22T14:30:33Z</time>
      </trkpt>
      <trkpt lat="47.53801" lon="-0.63855">
        <ele>71.76</ele>
        <time>2014-07-22T14:30:34Z</time>
      </trkpt>
      <trkpt lat="47.53806" lon="-0.63826">
        <ele>71.76</ele>
        <time>2014-07-22T14:30:37Z</time>
      </trkpt>
      <trkpt lat="47.53801" lon="-0.63795">
        <ele>70.79</ele>
        <time>2014-07-22T14:30:41Z</time>
      </trkpt>
      <trkpt lat="47.53797" lon="-0.63789">
        <ele>70.79</ele>
        <time>2014-07-22T14:30:42Z</time>
      </trkpt>
      <trkpt lat="47.5375" lon="-0.63718">
        <ele>71.27</ele>
        <time>2014-07-22T14:30:53Z</time>
      </trkpt>
      <trkpt lat="47.53704" lon="-0.6364">
        <ele>71.76</ele>
        <time>2014-07-22T14:31:04Z</time>
      </trkpt>
      <trkpt lat="47.53667" lon="-0.6358">
        <ele>72.72</ele>
        <time>2014-07-22T14:31:13Z</time>
      </trkpt>
      <trkpt lat="47.5362" lon="-0.63508">
        <ele>73.2</ele>
        <time>2014-07-22T14:31:24Z</time>
      </trkpt>
      <trkpt lat="47.53573" lon="-0.63435">
        <ele>74.16</ele>
        <time>2014-07-22T14:31:35Z</time>
      </trkpt>
      <trkpt lat="47.53539" lon="-0.63381">
        <ele>74.64</ele>
        <time>2014-07-22T14:31:43Z</time>
      </trkpt>
      <trkpt lat="47.53505" lon="-0.63328">
        <ele>76.08</ele>
        <time>2014-07-22T14:31:51Z</time>
      </trkpt>
      <trkpt lat="47.53469" lon="-0.63264">
        <ele>74.64</ele>
        <time>2014-07-22T14:32:00Z</time>
      </trkpt>
      <trkpt lat="47.53451" lon="-0.63225">
        <ele>74.16</ele>
        <time>2014-07-22T14:32:05Z</time>
      </trkpt>
      <trkpt lat="47.53434" lon="-0.63193">
        <ele>74.16</ele>
        <time>2014-07-22T14:32:10Z</time>
      </trkpt>
      <trkpt lat="47.53445" lon="-0.63177">
        <ele>74.16</ele>
        <time>2014-07-22T14:32:13Z</time>
      </trkpt>
      <trkpt lat="47.53464" lon="-0.63159">
        <ele>73.68</ele>
        <time>2014-07-22T14:32:17Z</time>
      </trkpt>
      <trkpt lat="47.53505" lon="-0.63104">
        <ele>71.76</ele>
        <time>2014-07-22T14:32:25Z</time>
      </trkpt>
      <trkpt lat="47.53529" lon="-0.63071">
        <ele>68.87</ele>
        <time>2014-07-22T14:32:29Z</time>
      </trkpt>
      <trkpt lat="47.53535" lon="-0.63062">
        <ele>67.91</ele>
        <time>2014-07-22T14:32:30Z</time>
      </trkpt>
      <trkpt lat="47.53564" lon="-0.63031">
        <ele>65.51</ele>
        <time>2014-07-22T14:32:34Z</time>
      </trkpt>
      <trkpt lat="47.5358" lon="-0.63019">
        <ele>64.55</ele>
        <time>2014-07-22T14:32:36Z</time>
      </trkpt>
      <trkpt lat="47.53595" lon="-0.63005">
        <ele>64.07</ele>
        <time>2014-07-22T14:32:38Z</time>
      </trkpt>
      <trkpt lat="47.53617" lon="-0.62987">
        <ele>62.14</ele>
        <time>2014-07-22T14:32:41Z</time>
      </trkpt>
      <trkpt lat="47.53632" lon="-0.62978">
        <ele>60.7</ele>
        <time>2014-07-22T14:32:43Z</time>
      </trkpt>
      <trkpt lat="47.53648" lon="-0.62951">
        <ele>59.26</ele>
        <time>2014-07-22T14:32:47Z</time>
      </trkpt>
      <trkpt lat="47.53646" lon="-0.62931">
        <ele>58.78</ele>
        <time>2014-07-22T14:32:50Z</time>
      </trkpt>
      <trkpt lat="47.53646" lon="-0.62914">
        <ele>58.3</ele>
        <time>2014-07-22T14:32:55Z</time>
      </trkpt>
      <trkpt lat="47.53643" lon="-0.62898">
        <ele>57.34</ele>
        <time>2014-07-22T14:32:59Z</time>
      </trkpt>
      <trkpt lat="47.53643" lon="-0.62866">
        <ele>56.86</ele>
        <time>2014-07-22T14:33:04Z</time>
      </trkpt>
      <trkpt lat="47.53648" lon="-0.62851">
        <ele>56.86</ele>
        <time>2014-07-22T14:33:06Z</time>
      </trkpt>
      <trkpt lat="47.53661" lon="-0.62819">
        <ele>56.37</ele>
        <time>2014-07-22T14:33:10Z</time>
      </trkpt>
      <trkpt lat="47.53693" lon="-0.62765">
        <ele>54.93</ele>
        <time>2014-07-22T14:33:17Z</time>
      </trkpt>
      <trkpt lat="47.53702" lon="-0.62748">
        <ele>54.45</ele>
        <time>2014-07-22T14:33:19Z</time>
      </trkpt>
      <trkpt lat="47.53722" lon="-0.62698">
        <ele>53.01</ele>
        <time>2014-07-22T14:33:24Z</time>
      </trkpt>
      <trkpt lat="47.53744" lon="-0.62625">
        <ele>50.61</ele>
        <time>2014-07-22T14:33:31Z</time>
      </trkpt>
      <trkpt lat="47.53744" lon="-0.62614">
        <ele>50.13</ele>
        <time>2014-07-22T14:33:32Z</time>
      </trkpt>
      <trkpt lat="47.53743" lon="-0.62604">
        <ele>49.65</ele>
        <time>2014-07-22T14:33:33Z</time>
      </trkpt>
      <trkpt lat="47.53741" lon="-0.62584">
        <ele>49.16</ele>
        <time>2014-07-22T14:33:35Z</time>
      </trkpt>
      <trkpt lat="47.53739" lon="-0.62574">
        <ele>49.16</ele>
        <time>2014-07-22T14:33:36Z</time>
      </trkpt>
      <trkpt lat="47.53727" lon="-0.62539">
        <ele>49.16</ele>
        <time>2014-07-22T14:33:40Z</time>
      </trkpt>
      <trkpt lat="47.53723" lon="-0.62532">
        <ele>49.65</ele>
        <time>2014-07-22T14:33:41Z</time>
      </trkpt>
      <trkpt lat="47.53719" lon="-0.62526">
        <ele>49.65</ele>
        <time>2014-07-22T14:33:42Z</time>
      </trkpt>
      <trkpt lat="47.53715" lon="-0.6252">
        <ele>49.65</ele>
        <time>2014-07-22T14:33:43Z</time>
      </trkpt>
      <trkpt lat="47.53711" lon="-0.62516">
        <ele>50.13</ele>
        <time>2014-07-22T14:33:44Z</time>
      </trkpt>
      <trkpt lat="47.53706" lon="-0.62513">
        <ele>49.65</ele>
        <time>2014-07-22T14:33:45Z</time>
      </trkpt>
      <trkpt lat="47.53702" lon="-0.62509">
        <ele>50.13</ele>
        <time>2014-07-22T14:33:46Z</time>
      </trkpt>
      <trkpt lat="47.53699" lon="-0.62505">
        <ele>51.09</ele>
        <time>2014-07-22T14:33:47Z</time>
      </trkpt>
      <trkpt lat="47.53674" lon="-0.62477">
        <ele>51.57</ele>
        <time>2014-07-22T14:33:56Z</time>
      </trkpt>
      <trkpt lat="47.53672" lon="-0.62474">
        <ele>51.57</ele>
        <time>2014-07-22T14:33:57Z</time>
      </trkpt>
      <trkpt lat="47.53672" lon="-0.6247">
        <ele>51.57</ele>
        <time>2014-07-22T14:33:58Z</time>
      </trkpt>
      <trkpt lat="47.53683" lon="-0.62461">
        <ele>51.09</ele>
        <time>2014-07-22T14:34:02Z</time>
      </trkpt>
      <trkpt lat="47.53687" lon="-0.62459">
        <ele>51.57</ele>
        <time>2014-07-22T14:34:03Z</time>
      </trkpt>
      <trkpt lat="47.53694" lon="-0.62451">
        <ele>51.09</ele>
        <time>2014-07-22T14:34:05Z</time>
      </trkpt>
      <trkpt lat="47.53702" lon="-0.62443">
        <ele>50.61</ele>
        <time>2014-07-22T14:34:07Z</time>
      </trkpt>
      <trkpt lat="47.53707" lon="-0.62434">
        <ele>49.16</ele>
        <time>2014-07-22T14:34:09Z</time>
      </trkpt>
      <trkpt lat="47.53706" lon="-0.62428">
        <ele>49.65</ele>
        <time>2014-07-22T14:34:10Z</time>
      </trkpt>
      <trkpt lat="47.53704" lon="-0.62423">
        <ele>49.65</ele>
        <time>2014-07-22T14:34:11Z</time>
      </trkpt>
      <trkpt lat="47.53701" lon="-0.62418">
        <ele>49.16</ele>
        <time>2014-07-22T14:34:12Z</time>
      </trkpt>
      <trkpt lat="47.53698" lon="-0.62414">
        <ele>50.13</ele>
        <time>2014-07-22T14:34:13Z</time>
      </trkpt>
      <trkpt lat="47.53694" lon="-0.62411">
        <ele>50.13</ele>
        <time>2014-07-22T14:34:14Z</time>
      </trkpt>
      <trkpt lat="47.5369" lon="-0.62408">
        <ele>51.09</ele>
        <time>2014-07-22T14:34:15Z</time>
      </trkpt>
      <trkpt lat="47.53678" lon="-0.62399">
        <ele>52.05</ele>
        <time>2014-07-22T14:34:18Z</time>
      </trkpt>
      <trkpt lat="47.53675" lon="-0.62395">
        <ele>52.05</ele>
        <time>2014-07-22T14:34:19Z</time>
      </trkpt>
      <trkpt lat="47.53664" lon="-0.62379">
        <ele>52.53</ele>
        <time>2014-07-22T14:34:22Z</time>
      </trkpt>
      <trkpt lat="47.53662" lon="-0.62373">
        <ele>53.49</ele>
        <time>2014-07-22T14:34:23Z</time>
      </trkpt>
      <trkpt lat="47.5366" lon="-0.62367">
        <ele>53.01</ele>
        <time>2014-07-22T14:34:24Z</time>
      </trkpt>
      <trkpt lat="47.53659" lon="-0.62361">
        <ele>53.49</ele>
        <time>2014-07-22T14:34:25Z</time>
      </trkpt>
      <trkpt lat="47.53658" lon="-0.62355">
        <ele>53.49</ele>
        <time>2014-07-22T14:34:26Z</time>
      </trkpt>
      <trkpt lat="47.53659" lon="-0.62349">
        <ele>53.97</ele>
        <time>2014-07-22T14:34:27Z</time>
      </trkpt>
      <trkpt lat="47.5366" lon="-0.62343">
        <ele>53.97</ele>
        <time>2014-07-22T14:34:28Z</time>
      </trkpt>
      <trkpt lat="47.53662" lon="-0.62338">
        <ele>54.45</ele>
        <time>2014-07-22T14:34:29Z</time>
      </trkpt>
      <trkpt lat="47.53672" lon="-0.62324">
        <ele>54.45</ele>
        <time>2014-07-22T14:34:32Z</time>
      </trkpt>
      <trkpt lat="47.53712" lon="-0.62289">
        <ele>53.49</ele>
        <time>2014-07-22T14:34:41Z</time>
      </trkpt>
      <trkpt lat="47.53721" lon="-0.62283">
        <ele>53.01</ele>
        <time>2014-07-22T14:34:43Z</time>
      </trkpt>
      <trkpt lat="47.53749" lon="-0.62245">
        <ele>53.49</ele>
        <time>2014-07-22T14:34:51Z</time>
      </trkpt>
      <trkpt lat="47.53753" lon="-0.62241">
        <ele>52.53</ele>
        <time>2014-07-22T14:34:52Z</time>
      </trkpt>
      <trkpt lat="47.53755" lon="-0.62217">
        <ele>53.49</ele>
        <time>2014-07-22T14:34:56Z</time>
      </trkpt>
      <trkpt lat="47.53741" lon="-0.62202">
        <ele>53.97</ele>
        <time>2014-07-22T14:35:00Z</time>
      </trkpt>
      <trkpt lat="47.53719" lon="-0.62176">
        <ele>54.93</ele>
        <time>2014-07-22T14:35:08Z</time>
      </trkpt>
      <trkpt lat="47.53723" lon="-0.6216">
        <ele>55.41</ele>
        <time>2014-07-22T14:35:13Z</time>
      </trkpt>
      <trkpt lat="47.53739" lon="-0.6214">
        <ele>55.41</ele>
        <time>2014-07-22T14:35:19Z</time>
      </trkpt>
      <trkpt lat="47.53753" lon="-0.62124">
        <ele>54.93</ele>
        <time>2014-07-22T14:35:24Z</time>
      </trkpt>
      <trkpt lat="47.53749" lon="-0.62107">
        <ele>54.93</ele>
        <time>2014-07-22T14:35:29Z</time>
      </trkpt>
      <trkpt lat="47.5375" lon="-0.62102">
        <ele>54.93</ele>
        <time>2014-07-22T14:35:34Z</time>
      </trkpt>
      <trkpt lat="47.53762" lon="-0.62124">
        <ele>54.93</ele>
        <time>2014-07-22T14:35:39Z</time>
      </trkpt>
      <trkpt lat="47.53775" lon="-0.62146">
        <ele>53.49</ele>
        <time>2014-07-22T14:35:43Z</time>
      </trkpt>
      <trkpt lat="47.53783" lon="-0.62154">
        <ele>52.53</ele>
        <time>2014-07-22T14:35:45Z</time>
      </trkpt>
      <trkpt lat="47.53794" lon="-0.62147">
        <ele>53.01</ele>
        <time>2014-07-22T14:35:48Z</time>
      </trkpt>
      <trkpt lat="47.53801" lon="-0.62138">
        <ele>52.05</ele>
        <time>2014-07-22T14:35:50Z</time>
      </trkpt>
      <trkpt lat="47.53819" lon="-0.62115">
        <ele>51.57</ele>
        <time>2014-07-22T14:35:56Z</time>
      </trkpt>
      <trkpt lat="47.53844" lon="-0.621">
        <ele>50.61</ele>
        <time>2014-07-22T14:36:02Z</time>
      </trkpt>
      <trkpt lat="47.53855" lon="-0.6209">
        <ele>51.09</ele>
        <time>2014-07-22T14:36:05Z</time>
      </trkpt>
      <trkpt lat="47.53871" lon="-0.6207">
        <ele>49.65</ele>
        <time>2014-07-22T14:36:11Z</time>
      </trkpt>
      <trkpt lat="47.53872" lon="-0.6207">
        <ele>50.13</ele>
        <time>2014-07-22T14:36:15Z</time>
      </trkpt>
      <trkpt lat="47.53872" lon="-0.6207">
        <ele>50.13</ele>
        <time>2014-07-22T14:36:19Z</time>
      </trkpt>
      <trkpt lat="47.53879" lon="-0.62057">
        <ele>50.13</ele>
        <time>2014-07-22T14:36:25Z</time>
      </trkpt>
      <trkpt lat="47.53879" lon="-0.62054">
        <ele>50.13</ele>
        <time>2014-07-22T14:36:26Z</time>
      </trkpt>
      <trkpt lat="47.53872" lon="-0.62032">
        <ele>50.13</ele>
        <time>2014-07-22T14:36:32Z</time>
      </trkpt>
      <trkpt lat="47.53873" lon="-0.62026">
        <ele>50.13</ele>
        <time>2014-07-22T14:36:37Z</time>
      </trkpt>
      <trkpt lat="47.53873" lon="-0.62026">
        <ele>50.13</ele>
        <time>2014-07-22T14:36:41Z</time>
      </trkpt>
      <trkpt lat="47.53873" lon="-0.62026">
        <ele>54.93</ele>
        <time>2014-07-22T14:36:42Z</time>
      </trkpt>
      <trkpt lat="47.53873" lon="-0.62026">
        <ele>51.57</ele>
        <time>2014-07-22T14:36:43Z</time>
      </trkpt>
      <trkpt lat="47.53873" lon="-0.62026">
        <ele>50.13</ele>
        <time>2014-07-22T14:36:59Z</time>
      </trkpt>
    </trkseg>
  </trk>
</gpx>